<?xml version='1.0' encoding='UTF-8'?><gpx version="1.1" creator="JPX - https://github.com/jenetics/jpx" xmlns="http://www.topografix.com/GPX/1/1"><trk><trkseg><trkpt lat="44.187417034225746" lon="9.952017557895498"><ele>456.0</ele><time>2026-04-12T13:44:29Z</time></trkpt><trkpt lat="44.187483717428194" lon="9.952006867171676"><ele>455.99999999999994</ele><time>2026-04-12T13:44:31Z</time></trkpt><trkpt lat="44.18754651728619" lon="9.951985482547032"><ele>456.0</ele><time>2026-04-12T13:44:34Z</time></trkpt><trkpt lat="44.187628609245614" lon="9.95201233746291"><ele>456.0</ele><time>2026-04-12T13:44:37Z</time></trkpt><trkpt lat="44.187678922088274" lon="9.952104489679384"><ele>455.99999999999994</ele><time>2026-04-12T13:44:40Z</time></trkpt><trkpt lat="44.18770414589038" lon="9.952193671352473"><ele>456.0</ele><time>2026-04-12T13:44:42Z</time></trkpt><trkpt lat="44.18773556424885" lon="9.952282961549475"><ele>456.0</ele><time>2026-04-12T13:44:44Z</time></trkpt><trkpt lat="44.1877380311808" lon="9.952380344436362"><ele>456.0</ele><time>2026-04-12T13:44:46Z</time></trkpt><trkpt lat="44.1878247686005" lon="9.952324911907874"><ele>456.0</ele><time>2026-04-12T13:44:50Z</time></trkpt><trkpt lat="44.18786677176972" lon="9.952238642434898"><ele>456.0</ele><time>2026-04-12T13:44:51Z</time></trkpt><trkpt lat="44.187866933677164" lon="9.952134383199525"><ele>456.0</ele><time>2026-04-12T13:44:53Z</time></trkpt><trkpt lat="44.18788681350505" lon="9.95204619712412"><ele>456.0</ele><time>2026-04-12T13:44:54Z</time></trkpt><trkpt lat="44.187891762347405" lon="9.951946599970094"><ele>456.0</ele><time>2026-04-12T13:44:55Z</time></trkpt><trkpt lat="44.18802504389315" lon="9.952002304100422"><ele>456.0</ele><time>2026-04-12T13:44:56Z</time></trkpt><trkpt lat="44.18807095020247" lon="9.951900770657407"><ele>456.0</ele><time>2026-04-12T13:44:58Z</time></trkpt><trkpt lat="44.188133554430706" lon="9.951834968398634"><ele>456.0</ele><time>2026-04-12T13:45:01Z</time></trkpt><trkpt lat="44.18819035877311" lon="9.95178299709487"><ele>456.0</ele><time>2026-04-12T13:45:04Z</time></trkpt><trkpt lat="44.18821823915263" lon="9.951654519821107"><ele>456.0</ele><time>2026-04-12T13:45:07Z</time></trkpt><trkpt lat="44.18825533671326" lon="9.951559270855242"><ele>456.0</ele><time>2026-04-12T13:45:09Z</time></trkpt><trkpt lat="44.188313498651624" lon="9.951472252337828"><ele>451.8333333333333</ele><time>2026-04-12T13:45:11Z</time></trkpt><trkpt lat="44.18833979278762" lon="9.951351834264758"><ele>447.66666666666663</ele><time>2026-04-12T13:45:13Z</time></trkpt><trkpt lat="44.18835997477373" lon="9.95126337976218"><ele>443.5</ele><time>2026-04-12T13:45:14Z</time></trkpt><trkpt lat="44.18844262032217" lon="9.951157690313575"><ele>439.3333333333333</ele><time>2026-04-12T13:45:16Z</time></trkpt><trkpt lat="44.18845661429746" lon="9.951044452066245"><ele>435.16666666666663</ele><time>2026-04-12T13:45:19Z</time></trkpt><trkpt lat="44.18850572733157" lon="9.950978031452921"><ele>431.0</ele><time>2026-04-12T13:45:22Z</time></trkpt><trkpt lat="44.18856851575179" lon="9.950991454945674"><ele>430.99999999999994</ele><time>2026-04-12T13:45:24Z</time></trkpt><trkpt lat="44.18865095299633" lon="9.951064190436755"><ele>431.0</ele><time>2026-04-12T13:45:26Z</time></trkpt><trkpt lat="44.18872037609565" lon="9.951112227087274"><ele>431.0</ele><time>2026-04-12T13:45:28.999Z</time></trkpt><trkpt lat="44.188767494014655" lon="9.951204588685185"><ele>431.0</ele><time>2026-04-12T13:45:31.999Z</time></trkpt><trkpt lat="44.1887758377778" lon="9.951298422703404"><ele>430.99999999999994</ele><time>2026-04-12T13:45:33.999Z</time></trkpt><trkpt lat="44.188782884261585" lon="9.951398470955416"><ele>431.0</ele><time>2026-04-12T13:45:37.999Z</time></trkpt><trkpt lat="44.188855991640786" lon="9.951380625777787"><ele>430.99999999999994</ele><time>2026-04-12T13:45:51Z</time></trkpt><trkpt lat="44.188887087814685" lon="9.951296984344818"><ele>431.0</ele><time>2026-04-12T13:45:54Z</time></trkpt><trkpt lat="44.18891863782351" lon="9.95120566552712"><ele>431.0</ele><time>2026-04-12T13:45:56Z</time></trkpt><trkpt lat="44.18895525002539" lon="9.951090549765519"><ele>431.0</ele><time>2026-04-12T13:45:59Z</time></trkpt><trkpt lat="44.18900887000966" lon="9.95099799307382"><ele>430.99999999999994</ele><time>2026-04-12T13:46:01Z</time></trkpt><trkpt lat="44.18903456425575" lon="9.950904734125896"><ele>431.0</ele><time>2026-04-12T13:46:03Z</time></trkpt><trkpt lat="44.18908974294881" lon="9.950848797114661"><ele>426.99999999999994</ele><time>2026-04-12T13:46:05Z</time></trkpt><trkpt lat="44.18914448211241" lon="9.950782177111924"><ele>423.0</ele><time>2026-04-12T13:46:07Z</time></trkpt><trkpt lat="44.18920450953656" lon="9.950697452164281"><ele>419.0</ele><time>2026-04-12T13:46:10Z</time></trkpt><trkpt lat="44.189263854981014" lon="9.95065166044625"><ele>415.0</ele><time>2026-04-12T13:46:13Z</time></trkpt><trkpt lat="44.18931369727897" lon="9.950744011331011"><ele>410.99999999999994</ele><time>2026-04-12T13:46:16Z</time></trkpt><trkpt lat="44.18930988433719" lon="9.950833104210616"><ele>407.0</ele><time>2026-04-12T13:46:20Z</time></trkpt><trkpt lat="44.18932746314614" lon="9.95094198139945"><ele>404.8333333333333</ele><time>2026-04-12T13:46:23Z</time></trkpt><trkpt lat="44.18933101333032" lon="9.951041856767596"><ele>402.66666666666663</ele><time>2026-04-12T13:46:25Z</time></trkpt><trkpt lat="44.18931194871247" lon="9.951137339307117"><ele>400.5</ele><time>2026-04-12T13:46:27Z</time></trkpt><trkpt lat="44.189348813052256" lon="9.951209589433601"><ele>398.33333333333337</ele><time>2026-04-12T13:46:31Z</time></trkpt><trkpt lat="44.189404028299656" lon="9.95114042057939"><ele>396.1666666666667</ele><time>2026-04-12T13:46:34Z</time></trkpt><trkpt lat="44.189477065439114" lon="9.951062982839206"><ele>394.0</ele><time>2026-04-12T13:46:37Z</time></trkpt><trkpt lat="44.18954271409111" lon="9.950988863310547"><ele>394.00000000000006</ele><time>2026-04-12T13:46:40Z</time></trkpt><trkpt lat="44.18959422070175" lon="9.950933854107493"><ele>394.0</ele><time>2026-04-12T13:46:42Z</time></trkpt><trkpt lat="44.1896627619392" lon="9.950854157981873"><ele>394.0</ele><time>2026-04-12T13:46:45Z</time></trkpt><trkpt lat="44.189709523573775" lon="9.950761256765702"><ele>394.0</ele><time>2026-04-12T13:46:47Z</time></trkpt><trkpt lat="44.18976093363491" lon="9.95069304115103"><ele>394.00000000000006</ele><time>2026-04-12T13:46:50Z</time></trkpt><trkpt lat="44.18983034003576" lon="9.950653651408913"><ele>394.0</ele><time>2026-04-12T13:46:53Z</time></trkpt><trkpt lat="44.189916198138356" lon="9.950571822359057"><ele>390.83333333333337</ele><time>2026-04-12T13:46:56Z</time></trkpt><trkpt lat="44.189966141000326" lon="9.95051412846436"><ele>387.6666666666667</ele><time>2026-04-12T13:46:58Z</time></trkpt><trkpt lat="44.19002408639525" lon="9.950453990453186"><ele>384.5</ele><time>2026-04-12T13:47:00Z</time></trkpt><trkpt lat="44.19007992152357" lon="9.950364726551957"><ele>381.33333333333337</ele><time>2026-04-12T13:47:03Z</time></trkpt><trkpt lat="44.190112367853885" lon="9.950254814004067"><ele>378.1666666666667</ele><time>2026-04-12T13:47:05Z</time></trkpt><trkpt lat="44.19012201526564" lon="9.95013790423632"><ele>375.0</ele><time>2026-04-12T13:47:07Z</time></trkpt><trkpt lat="44.19014107491644" lon="9.950027518784363"><ele>375.0</ele><time>2026-04-12T13:47:09Z</time></trkpt><trkpt lat="44.1901626672711" lon="9.949943777190022"><ele>375.0</ele><time>2026-04-12T13:47:11Z</time></trkpt><trkpt lat="44.190180159928296" lon="9.949829656844363"><ele>375.0</ele><time>2026-04-12T13:47:14Z</time></trkpt><trkpt lat="44.19024300444923" lon="9.949783187962261"><ele>375.0</ele><time>2026-04-12T13:47:18Z</time></trkpt><trkpt lat="44.19031335130355" lon="9.949847871618692"><ele>375.0</ele><time>2026-04-12T13:47:20Z</time></trkpt><trkpt lat="44.19037277859322" lon="9.949804983350974"><ele>375.0</ele><time>2026-04-12T13:47:23Z</time></trkpt><trkpt lat="44.190384609421166" lon="9.949696021501081"><ele>375.0</ele><time>2026-04-12T13:47:26Z</time></trkpt><trkpt lat="44.19040851117677" lon="9.949597090167023"><ele>375.0</ele><time>2026-04-12T13:47:28Z</time></trkpt><trkpt lat="44.19042969713643" lon="9.949479225173585"><ele>375.0</ele><time>2026-04-12T13:47:30Z</time></trkpt><trkpt lat="44.19048450059112" lon="9.949409189431583"><ele>375.0</ele><time>2026-04-12T13:47:37.999Z</time></trkpt><trkpt lat="44.19051506726428" lon="9.949495320487589"><ele>375.0</ele><time>2026-04-12T13:47:44.999Z</time></trkpt><trkpt lat="44.19056491783167" lon="9.949623631460621"><ele>375.0</ele><time>2026-04-12T13:47:47.999Z</time></trkpt><trkpt lat="44.190597981716614" lon="9.949762833796322"><ele>375.0</ele><time>2026-04-12T13:47:49.999Z</time></trkpt><trkpt lat="44.19061301815389" lon="9.949859235222432"><ele>369.2857142857143</ele><time>2026-04-12T13:47:51.999Z</time></trkpt><trkpt lat="44.19069290712355" lon="9.949804064460261"><ele>363.57142857142856</ele><time>2026-04-12T13:47:59Z</time></trkpt><trkpt lat="44.19071962013629" lon="9.949720400276943"><ele>357.85714285714283</ele><time>2026-04-12T13:48:01Z</time></trkpt><trkpt lat="44.19075232643558" lon="9.949638933259637"><ele>352.1428571428571</ele><time>2026-04-12T13:48:04Z</time></trkpt><trkpt lat="44.19077869330056" lon="9.949534763696295"><ele>346.42857142857144</ele><time>2026-04-12T13:48:08Z</time></trkpt><trkpt lat="44.19076732329478" lon="9.949436101495946"><ele>340.71428571428567</ele><time>2026-04-12T13:52:39Z</time></trkpt><trkpt lat="44.19082078936418" lon="9.949386627557075"><ele>335.0</ele><time>2026-04-12T13:52:56Z</time></trkpt><trkpt lat="44.19087269560315" lon="9.94948224618863"><ele>334.99999999999994</ele><time>2026-04-12T13:53:00Z</time></trkpt><trkpt lat="44.19090306128082" lon="9.94955953244553"><ele>335.0</ele><time>2026-04-12T13:53:03Z</time></trkpt><trkpt lat="44.19093227478664" lon="9.949659469204812"><ele>335.0</ele><time>2026-04-12T13:53:06Z</time></trkpt><trkpt lat="44.19098694826289" lon="9.949765126488595"><ele>335.0</ele><time>2026-04-12T13:53:08Z</time></trkpt><trkpt lat="44.19101262783962" lon="9.949845918552391"><ele>335.0</ele><time>2026-04-12T13:53:11Z</time></trkpt><trkpt lat="44.19104459039079" lon="9.949930429205224"><ele>334.99999999999994</ele><time>2026-04-12T13:53:14Z</time></trkpt><trkpt lat="44.19111037420173" lon="9.949942987788512"><ele>335.0</ele><time>2026-04-12T13:53:20Z</time></trkpt><trkpt lat="44.19114848721299" lon="9.949864300308045"><ele>335.0</ele><time>2026-04-12T13:53:22Z</time></trkpt><trkpt lat="44.19119600177454" lon="9.94978759004335"><ele>335.0</ele><time>2026-04-12T13:53:25Z</time></trkpt><trkpt lat="44.19125541793499" lon="9.949703196336419"><ele>335.0</ele><time>2026-04-12T13:53:29Z</time></trkpt><trkpt lat="44.191328024518135" lon="9.949657249315955"><ele>335.0</ele><time>2026-04-12T13:53:33Z</time></trkpt><trkpt lat="44.19139645057006" lon="9.949707965081318"><ele>335.0</ele><time>2026-04-12T13:53:35Z</time></trkpt><trkpt lat="44.19144254343145" lon="9.949786426490158"><ele>335.0</ele><time>2026-04-12T13:53:37Z</time></trkpt><trkpt lat="44.19147548854576" lon="9.949883085229953"><ele>335.0</ele><time>2026-04-12T13:53:40Z</time></trkpt><trkpt lat="44.19150195710007" lon="9.949976588715442"><ele>335.0</ele><time>2026-04-12T13:53:45Z</time></trkpt><trkpt lat="44.19151571650251" lon="9.950088629013193"><ele>335.0</ele><time>2026-04-12T13:53:49Z</time></trkpt><trkpt lat="44.19156661865136" lon="9.950141129757395"><ele>335.0</ele><time>2026-04-12T13:53:54Z</time></trkpt><trkpt lat="44.19163283809718" lon="9.950198572898923"><ele>335.0</ele><time>2026-04-12T13:54:08.999Z</time></trkpt><trkpt lat="44.191695459877344" lon="9.950179867982177"><ele>335.0</ele><time>2026-04-12T13:54:11.999Z</time></trkpt><trkpt lat="44.19181831703369" lon="9.950226220172466"><ele>326.83333333333337</ele><time>2026-04-12T13:54:16Z</time></trkpt><trkpt lat="44.19184621426312" lon="9.950319929170998"><ele>318.6666666666667</ele><time>2026-04-12T13:54:18Z</time></trkpt><trkpt lat="44.19188319747425" lon="9.950403687537678"><ele>310.5</ele><time>2026-04-12T13:54:22Z</time></trkpt><trkpt lat="44.19191129563506" lon="9.950514863948698"><ele>302.3333333333333</ele><time>2026-04-12T13:54:27Z</time></trkpt><trkpt lat="44.191912154434426" lon="9.950610340468605"><ele>294.16666666666663</ele><time>2026-04-12T13:54:30Z</time></trkpt><trkpt lat="44.19195204567485" lon="9.95072608803076"><ele>286.0</ele><time>2026-04-12T13:54:33Z</time></trkpt><trkpt lat="44.191939061590325" lon="9.950825685276966"><ele>286.0</ele><time>2026-04-12T13:54:35Z</time></trkpt><trkpt lat="44.19200746840403" lon="9.950881584819813"><ele>286.0</ele><time>2026-04-12T13:54:40Z</time></trkpt><trkpt lat="44.192065280792434" lon="9.950836967811123"><ele>286.0</ele><time>2026-04-12T13:54:47Z</time></trkpt><trkpt lat="44.192112047721636" lon="9.950767175792171"><ele>286.0</ele><time>2026-04-12T13:54:55Z</time></trkpt><trkpt lat="44.192157566477356" lon="9.950668800542482"><ele>286.0</ele><time>2026-04-12T13:55:13Z</time></trkpt><trkpt lat="44.19221129964867" lon="9.950585903172948"><ele>286.0</ele><time>2026-04-12T14:04:38.999Z</time></trkpt><trkpt lat="44.19227429545839" lon="9.95045923267777"><ele>279.3333333333333</ele><time>2026-04-12T14:04:41Z</time></trkpt><trkpt lat="44.19234458086686" lon="9.950439960664191"><ele>272.66666666666663</ele><time>2026-04-12T14:04:44Z</time></trkpt><trkpt lat="44.192409180190694" lon="9.950492736586199"><ele>266.0</ele><time>2026-04-12T14:04:47Z</time></trkpt><trkpt lat="44.192448504257506" lon="9.950571648449255"><ele>259.3333333333333</ele><time>2026-04-12T14:04:49Z</time></trkpt><trkpt lat="44.192467177324076" lon="9.950660496648425"><ele>252.66666666666666</ele><time>2026-04-12T14:04:52Z</time></trkpt><trkpt lat="44.192426424852734" lon="9.950518455709933"><ele>246.0</ele><time>2026-04-12T14:05:19Z</time></trkpt><trkpt lat="44.19237993285979" lon="9.950449386598308"><ele>252.66666666666666</ele><time>2026-04-12T14:05:24Z</time></trkpt><trkpt lat="44.19230292530625" lon="9.950518045990052"><ele>259.3333333333333</ele><time>2026-04-12T14:05:33Z</time></trkpt><trkpt lat="44.19222999831826" lon="9.95058635813123"><ele>266.0</ele><time>2026-04-12T14:05:39Z</time></trkpt><trkpt lat="44.192195864241725" lon="9.950673030690618"><ele>272.66666666666663</ele><time>2026-04-12T14:05:44Z</time></trkpt><trkpt lat="44.19214296606057" lon="9.950733199320645"><ele>279.3333333333333</ele><time>2026-04-12T14:05:48Z</time></trkpt><trkpt lat="44.192088201109236" lon="9.950795399996556"><ele>286.0</ele><time>2026-04-12T14:05:54Z</time></trkpt><trkpt lat="44.19201294215827" lon="9.950859734675351"><ele>286.0</ele><time>2026-04-12T14:05:59Z</time></trkpt><trkpt lat="44.191934149343425" lon="9.950838352846272"><ele>286.0</ele><time>2026-04-12T14:06:02Z</time></trkpt><trkpt lat="44.191941858547146" lon="9.95074661703864"><ele>286.0</ele><time>2026-04-12T14:06:04Z</time></trkpt><trkpt lat="44.191917632998134" lon="9.950626736680107"><ele>286.0</ele><time>2026-04-12T14:06:07Z</time></trkpt><trkpt lat="44.19189242731467" lon="9.950514239896048"><ele>286.0</ele><time>2026-04-12T14:06:09Z</time></trkpt><trkpt lat="44.19183812921393" lon="9.950378276491724"><ele>286.0</ele><time>2026-04-12T14:06:13Z</time></trkpt><trkpt lat="44.1918048796005" lon="9.950262828959048"><ele>286.0</ele><time>2026-04-12T14:06:16Z</time></trkpt><trkpt lat="44.19172601132344" lon="9.950208874268796"><ele>286.0</ele><time>2026-04-12T14:06:18Z</time></trkpt><trkpt lat="44.19166396612941" lon="9.950241627488504"><ele>286.0</ele><time>2026-04-12T14:06:20Z</time></trkpt><trkpt lat="44.19160342131375" lon="9.950213075119501"><ele>286.0</ele><time>2026-04-12T14:06:22Z</time></trkpt><trkpt lat="44.19153414026945" lon="9.950133605749723"><ele>286.0</ele><time>2026-04-12T14:06:24Z</time></trkpt><trkpt lat="44.19152466874581" lon="9.949993498831263"><ele>286.0</ele><time>2026-04-12T14:06:27Z</time></trkpt><trkpt lat="44.19150387204488" lon="9.949862259757444"><ele>294.16666666666663</ele><time>2026-04-12T14:06:30Z</time></trkpt><trkpt lat="44.191433543889175" lon="9.94973929233821"><ele>302.3333333333333</ele><time>2026-04-12T14:06:32Z</time></trkpt><trkpt lat="44.19136982915986" lon="9.94968929169949"><ele>310.5</ele><time>2026-04-12T14:06:33.999Z</time></trkpt><trkpt lat="44.1913002133276" lon="9.949730110716182"><ele>318.6666666666667</ele><time>2026-04-12T14:06:36.999Z</time></trkpt><trkpt lat="44.191227259226956" lon="9.949808328867798"><ele>326.83333333333337</ele><time>2026-04-12T14:06:38.999Z</time></trkpt><trkpt lat="44.19118398272127" lon="9.949889120798135"><ele>335.0</ele><time>2026-04-12T14:06:40.999Z</time></trkpt><trkpt lat="44.191138333378866" lon="9.949974021089684"><ele>335.0</ele><time>2026-04-12T14:06:42.999Z</time></trkpt><trkpt lat="44.191071155488395" lon="9.949953393852086"><ele>335.0</ele><time>2026-04-12T14:06:47Z</time></trkpt><trkpt lat="44.191025971192424" lon="9.949846303136292"><ele>335.0</ele><time>2026-04-12T14:06:58Z</time></trkpt><trkpt lat="44.19098905308223" lon="9.94975976790024"><ele>335.0</ele><time>2026-04-12T14:07:00Z</time></trkpt><trkpt lat="44.19093185132226" lon="9.949650549171505"><ele>335.0</ele><time>2026-04-12T14:07:02Z</time></trkpt><trkpt lat="44.190886056982755" lon="9.949543383968164"><ele>335.0</ele><time>2026-04-12T14:07:07Z</time></trkpt><trkpt lat="44.19082297875958" lon="9.94945640094342"><ele>335.0</ele><time>2026-04-12T14:07:09Z</time></trkpt><trkpt lat="44.19080367811205" lon="9.94954202497878"><ele>335.0</ele><time>2026-04-12T14:07:18Z</time></trkpt><trkpt lat="44.19079278246581" lon="9.9496363521481"><ele>335.0</ele><time>2026-04-12T14:07:20Z</time></trkpt><trkpt lat="44.19073984275598" lon="9.949768935744727"><ele>335.0</ele><time>2026-04-12T14:07:27Z</time></trkpt><trkpt lat="44.19068823286496" lon="9.949902809847403"><ele>335.0</ele><time>2026-04-12T14:07:29Z</time></trkpt><trkpt lat="44.19061633963055" lon="9.949940877793324"><ele>335.0</ele><time>2026-04-12T14:07:33Z</time></trkpt><trkpt lat="44.190609829284675" lon="9.949831093645969"><ele>343.0</ele><time>2026-04-12T14:07:36Z</time></trkpt><trkpt lat="44.190558846287104" lon="9.949679675786664"><ele>351.0</ele><time>2026-04-12T14:07:39Z</time></trkpt><trkpt lat="44.19053148852842" lon="9.949567225775917"><ele>359.0</ele><time>2026-04-12T14:07:40Z</time></trkpt><trkpt lat="44.19051236915301" lon="9.94945771136351"><ele>367.0</ele><time>2026-04-12T14:07:42Z</time></trkpt><trkpt lat="44.19047210627596" lon="9.949339802455748"><ele>375.0</ele><time>2026-04-12T14:07:45Z</time></trkpt><trkpt lat="44.190435609551216" lon="9.94922466506929"><ele>374.0</ele><time>2026-04-12T14:07:47Z</time></trkpt><trkpt lat="44.190398325653625" lon="9.94911341604041"><ele>373.0</ele><time>2026-04-12T14:07:49Z</time></trkpt><trkpt lat="44.190362082201034" lon="9.949010580691922"><ele>372.0</ele><time>2026-04-12T14:07:51Z</time></trkpt><trkpt lat="44.190317925525626" lon="9.948900038682188"><ele>371.0</ele><time>2026-04-12T14:07:53Z</time></trkpt><trkpt lat="44.19028672189405" lon="9.948802286300811"><ele>370.0</ele><time>2026-04-12T14:07:54Z</time></trkpt><trkpt lat="44.19023497353122" lon="9.948682235877298"><ele>369.0</ele><time>2026-04-12T14:07:56Z</time></trkpt><trkpt lat="44.19019728223004" lon="9.948605133671625"><ele>369.0</ele><time>2026-04-12T14:07:58Z</time></trkpt><trkpt lat="44.19016532543221" lon="9.948524546636373"><ele>369.0</ele><time>2026-04-12T14:08:00Z</time></trkpt><trkpt lat="44.19011621360019" lon="9.948441419182078"><ele>369.0</ele><time>2026-04-12T14:08:02Z</time></trkpt><trkpt lat="44.1900879204549" lon="9.948362870199452"><ele>369.0</ele><time>2026-04-12T14:08:04Z</time></trkpt><trkpt lat="44.190029212987106" lon="9.948264899829745"><ele>369.0</ele><time>2026-04-12T14:08:06Z</time></trkpt><trkpt lat="44.189995172844824" lon="9.948156243528853"><ele>369.0</ele><time>2026-04-12T14:08:09Z</time></trkpt><trkpt lat="44.189975038209504" lon="9.94803342094813"><ele>366.1666666666667</ele><time>2026-04-12T14:08:11Z</time></trkpt><trkpt lat="44.18993830492836" lon="9.94795210079391"><ele>363.3333333333333</ele><time>2026-04-12T14:08:13Z</time></trkpt><trkpt lat="44.189889979929895" lon="9.94788279875387"><ele>360.5</ele><time>2026-04-12T14:08:16Z</time></trkpt><trkpt lat="44.18981709878183" lon="9.947820646986955"><ele>357.66666666666663</ele><time>2026-04-12T14:08:19Z</time></trkpt><trkpt lat="44.189728197049696" lon="9.947826843549247"><ele>354.8333333333333</ele><time>2026-04-12T14:08:21Z</time></trkpt><trkpt lat="44.18964528982515" lon="9.947861502066074"><ele>352.0</ele><time>2026-04-12T14:08:23Z</time></trkpt><trkpt lat="44.189570659894514" lon="9.947899203839832"><ele>351.5</ele><time>2026-04-12T14:08:25Z</time></trkpt><trkpt lat="44.18950958473282" lon="9.947921784000576"><ele>351.0</ele><time>2026-04-12T14:08:27Z</time></trkpt><trkpt lat="44.18943741436329" lon="9.94798060527941"><ele>350.5</ele><time>2026-04-12T14:08:30Z</time></trkpt><trkpt lat="44.18936017362035" lon="9.947997807026766"><ele>350.0</ele><time>2026-04-12T14:08:33Z</time></trkpt><trkpt lat="44.18929423337259" lon="9.948005124494731"><ele>349.5</ele><time>2026-04-12T14:08:37.999Z</time></trkpt><trkpt lat="44.189348458993074" lon="9.947959501248333"><ele>349.0</ele><time>2026-04-12T14:11:03Z</time></trkpt><trkpt lat="44.18944464301338" lon="9.94787596540681"><ele>349.0</ele><time>2026-04-12T14:12:10Z</time></trkpt><trkpt lat="44.18954264390404" lon="9.947810588855951"><ele>349.0</ele><time>2026-04-12T14:12:12Z</time></trkpt><trkpt lat="44.18967264104959" lon="9.947762224865427"><ele>349.0</ele><time>2026-04-12T14:12:14Z</time></trkpt><trkpt lat="44.18978124691518" lon="9.947733518959087"><ele>349.0</ele><time>2026-04-12T14:12:16Z</time></trkpt><trkpt lat="44.18987884267025" lon="9.947791987739434"><ele>349.5</ele><time>2026-04-12T14:12:18Z</time></trkpt><trkpt lat="44.18994687829053" lon="9.947914063866655"><ele>350.0</ele><time>2026-04-12T14:12:20Z</time></trkpt><trkpt lat="44.18996536468291" lon="9.94801866315309"><ele>350.5</ele><time>2026-04-12T14:12:21Z</time></trkpt><trkpt lat="44.18999449340971" lon="9.948107441177608"><ele>351.0</ele><time>2026-04-12T14:12:22Z</time></trkpt><trkpt lat="44.190032047238226" lon="9.948203414708003"><ele>351.5</ele><time>2026-04-12T14:12:24Z</time></trkpt><trkpt lat="44.19009564527014" lon="9.948328115742344"><ele>352.0</ele><time>2026-04-12T14:12:26Z</time></trkpt><trkpt lat="44.190131904604264" lon="9.94841416876161"><ele>354.8333333333333</ele><time>2026-04-12T14:12:27Z</time></trkpt><trkpt lat="44.190171265194444" lon="9.94851404059382"><ele>357.66666666666663</ele><time>2026-04-12T14:12:28Z</time></trkpt><trkpt lat="44.190220382564675" lon="9.948596468698875"><ele>360.5</ele><time>2026-04-12T14:12:29Z</time></trkpt><trkpt lat="44.19025989287437" lon="9.948679969512563"><ele>363.3333333333333</ele><time>2026-04-12T14:12:30Z</time></trkpt><trkpt lat="44.19029256087598" lon="9.948773696115047"><ele>366.1666666666667</ele><time>2026-04-12T14:12:31Z</time></trkpt><trkpt lat="44.19033098020285" lon="9.948873221543291"><ele>369.0</ele><time>2026-04-12T14:12:33Z</time></trkpt><trkpt lat="44.19037633430546" lon="9.948996845668939"><ele>369.0</ele><time>2026-04-12T14:12:35Z</time></trkpt><trkpt lat="44.190427495276076" lon="9.949132430168525"><ele>369.0</ele><time>2026-04-12T14:12:36.999Z</time></trkpt><trkpt lat="44.19046853653382" lon="9.949263473506045"><ele>369.0</ele><time>2026-04-12T14:12:38.999Z</time></trkpt><trkpt lat="44.19047435939876" lon="9.949389387939819"><ele>369.0</ele><time>2026-04-12T14:12:40.999Z</time></trkpt><trkpt lat="44.19045010084777" lon="9.949535965627929"><ele>369.0</ele><time>2026-04-12T14:12:42.999Z</time></trkpt><trkpt lat="44.190420227805895" lon="9.94967229755614"><ele>370.0</ele><time>2026-04-12T14:12:47.999Z</time></trkpt><trkpt lat="44.19040731251029" lon="9.949790159294118"><ele>371.0</ele><time>2026-04-12T14:12:49.999Z</time></trkpt><trkpt lat="44.19031135376683" lon="9.94979841723136"><ele>372.0</ele><time>2026-04-12T14:12:52.999Z</time></trkpt><trkpt lat="44.190260413237745" lon="9.949706542301735"><ele>373.0</ele><time>2026-04-12T14:12:54.999Z</time></trkpt><trkpt lat="44.19020902335964" lon="9.949760232166069"><ele>374.0</ele><time>2026-04-12T14:12:56.999Z</time></trkpt><trkpt lat="44.19019319669744" lon="9.94987006442031"><ele>375.0</ele><time>2026-04-12T14:12:58.999Z</time></trkpt><trkpt lat="44.19017916720855" lon="9.950002026968862"><ele>374.5</ele><time>2026-04-12T14:13:00.999Z</time></trkpt><trkpt lat="44.190158102598254" lon="9.95011970405261"><ele>374.0</ele><time>2026-04-12T14:13:03Z</time></trkpt><trkpt lat="44.19015686001738" lon="9.950213925239463"><ele>373.5</ele><time>2026-04-12T14:13:04Z</time></trkpt><trkpt lat="44.19013067540983" lon="9.950305253682089"><ele>373.0</ele><time>2026-04-12T14:13:05Z</time></trkpt><trkpt lat="44.1900742563732" lon="9.950409503195093"><ele>372.5</ele><time>2026-04-12T14:13:07Z</time></trkpt><trkpt lat="44.190007542999716" lon="9.950474285036425"><ele>372.0</ele><time>2026-04-12T14:13:09Z</time></trkpt><trkpt lat="44.18992295305817" lon="9.950555496760693"><ele>372.0</ele><time>2026-04-12T14:13:11Z</time></trkpt><trkpt lat="44.1898662275062" lon="9.950634843716575"><ele>372.0</ele><time>2026-04-12T14:13:13Z</time></trkpt><trkpt lat="44.18979403205361" lon="9.950683517667334"><ele>372.0</ele><time>2026-04-12T14:13:16Z</time></trkpt><trkpt lat="44.18974346079488" lon="9.950749144848164"><ele>372.0</ele><time>2026-04-12T14:13:18Z</time></trkpt><trkpt lat="44.189716501991995" lon="9.950838668811006"><ele>372.0</ele><time>2026-04-12T14:13:20Z</time></trkpt><trkpt lat="44.189659006537774" lon="9.95089657279611"><ele>372.0</ele><time>2026-04-12T14:13:22Z</time></trkpt><trkpt lat="44.18958303512741" lon="9.950967163744668"><ele>375.6666666666667</ele><time>2026-04-12T14:13:24Z</time></trkpt><trkpt lat="44.18951908466453" lon="9.95105125880392"><ele>379.33333333333337</ele><time>2026-04-12T14:13:26Z</time></trkpt><trkpt lat="44.18943165617264" lon="9.951154725863654"><ele>383.0</ele><time>2026-04-12T14:13:28Z</time></trkpt><trkpt lat="44.1893799020817" lon="9.951222886884796"><ele>386.6666666666667</ele><time>2026-04-12T14:13:31Z</time></trkpt><trkpt lat="44.1893496812722" lon="9.95112906697679"><ele>390.33333333333337</ele><time>2026-04-12T14:13:37Z</time></trkpt><trkpt lat="44.18936485328858" lon="9.95102407024233"><ele>394.0</ele><time>2026-04-12T14:13:39Z</time></trkpt><trkpt lat="44.189347508327344" lon="9.950875177444058"><ele>394.0</ele><time>2026-04-12T14:13:41Z</time></trkpt><trkpt lat="44.189342753886336" lon="9.950781399751023"><ele>394.0</ele><time>2026-04-12T14:13:44Z</time></trkpt><trkpt lat="44.18932041219022" lon="9.95068404946961"><ele>394.0</ele><time>2026-04-12T14:13:47Z</time></trkpt><trkpt lat="44.18923034694872" lon="9.950710296187502"><ele>394.0</ele><time>2026-04-12T14:13:50Z</time></trkpt><trkpt lat="44.189176666682435" lon="9.950769923502932"><ele>394.0</ele><time>2026-04-12T14:13:51Z</time></trkpt><trkpt lat="44.18912945468849" lon="9.950833697674987"><ele>394.0</ele><time>2026-04-12T14:13:52Z</time></trkpt><trkpt lat="44.18908750529856" lon="9.950900084445264"><ele>394.0</ele><time>2026-04-12T14:13:53Z</time></trkpt><trkpt lat="44.189044520471235" lon="9.950967826675514"><ele>400.1666666666667</ele><time>2026-04-12T14:13:54Z</time></trkpt><trkpt lat="44.18900290073606" lon="9.951053087068747"><ele>406.33333333333337</ele><time>2026-04-12T14:13:55Z</time></trkpt><trkpt lat="44.18895148706174" lon="9.951166134648872"><ele>412.5</ele><time>2026-04-12T14:13:57Z</time></trkpt><trkpt lat="44.188934525028046" lon="9.951251804925517"><ele>418.66666666666663</ele><time>2026-04-12T14:14:00Z</time></trkpt><trkpt lat="44.188875903516255" lon="9.951396418559158"><ele>424.8333333333333</ele><time>2026-04-12T14:14:02Z</time></trkpt><trkpt lat="44.18882157452148" lon="9.951343506949456"><ele>431.0</ele><time>2026-04-12T14:14:13Z</time></trkpt><trkpt lat="44.188798828577745" lon="9.951241022942039"><ele>430.99999999999994</ele><time>2026-04-12T14:14:15Z</time></trkpt><trkpt lat="44.188762754888934" lon="9.951161581376946"><ele>431.0</ele><time>2026-04-12T14:14:17Z</time></trkpt><trkpt lat="44.1886968041551" lon="9.951078549980487"><ele>431.0</ele><time>2026-04-12T14:14:19Z</time></trkpt><trkpt lat="44.188603849865935" lon="9.951023086116916"><ele>431.0</ele><time>2026-04-12T14:14:21Z</time></trkpt><trkpt lat="44.18854163499415" lon="9.950965312385268"><ele>430.99999999999994</ele><time>2026-04-12T14:14:23Z</time></trkpt><trkpt lat="44.18847442309551" lon="9.951066557619642"><ele>431.0</ele><time>2026-04-12T14:14:26Z</time></trkpt><trkpt lat="44.18845362884883" lon="9.95116949887423"><ele>430.99999999999994</ele><time>2026-04-12T14:14:27Z</time></trkpt><trkpt lat="44.18843237023348" lon="9.951253350159895"><ele>431.0</ele><time>2026-04-12T14:14:28Z</time></trkpt><trkpt lat="44.18836174687657" lon="9.951349071545874"><ele>431.0</ele><time>2026-04-12T14:14:30Z</time></trkpt><trkpt lat="44.18833138419832" lon="9.95144856286692"><ele>431.0</ele><time>2026-04-12T14:14:31Z</time></trkpt><trkpt lat="44.18830011406993" lon="9.951560260602616"><ele>430.99999999999994</ele><time>2026-04-12T14:14:33Z</time></trkpt><trkpt lat="44.188231746593964" lon="9.951623660602085"><ele>431.0</ele><time>2026-04-12T14:14:35Z</time></trkpt><trkpt lat="44.18821131765661" lon="9.951790208808006"><ele>434.57142857142856</ele><time>2026-04-12T14:14:36.999Z</time></trkpt><trkpt lat="44.18814688131559" lon="9.9518381890513"><ele>438.1428571428571</ele><time>2026-04-12T14:14:38.999Z</time></trkpt><trkpt lat="44.188070310037155" lon="9.951905024989673"><ele>441.71428571428567</ele><time>2026-04-12T14:14:40.999Z</time></trkpt><trkpt lat="44.1880346849007" lon="9.951982877478294"><ele>445.2857142857143</ele><time>2026-04-12T14:14:41.999Z</time></trkpt><trkpt lat="44.18797878359294" lon="9.95206437713504"><ele>448.8571428571428</ele><time>2026-04-12T14:14:42.999Z</time></trkpt><trkpt lat="44.18792271036192" lon="9.952130301839789"><ele>452.4285714285714</ele><time>2026-04-12T14:14:44.999Z</time></trkpt><trkpt lat="44.187865452866156" lon="9.952093730216461"><ele>456.0</ele><time>2026-04-12T14:14:47.999Z</time></trkpt><trkpt lat="44.1878556659711" lon="9.952217810328852"><ele>456.0</ele><time>2026-04-12T14:15:03.999Z</time></trkpt><trkpt lat="44.18783838545917" lon="9.952359424061452"><ele>456.0</ele><time>2026-04-12T14:15:06.999Z</time></trkpt><trkpt lat="44.18776642226902" lon="9.952415826797822"><ele>456.0</ele><time>2026-04-12T14:15:09Z</time></trkpt><trkpt lat="44.18773278122128" lon="9.952332937633342"><ele>456.0</ele><time>2026-04-12T14:15:11Z</time></trkpt><trkpt lat="44.18772016043051" lon="9.95222139629085"><ele>456.0</ele><time>2026-04-12T14:15:13Z</time></trkpt><trkpt lat="44.18768615681771" lon="9.952139072610464"><ele>456.0</ele><time>2026-04-12T14:15:14Z</time></trkpt><trkpt lat="44.1876354262702" lon="9.95203323524219"><ele>456.0</ele><time>2026-04-12T14:15:16Z</time></trkpt><trkpt lat="44.187574400519004" lon="9.952009592324176"><ele>456.0</ele><time>2026-04-12T14:15:19Z</time></trkpt><trkpt lat="44.187495985181435" lon="9.95203477685376"><ele>456.0</ele><time>2026-04-12T14:15:38Z</time></trkpt><trkpt lat="44.187396041025316" lon="9.952060424947208"><ele>456.0</ele><time>2026-04-12T14:15:41Z</time></trkpt><trkpt lat="44.18731846653898" lon="9.952051311385903"><ele>456.0</ele><time>2026-04-12T14:15:43Z</time></trkpt><trkpt lat="44.18723904791618" lon="9.952075203206244"><ele>456.0</ele><time>2026-04-12T14:15:46Z</time></trkpt><trkpt lat="44.18716259778518" lon="9.952099802579092"><ele>460.6</ele><time>2026-04-12T14:15:49Z</time></trkpt><trkpt lat="44.1870714232606" lon="9.95207954736377"><ele>465.20000000000005</ele><time>2026-04-12T14:15:51Z</time></trkpt><trkpt lat="44.18696829044075" lon="9.95199609782206"><ele>469.79999999999995</ele><time>2026-04-12T14:15:53Z</time></trkpt><trkpt lat="44.186886368719534" lon="9.952072407950629"><ele>474.4</ele><time>2026-04-12T14:15:55Z</time></trkpt><trkpt lat="44.18682537546811" lon="9.95221434362716"><ele>479.0</ele><time>2026-04-12T14:15:57Z</time></trkpt><trkpt lat="44.186812177724384" lon="9.952303281331716"><ele>479.0</ele><time>2026-04-12T14:16:00Z</time></trkpt><trkpt lat="44.186816986407266" lon="9.952396031418225"><ele>479.0</ele><time>2026-04-12T14:16:03Z</time></trkpt><trkpt lat="44.186867480876856" lon="9.952531357748457"><ele>479.0</ele><time>2026-04-12T14:16:05Z</time></trkpt><trkpt lat="44.18688005352603" lon="9.95261922394056"><ele>479.0</ele><time>2026-04-12T14:16:06Z</time></trkpt><trkpt lat="44.18690756588991" lon="9.952708476760177"><ele>479.0</ele><time>2026-04-12T14:16:07Z</time></trkpt><trkpt lat="44.186915148185406" lon="9.952799473202504"><ele>479.0</ele><time>2026-04-12T14:16:08Z</time></trkpt><trkpt lat="44.186904874008796" lon="9.952892481651615"><ele>479.0</ele><time>2026-04-12T14:16:09Z</time></trkpt><trkpt lat="44.18687831112358" lon="9.952975414003607"><ele>477.2</ele><time>2026-04-12T14:16:10Z</time></trkpt><trkpt lat="44.186784136599016" lon="9.953098538487348"><ele>475.4</ele><time>2026-04-12T14:16:12Z</time></trkpt><trkpt lat="44.186733039279964" lon="9.953153351062555"><ele>473.6</ele><time>2026-04-12T14:16:13Z</time></trkpt><trkpt lat="44.1866496553028" lon="9.953239864633305"><ele>471.8</ele><time>2026-04-12T14:16:15Z</time></trkpt><trkpt lat="44.186561339583534" lon="9.95332372465047"><ele>470.0</ele><time>2026-04-12T14:16:17Z</time></trkpt><trkpt lat="44.186502378135884" lon="9.953387262647318"><ele>469.99999999999994</ele><time>2026-04-12T14:16:19Z</time></trkpt><trkpt lat="44.186430826267" lon="9.95352153546796"><ele>470.0</ele><time>2026-04-12T14:16:23Z</time></trkpt><trkpt lat="44.186372432622065" lon="9.953654383421503"><ele>470.0</ele><time>2026-04-12T14:16:25Z</time></trkpt><trkpt lat="44.18634365174623" lon="9.953739181240255"><ele>470.0</ele><time>2026-04-12T14:16:26Z</time></trkpt><trkpt lat="44.18629642369681" lon="9.953804191727686"><ele>469.99999999999994</ele><time>2026-04-12T14:16:27Z</time></trkpt><trkpt lat="44.186240848827616" lon="9.953873934219654"><ele>470.0</ele><time>2026-04-12T14:16:28Z</time></trkpt><trkpt lat="44.18619446815403" lon="9.953939145907919"><ele>470.0</ele><time>2026-04-12T14:16:29Z</time></trkpt><trkpt lat="44.18610001587927" lon="9.95404741694369"><ele>470.0</ele><time>2026-04-12T14:16:31Z</time></trkpt><trkpt lat="44.18599063142455" lon="9.954109839715368"><ele>470.0</ele><time>2026-04-12T14:16:33Z</time></trkpt><trkpt lat="44.185868199421485" lon="9.954171038443864"><ele>470.0</ele><time>2026-04-12T14:16:35Z</time></trkpt><trkpt lat="44.185803248743376" lon="9.95420734903227"><ele>470.0</ele><time>2026-04-12T14:16:36Z</time></trkpt><trkpt lat="44.18573383994146" lon="9.954252206154523"><ele>470.66666666666663</ele><time>2026-04-12T14:16:37Z</time></trkpt><trkpt lat="44.18566193021893" lon="9.954302671231973"><ele>471.3333333333333</ele><time>2026-04-12T14:16:38Z</time></trkpt><trkpt lat="44.185584030803604" lon="9.954353797221884"><ele>472.0</ele><time>2026-04-12T14:16:38.999Z</time></trkpt><trkpt lat="44.18550821097278" lon="9.954416303155542"><ele>472.66666666666663</ele><time>2026-04-12T14:16:39.999Z</time></trkpt><trkpt lat="44.185434477197646" lon="9.954494411524879"><ele>473.3333333333333</ele><time>2026-04-12T14:16:40.999Z</time></trkpt><trkpt lat="44.185361740170045" lon="9.954588154455038"><ele>474.0</ele><time>2026-04-12T14:16:41.999Z</time></trkpt><trkpt lat="44.185297980255825" lon="9.954700524196047"><ele>474.0</ele><time>2026-04-12T14:16:42.999Z</time></trkpt><trkpt lat="44.18522707466673" lon="9.954794060768704"><ele>474.0</ele><time>2026-04-12T14:16:43.999Z</time></trkpt><trkpt lat="44.185163118734806" lon="9.954886603632545"><ele>474.0</ele><time>2026-04-12T14:16:44.999Z</time></trkpt><trkpt lat="44.18510169407596" lon="9.95496698211126"><ele>474.0</ele><time>2026-04-12T14:16:45.999Z</time></trkpt><trkpt lat="44.18506092542184" lon="9.955047384032843"><ele>474.0</ele><time>2026-04-12T14:16:46.999Z</time></trkpt><trkpt lat="44.18498197688738" lon="9.955164729484364"><ele>479.0</ele><time>2026-04-12T14:16:48.999Z</time></trkpt><trkpt lat="44.184870086697394" lon="9.955231229477887"><ele>484.0</ele><time>2026-04-12T14:16:50.999Z</time></trkpt><trkpt lat="44.184784269576426" lon="9.955328094173042"><ele>489.0</ele><time>2026-04-12T14:16:52.999Z</time></trkpt><trkpt lat="44.184757977102095" lon="9.955486262523214"><ele>494.0</ele><time>2026-04-12T14:16:54.999Z</time></trkpt><trkpt lat="44.18471441946818" lon="9.955615234569407"><ele>493.99999999999994</ele><time>2026-04-12T14:16:56.999Z</time></trkpt><trkpt lat="44.18461859143913" lon="9.955725982607268"><ele>494.0</ele><time>2026-04-12T14:16:58.999Z</time></trkpt><trkpt lat="44.184561999872614" lon="9.955768236411041"><ele>494.0</ele><time>2026-04-12T14:16:59.999Z</time></trkpt><trkpt lat="44.184475417613484" lon="9.955809169157115"><ele>494.0</ele><time>2026-04-12T14:17:01.999Z</time></trkpt><trkpt lat="44.18441571684807" lon="9.95586430575595"><ele>493.99999999999994</ele><time>2026-04-12T14:17:03.999Z</time></trkpt><trkpt lat="44.18440714974607" lon="9.955991896782207"><ele>494.0</ele><time>2026-04-12T14:17:06.999Z</time></trkpt><trkpt lat="44.18444799821359" lon="9.956143074531031"><ele>493.49999999999994</ele><time>2026-04-12T14:17:08.999Z</time></trkpt><trkpt lat="44.18444583877566" lon="9.956242222154414"><ele>493.0</ele><time>2026-04-12T14:17:09.999Z</time></trkpt><trkpt lat="44.18444035759228" lon="9.956339460541104"><ele>492.5</ele><time>2026-04-12T14:17:10.999Z</time></trkpt><trkpt lat="44.18447758378375" lon="9.956428746692488"><ele>492.0</ele><time>2026-04-12T14:17:13Z</time></trkpt><trkpt lat="44.18445067812681" lon="9.956578557573735"><ele>491.49999999999994</ele><time>2026-04-12T14:17:15Z</time></trkpt><trkpt lat="44.18441379302971" lon="9.956728236665326"><ele>491.0</ele><time>2026-04-12T14:17:17Z</time></trkpt><trkpt lat="44.184383024970096" lon="9.956876994152202"><ele>490.99999999999994</ele><time>2026-04-12T14:17:19Z</time></trkpt><trkpt lat="44.18436398638204" lon="9.956980237366086"><ele>491.0</ele><time>2026-04-12T14:17:21Z</time></trkpt><trkpt lat="44.184433253725295" lon="9.957068997135295"><ele>491.0</ele><time>2026-04-12T14:17:25Z</time></trkpt><trkpt lat="44.18451825410517" lon="9.957098443099868"><ele>491.0</ele><time>2026-04-12T14:17:27Z</time></trkpt><trkpt lat="44.18458429548222" lon="9.957097549910342"><ele>490.99999999999994</ele><time>2026-04-12T14:17:28Z</time></trkpt><trkpt lat="44.18465483542226" lon="9.957080799802355"><ele>491.0</ele><time>2026-04-12T14:17:29Z</time></trkpt><trkpt lat="44.18472360294056" lon="9.957061987631938"><ele>490.99999999999994</ele><time>2026-04-12T14:17:30Z</time></trkpt><trkpt lat="44.1847894028983" lon="9.957041901052719"><ele>491.0</ele><time>2026-04-12T14:17:31Z</time></trkpt><trkpt lat="44.184852949631306" lon="9.957034729492172"><ele>491.0</ele><time>2026-04-12T14:17:32Z</time></trkpt><trkpt lat="44.18496633899761" lon="9.957034027299066"><ele>491.0</ele><time>2026-04-12T14:17:34Z</time></trkpt><trkpt lat="44.18503129854083" lon="9.957030559677511"><ele>490.99999999999994</ele><time>2026-04-12T14:17:35Z</time></trkpt><trkpt lat="44.18511646523869" lon="9.957010254310406"><ele>491.0</ele><time>2026-04-12T14:17:36Z</time></trkpt><trkpt lat="44.185183584967014" lon="9.95698426580107"><ele>486.4</ele><time>2026-04-12T14:17:37Z</time></trkpt><trkpt lat="44.185244394451544" lon="9.95695580423988"><ele>481.8</ele><time>2026-04-12T14:17:38Z</time></trkpt><trkpt lat="44.185348563949034" lon="9.95699735394935"><ele>477.19999999999993</ele><time>2026-04-12T14:17:40Z</time></trkpt><trkpt lat="44.1854420416833" lon="9.957100400409752"><ele>472.59999999999997</ele><time>2026-04-12T14:17:42Z</time></trkpt><trkpt lat="44.18549864146589" lon="9.957221004261875"><ele>468.0</ele><time>2026-04-12T14:17:44Z</time></trkpt><trkpt lat="44.18554793840012" lon="9.957287908449596"><ele>468.0</ele><time>2026-04-12T14:17:45Z</time></trkpt><trkpt lat="44.18557569056609" lon="9.95737603124769"><ele>467.99999999999994</ele><time>2026-04-12T14:17:46Z</time></trkpt><trkpt lat="44.1855879268419" lon="9.957470283689286"><ele>467.99999999999994</ele><time>2026-04-12T14:17:47Z</time></trkpt><trkpt lat="44.18554865820525" lon="9.957600093660849"><ele>468.0</ele><time>2026-04-12T14:17:49Z</time></trkpt><trkpt lat="44.18547257513403" lon="9.957776461182727"><ele>468.0</ele><time>2026-04-12T14:17:51Z</time></trkpt><trkpt lat="44.185419128583675" lon="9.957875106708213"><ele>468.2</ele><time>2026-04-12T14:17:52Z</time></trkpt><trkpt lat="44.18535765786074" lon="9.9579822151269"><ele>468.4</ele><time>2026-04-12T14:17:53Z</time></trkpt><trkpt lat="44.18530027405206" lon="9.95809622848607"><ele>468.59999999999997</ele><time>2026-04-12T14:17:54Z</time></trkpt><trkpt lat="44.18525845226559" lon="9.958178575605325"><ele>468.79999999999995</ele><time>2026-04-12T14:17:55Z</time></trkpt><trkpt lat="44.185208801563626" lon="9.95831189917805"><ele>469.0</ele><time>2026-04-12T14:17:57Z</time></trkpt><trkpt lat="44.18519850317991" lon="9.958451010963795"><ele>466.50000000000006</ele><time>2026-04-12T14:17:59Z</time></trkpt><trkpt lat="44.185202777476505" lon="9.958550218351586"><ele>464.0</ele><time>2026-04-12T14:18:00Z</time></trkpt><trkpt lat="44.18521099500731" lon="9.958650647135533"><ele>461.5</ele><time>2026-04-12T14:18:01Z</time></trkpt><trkpt lat="44.185220504257785" lon="9.95877762755309"><ele>459.0</ele><time>2026-04-12T14:18:03Z</time></trkpt><trkpt lat="44.185169799182795" lon="9.9588867370212"><ele>456.50000000000006</ele><time>2026-04-12T14:18:05Z</time></trkpt><trkpt lat="44.18512124055179" lon="9.959023485990723"><ele>454.0</ele><time>2026-04-12T14:18:07Z</time></trkpt><trkpt lat="44.1850556152691" lon="9.95912845132076"><ele>456.6666666666667</ele><time>2026-04-12T14:18:09Z</time></trkpt><trkpt lat="44.18498351848729" lon="9.95925238080527"><ele>459.33333333333337</ele><time>2026-04-12T14:18:11Z</time></trkpt><trkpt lat="44.18492789203012" lon="9.95930844712242"><ele>462.0</ele><time>2026-04-12T14:18:12Z</time></trkpt><trkpt lat="44.184855211287704" lon="9.95937727866217"><ele>464.66666666666663</ele><time>2026-04-12T14:18:13Z</time></trkpt><trkpt lat="44.18479380089746" lon="9.959460243284651"><ele>467.3333333333333</ele><time>2026-04-12T14:18:14Z</time></trkpt><trkpt lat="44.184745529034124" lon="9.959566098745201"><ele>470.0</ele><time>2026-04-12T14:18:15Z</time></trkpt><trkpt lat="44.18471119977556" lon="9.959683105566594"><ele>469.99999999999994</ele><time>2026-04-12T14:18:16Z</time></trkpt><trkpt lat="44.18467903124659" lon="9.959791184959174"><ele>470.0</ele><time>2026-04-12T14:18:17Z</time></trkpt><trkpt lat="44.18464499545886" lon="9.95989120337244"><ele>470.0</ele><time>2026-04-12T14:18:18Z</time></trkpt><trkpt lat="44.18459015263486" lon="9.95998155436566"><ele>470.0</ele><time>2026-04-12T14:18:19Z</time></trkpt><trkpt lat="44.18452365803044" lon="9.960064726787426"><ele>469.99999999999994</ele><time>2026-04-12T14:18:20Z</time></trkpt><trkpt lat="44.18446334602168" lon="9.960149987387581"><ele>470.0</ele><time>2026-04-12T14:18:21Z</time></trkpt><trkpt lat="44.18440311563946" lon="9.960224101430734"><ele>466.0</ele><time>2026-04-12T14:18:22Z</time></trkpt><trkpt lat="44.18432574438661" lon="9.960304548657135"><ele>462.0</ele><time>2026-04-12T14:18:24Z</time></trkpt><trkpt lat="44.18422841134105" lon="9.96040268293383"><ele>458.0</ele><time>2026-04-12T14:18:26Z</time></trkpt><trkpt lat="44.184149210844396" lon="9.96053778644021"><ele>454.0</ele><time>2026-04-12T14:18:28Z</time></trkpt><trkpt lat="44.184119177754994" lon="9.960617067559474"><ele>450.0</ele><time>2026-04-12T14:18:29Z</time></trkpt><trkpt lat="44.184080128310754" lon="9.960766927043354"><ele>453.2</ele><time>2026-04-12T14:18:31Z</time></trkpt><trkpt lat="44.184080006189234" lon="9.96091258720172"><ele>456.4</ele><time>2026-04-12T14:18:33Z</time></trkpt><trkpt lat="44.184004683018" lon="9.961001255175978"><ele>459.6</ele><time>2026-04-12T14:18:35Z</time></trkpt><trkpt lat="44.18388415575143" lon="9.961041100958628"><ele>462.8</ele><time>2026-04-12T14:18:37Z</time></trkpt><trkpt lat="44.18381540514344" lon="9.961048771370848"><ele>466.0</ele><time>2026-04-12T14:18:38Z</time></trkpt><trkpt lat="44.18374401312642" lon="9.961050989549385"><ele>466.00000000000006</ele><time>2026-04-12T14:18:39Z</time></trkpt><trkpt lat="44.183668248100474" lon="9.961040722974154"><ele>466.0</ele><time>2026-04-12T14:18:40Z</time></trkpt><trkpt lat="44.183588742619364" lon="9.961058720801217"><ele>466.0</ele><time>2026-04-12T14:18:41Z</time></trkpt><trkpt lat="44.18351669269276" lon="9.961085351363197"><ele>466.0</ele><time>2026-04-12T14:18:41.999Z</time></trkpt><trkpt lat="44.18341363260595" lon="9.961129791213164"><ele>466.00000000000006</ele><time>2026-04-12T14:18:43.999Z</time></trkpt><trkpt lat="44.183341920276504" lon="9.961178923419668"><ele>466.0</ele><time>2026-04-12T14:18:46.999Z</time></trkpt><trkpt lat="44.183316203757215" lon="9.961267427371835"><ele>466.0</ele><time>2026-04-12T14:18:48.999Z</time></trkpt><trkpt lat="44.18338086270298" lon="9.961359031008051"><ele>466.0</ele><time>2026-04-12T14:18:50.999Z</time></trkpt><trkpt lat="44.18343830903331" lon="9.961458783291308"><ele>466.0</ele><time>2026-04-12T14:18:52.999Z</time></trkpt><trkpt lat="44.18351131946973" lon="9.96154226686097"><ele>466.0</ele><time>2026-04-12T14:18:54.999Z</time></trkpt><trkpt lat="44.183580933794175" lon="9.961639704860628"><ele>466.0</ele><time>2026-04-12T14:18:56.999Z</time></trkpt><trkpt lat="44.18365953564571" lon="9.961718820055468"><ele>466.4</ele><time>2026-04-12T14:18:58.999Z</time></trkpt><trkpt lat="44.18374868909468" lon="9.961817282176055"><ele>466.8</ele><time>2026-04-12T14:19:00.999Z</time></trkpt><trkpt lat="44.183815460375975" lon="9.961935914522519"><ele>467.19999999999993</ele><time>2026-04-12T14:19:02.999Z</time></trkpt><trkpt lat="44.183848462330914" lon="9.962065750524246"><ele>467.59999999999997</ele><time>2026-04-12T14:19:05.999Z</time></trkpt><trkpt lat="44.18380375324204" lon="9.962159379244076"><ele>468.0</ele><time>2026-04-12T14:19:07.999Z</time></trkpt><trkpt lat="44.18375341113123" lon="9.962248567041927"><ele>468.0</ele><time>2026-04-12T14:19:09.999Z</time></trkpt><trkpt lat="44.183677957365795" lon="9.962356828459097"><ele>467.99999999999994</ele><time>2026-04-12T14:19:11.999Z</time></trkpt><trkpt lat="44.18366408063857" lon="9.96246749516796"><ele>467.99999999999994</ele><time>2026-04-12T14:19:13.999Z</time></trkpt><trkpt lat="44.183682528024136" lon="9.962608417303747"><ele>468.0</ele><time>2026-04-12T14:19:15.999Z</time></trkpt><trkpt lat="44.183650888490305" lon="9.962717904093164"><ele>468.0</ele><time>2026-04-12T14:19:18Z</time></trkpt><trkpt lat="44.18357851603712" lon="9.962822620354927"><ele>467.79999999999995</ele><time>2026-04-12T14:19:20Z</time></trkpt><trkpt lat="44.1834979347447" lon="9.962949723365364"><ele>467.59999999999997</ele><time>2026-04-12T14:19:22Z</time></trkpt><trkpt lat="44.183483914089315" lon="9.96310323568562"><ele>467.40000000000003</ele><time>2026-04-12T14:19:24Z</time></trkpt><trkpt lat="44.183511382643445" lon="9.96319680825245"><ele>467.20000000000005</ele><time>2026-04-12T14:19:25Z</time></trkpt><trkpt lat="44.18355145739349" lon="9.963276518136936"><ele>467.0</ele><time>2026-04-12T14:19:26Z</time></trkpt><trkpt lat="44.18360224441913" lon="9.963356009281584"><ele>466.0</ele><time>2026-04-12T14:19:27Z</time></trkpt><trkpt lat="44.183645746362224" lon="9.963440950705346"><ele>465.00000000000006</ele><time>2026-04-12T14:19:28Z</time></trkpt><trkpt lat="44.18368318367712" lon="9.96352935991298"><ele>464.00000000000006</ele><time>2026-04-12T14:19:29Z</time></trkpt><trkpt lat="44.183707362730125" lon="9.963678683036244"><ele>463.0</ele><time>2026-04-12T14:19:31Z</time></trkpt><trkpt lat="44.183714491159016" lon="9.963844225087406"><ele>462.0</ele><time>2026-04-12T14:19:33Z</time></trkpt><trkpt lat="44.1834785310387" lon="9.963982932385004"><ele>462.0</ele><time>2026-04-12T14:19:35Z</time></trkpt><trkpt lat="44.18348111634077" lon="9.964135492249897"><ele>462.00000000000006</ele><time>2026-04-12T14:19:36Z</time></trkpt><trkpt lat="44.18349149932223" lon="9.964252983934081"><ele>462.00000000000006</ele><time>2026-04-12T14:19:38Z</time></trkpt><trkpt lat="44.18342084277519" lon="9.964315613120743"><ele>462.0</ele><time>2026-04-12T14:19:45Z</time></trkpt><trkpt lat="44.183381088616954" lon="9.964455551515025"><ele>462.0</ele><time>2026-04-12T14:19:47Z</time></trkpt><trkpt lat="44.18336899032529" lon="9.964562132722408"><ele>462.0</ele><time>2026-04-12T14:19:49Z</time></trkpt><trkpt lat="44.183397235815406" lon="9.964464571191808"><ele>462.00000000000006</ele><time>2026-04-12T14:19:54Z</time></trkpt><trkpt lat="44.18341574777586" lon="9.964369200091841"><ele>462.00000000000006</ele><time>2026-04-12T14:19:55Z</time></trkpt><trkpt lat="44.18349172552526" lon="9.964156292110387"><ele>462.0</ele><time>2026-04-12T14:19:58Z</time></trkpt><trkpt lat="44.18348814827753" lon="9.96403165838696"><ele>462.0</ele><time>2026-04-12T14:20:01Z</time></trkpt><trkpt lat="44.183437905013626" lon="9.963948504181333"><ele>462.0</ele><time>2026-04-12T14:20:03Z</time></trkpt><trkpt lat="44.18334966198576" lon="9.96397322349447"><ele>462.0</ele><time>2026-04-12T14:20:05Z</time></trkpt><trkpt lat="44.1832758207733" lon="9.96403346485562"><ele>462.0</ele><time>2026-04-12T14:20:07Z</time></trkpt><trkpt lat="44.183211806741916" lon="9.964099838539834"><ele>462.0</ele><time>2026-04-12T14:20:09Z</time></trkpt><trkpt lat="44.18315958898837" lon="9.964167494658426"><ele>462.0</ele><time>2026-04-12T14:20:11Z</time></trkpt><trkpt lat="44.18311011446546" lon="9.964250258849392"><ele>462.0</ele><time>2026-04-12T14:20:13Z</time></trkpt><trkpt lat="44.18306035436808" lon="9.964345368641759"><ele>465.8571428571429</ele><time>2026-04-12T14:20:15Z</time></trkpt><trkpt lat="44.183001204021316" lon="9.964431731098822"><ele>469.7142857142857</ele><time>2026-04-12T14:20:17Z</time></trkpt><trkpt lat="44.1829490434556" lon="9.964515856620128"><ele>473.57142857142856</ele><time>2026-04-12T14:20:19Z</time></trkpt><trkpt lat="44.18289677444346" lon="9.964589044496847"><ele>477.42857142857144</ele><time>2026-04-12T14:20:21Z</time></trkpt><trkpt lat="44.18286707179259" lon="9.964673101534295"><ele>481.28571428571433</ele><time>2026-04-12T14:20:23Z</time></trkpt><trkpt lat="44.18282293114501" lon="9.964747981779574"><ele>485.14285714285717</ele><time>2026-04-12T14:20:25Z</time></trkpt><trkpt lat="44.18277546066428" lon="9.964824951712417"><ele>489.0</ele><time>2026-04-12T14:20:27Z</time></trkpt><trkpt lat="44.182728697471475" lon="9.964934638983046"><ele>489.0</ele><time>2026-04-12T14:20:29Z</time></trkpt><trkpt lat="44.18265055852779" lon="9.965025141628649"><ele>489.0</ele><time>2026-04-12T14:20:31Z</time></trkpt><trkpt lat="44.18259660251304" lon="9.965134597528692"><ele>489.0</ele><time>2026-04-12T14:20:33Z</time></trkpt><trkpt lat="44.182539932455974" lon="9.96525147544539"><ele>489.0</ele><time>2026-04-12T14:20:35Z</time></trkpt><trkpt lat="44.18247464024399" lon="9.965391258902317"><ele>489.0</ele><time>2026-04-12T14:20:37Z</time></trkpt><trkpt lat="44.182420000671804" lon="9.965494450715244"><ele>494.0</ele><time>2026-04-12T14:20:39Z</time></trkpt><trkpt lat="44.1823463216252" lon="9.965520068791312"><ele>499.0</ele><time>2026-04-12T14:20:42Z</time></trkpt><trkpt lat="44.18249934746697" lon="9.966092627019433"><ele>494.1666666666667</ele><time>2026-04-12T14:23:30Z</time></trkpt><trkpt lat="44.1825311892104" lon="9.966199636778883"><ele>489.33333333333337</ele><time>2026-04-12T14:23:32Z</time></trkpt><trkpt lat="44.182554192965036" lon="9.966296608052655"><ele>484.5</ele><time>2026-04-12T14:23:34Z</time></trkpt><trkpt lat="44.18255093343489" lon="9.96641838162959"><ele>479.66666666666663</ele><time>2026-04-12T14:23:36Z</time></trkpt><trkpt lat="44.18253960888311" lon="9.966552471608209"><ele>474.8333333333333</ele><time>2026-04-12T14:23:38Z</time></trkpt><trkpt lat="44.18254562297864" lon="9.966646444121192"><ele>470.0</ele><time>2026-04-12T14:23:40Z</time></trkpt><trkpt lat="44.182567089781486" lon="9.966750838844805"><ele>468.1428571428571</ele><time>2026-04-12T14:23:43Z</time></trkpt><trkpt lat="44.18259413714903" lon="9.966833242715238"><ele>466.2857142857142</ele><time>2026-04-12T14:23:45Z</time></trkpt><trkpt lat="44.182626924651856" lon="9.966916516817056"><ele>464.42857142857144</ele><time>2026-04-12T14:23:47Z</time></trkpt><trkpt lat="44.182656134428264" lon="9.966997210032922"><ele>462.57142857142856</ele><time>2026-04-12T14:23:49Z</time></trkpt><trkpt lat="44.1826729139871" lon="9.967112336880678"><ele>460.7142857142857</ele><time>2026-04-12T14:23:51Z</time></trkpt><trkpt lat="44.18266850797662" lon="9.967219573704982"><ele>458.8571428571429</ele><time>2026-04-12T14:23:53Z</time></trkpt><trkpt lat="44.182679564534155" lon="9.967310231401097"><ele>457.00000000000006</ele><time>2026-04-12T14:23:55Z</time></trkpt><trkpt lat="44.182673449229355" lon="9.96744879953318"><ele>457.00000000000006</ele><time>2026-04-12T14:23:57Z</time></trkpt><trkpt lat="44.18267871945775" lon="9.967561360532061"><ele>457.0</ele><time>2026-04-12T14:23:59Z</time></trkpt><trkpt lat="44.18267913032209" lon="9.967666685168682"><ele>457.0</ele><time>2026-04-12T14:24:02Z</time></trkpt><trkpt lat="44.18261197819897" lon="9.967710581570918"><ele>457.0</ele><time>2026-04-12T14:24:05Z</time></trkpt><trkpt lat="44.18256080273756" lon="9.9675599764653"><ele>457.00000000000006</ele><time>2026-04-12T14:24:07Z</time></trkpt><trkpt lat="44.18252020199717" lon="9.967490051728557"><ele>457.0</ele><time>2026-04-12T14:24:08Z</time></trkpt><trkpt lat="44.18249023144454" lon="9.967363621540432"><ele>457.00000000000006</ele><time>2026-04-12T14:24:10Z</time></trkpt><trkpt lat="44.18244244585533" lon="9.967218173891471"><ele>457.0</ele><time>2026-04-12T14:24:12Z</time></trkpt><trkpt lat="44.182436315723514" lon="9.967094838613233"><ele>457.0</ele><time>2026-04-12T14:24:14Z</time></trkpt><trkpt lat="44.18242082266158" lon="9.967007916485946"><ele>457.0</ele><time>2026-04-12T14:24:17Z</time></trkpt><trkpt lat="44.18239785055764" lon="9.966914521342789"><ele>457.00000000000006</ele><time>2026-04-12T14:24:28Z</time></trkpt><trkpt lat="44.18236536238015" lon="9.966819675669838"><ele>457.0</ele><time>2026-04-12T14:24:30Z</time></trkpt><trkpt lat="44.18228743617152" lon="9.966724550131318"><ele>454.8</ele><time>2026-04-12T14:24:32Z</time></trkpt><trkpt lat="44.18221264092075" lon="9.966749335147663"><ele>452.6</ele><time>2026-04-12T14:24:34Z</time></trkpt><trkpt lat="44.18219686308694" lon="9.966888416837696"><ele>450.40000000000003</ele><time>2026-04-12T14:24:36Z</time></trkpt><trkpt lat="44.18220249663564" lon="9.967012620830946"><ele>448.20000000000005</ele><time>2026-04-12T14:24:38Z</time></trkpt><trkpt lat="44.18221248895763" lon="9.967166328481044"><ele>446.0</ele><time>2026-04-12T14:24:39.999Z</time></trkpt><trkpt lat="44.18222142739336" lon="9.967306393448172"><ele>446.0</ele><time>2026-04-12T14:24:41.999Z</time></trkpt><trkpt lat="44.18222599089078" lon="9.967435968891866"><ele>446.0</ele><time>2026-04-12T14:24:45.999Z</time></trkpt><trkpt lat="44.182221870148986" lon="9.96757434523522"><ele>446.0</ele><time>2026-04-12T14:24:47.999Z</time></trkpt><trkpt lat="44.18223720486055" lon="9.967740534316636"><ele>446.0</ele><time>2026-04-12T14:24:49.999Z</time></trkpt><trkpt lat="44.18225865589454" lon="9.967879947504104"><ele>446.0</ele><time>2026-04-12T14:24:51.999Z</time></trkpt><trkpt lat="44.18226443395094" lon="9.967978966322036"><ele>441.16666666666663</ele><time>2026-04-12T14:24:53.999Z</time></trkpt><trkpt lat="44.18226148485418" lon="9.968082491714636"><ele>436.3333333333333</ele><time>2026-04-12T14:24:57.999Z</time></trkpt><trkpt lat="44.1822504441921" lon="9.968199070236187"><ele>431.5</ele><time>2026-04-12T14:24:59.999Z</time></trkpt><trkpt lat="44.182252416192085" lon="9.968293053945244"><ele>426.66666666666663</ele><time>2026-04-12T14:25:01.999Z</time></trkpt><trkpt lat="44.18226250718013" lon="9.968392402540681"><ele>421.8333333333333</ele><time>2026-04-12T14:25:04.999Z</time></trkpt><trkpt lat="44.18228095910493" lon="9.968533599749835"><ele>417.0</ele><time>2026-04-12T14:25:07.999Z</time></trkpt><trkpt lat="44.18230813597368" lon="9.968653247108318"><ele>417.8333333333333</ele><time>2026-04-12T14:25:09.999Z</time></trkpt><trkpt lat="44.1823186231635" lon="9.968766572124633"><ele>418.66666666666663</ele><time>2026-04-12T14:25:11.999Z</time></trkpt><trkpt lat="44.182327494447605" lon="9.968896100987166"><ele>419.5</ele><time>2026-04-12T14:25:14.999Z</time></trkpt><trkpt lat="44.18232602048209" lon="9.969004996103639"><ele>420.3333333333333</ele><time>2026-04-12T14:25:16.999Z</time></trkpt><trkpt lat="44.18234008468496" lon="9.969130410974081"><ele>421.16666666666663</ele><time>2026-04-12T14:25:18.999Z</time></trkpt><trkpt lat="44.1823624946881" lon="9.96926207308731"><ele>422.0</ele><time>2026-04-12T14:25:20.999Z</time></trkpt><trkpt lat="44.18240093295923" lon="9.969370310888788"><ele>421.99999999999994</ele><time>2026-04-12T14:25:23.999Z</time></trkpt><trkpt lat="44.18245658016157" lon="9.96947158588655"><ele>422.0</ele><time>2026-04-12T14:25:26.999Z</time></trkpt><trkpt lat="44.18251860243836" lon="9.969546108163374"><ele>422.0</ele><time>2026-04-12T14:25:29.999Z</time></trkpt><trkpt lat="44.182548474474814" lon="9.969643577083499"><ele>422.0</ele><time>2026-04-12T14:25:32.999Z</time></trkpt><trkpt lat="44.18251826999938" lon="9.969727856859611"><ele>421.99999999999994</ele><time>2026-04-12T14:25:35Z</time></trkpt><trkpt lat="44.18247637361467" lon="9.969823350004354"><ele>422.0</ele><time>2026-04-12T14:25:38Z</time></trkpt><trkpt lat="44.18241517251161" lon="9.969891604641964"><ele>415.6</ele><time>2026-04-12T14:25:40Z</time></trkpt><trkpt lat="44.18234806455081" lon="9.969970675199612"><ele>409.20000000000005</ele><time>2026-04-12T14:25:43Z</time></trkpt><trkpt lat="44.182281037610984" lon="9.970090996714564"><ele>402.8</ele><time>2026-04-12T14:25:45Z</time></trkpt><trkpt lat="44.182236875739044" lon="9.97020131320529"><ele>396.4</ele><time>2026-04-12T14:25:47Z</time></trkpt><trkpt lat="44.182228816945084" lon="9.970357162196935"><ele>390.0</ele><time>2026-04-12T14:25:49Z</time></trkpt><trkpt lat="44.18221295687417" lon="9.970501286395153"><ele>388.5</ele><time>2026-04-12T14:25:51Z</time></trkpt><trkpt lat="44.18220517446286" lon="9.970592072650662"><ele>387.0</ele><time>2026-04-12T14:25:52Z</time></trkpt><trkpt lat="44.1821883891978" lon="9.97067668860791"><ele>385.5</ele><time>2026-04-12T14:25:53Z</time></trkpt><trkpt lat="44.18216251634178" lon="9.970808341090244"><ele>384.0</ele><time>2026-04-12T14:25:55Z</time></trkpt><trkpt lat="44.182149560905714" lon="9.970918712904188"><ele>382.5</ele><time>2026-04-12T14:25:57Z</time></trkpt><trkpt lat="44.182127946229535" lon="9.97101123781628"><ele>381.0</ele><time>2026-04-12T14:26:00Z</time></trkpt><trkpt lat="44.182126309873205" lon="9.971142531578376"><ele>380.4</ele><time>2026-04-12T14:26:50.999Z</time></trkpt><trkpt lat="44.182117963429675" lon="9.971280944930523"><ele>379.8</ele><time>2026-04-12T14:26:52.999Z</time></trkpt><trkpt lat="44.18210725688437" lon="9.971438733669919"><ele>379.2</ele><time>2026-04-12T14:26:54.999Z</time></trkpt><trkpt lat="44.18203977786176" lon="9.971539069554181"><ele>378.59999999999997</ele><time>2026-04-12T14:26:56.999Z</time></trkpt><trkpt lat="44.18198654689267" lon="9.971607249576085"><ele>378.0</ele><time>2026-04-12T14:26:58.999Z</time></trkpt><trkpt lat="44.18193210336503" lon="9.971661990266139"><ele>378.5</ele><time>2026-04-12T14:27:00.999Z</time></trkpt><trkpt lat="44.18187578002936" lon="9.971747206942656"><ele>379.0</ele><time>2026-04-12T14:27:03.999Z</time></trkpt><trkpt lat="44.181803783987135" lon="9.971841805040768"><ele>379.5</ele><time>2026-04-12T14:27:06.999Z</time></trkpt><trkpt lat="44.181752755357095" lon="9.971945349587955"><ele>380.0</ele><time>2026-04-12T14:27:08.999Z</time></trkpt><trkpt lat="44.18170944746029" lon="9.972026770642666"><ele>380.5</ele><time>2026-04-12T14:27:10.999Z</time></trkpt><trkpt lat="44.18167227938923" lon="9.972131393428077"><ele>381.0</ele><time>2026-04-12T14:27:12.999Z</time></trkpt><trkpt lat="44.18166804334902" lon="9.972275727813523"><ele>381.0</ele><time>2026-04-12T14:27:14.999Z</time></trkpt><trkpt lat="44.181676011090964" lon="9.972423178857387"><ele>381.0</ele><time>2026-04-12T14:27:16.999Z</time></trkpt><trkpt lat="44.18170482466868" lon="9.972556107207879"><ele>381.0</ele><time>2026-04-12T14:27:18.999Z</time></trkpt><trkpt lat="44.18174270026595" lon="9.972687122968141"><ele>381.0</ele><time>2026-04-12T14:27:20.999Z</time></trkpt><trkpt lat="44.18177275976808" lon="9.972819448570268"><ele>381.0</ele><time>2026-04-12T14:27:22.999Z</time></trkpt><trkpt lat="44.18180730813815" lon="9.972955729133169"><ele>378.4</ele><time>2026-04-12T14:27:24.999Z</time></trkpt><trkpt lat="44.1818498787135" lon="9.973067844862335"><ele>375.8</ele><time>2026-04-12T14:27:26.999Z</time></trkpt><trkpt lat="44.18188943693552" lon="9.973183599383118"><ele>373.2</ele><time>2026-04-12T14:27:28.999Z</time></trkpt><trkpt lat="44.18193719975552" lon="9.97329665714961"><ele>370.59999999999997</ele><time>2026-04-12T14:27:30.999Z</time></trkpt><trkpt lat="44.18199283260766" lon="9.973445559002704"><ele>368.0</ele><time>2026-04-12T14:27:32.999Z</time></trkpt><trkpt lat="44.18203086573532" lon="9.973538219737092"><ele>369.5</ele><time>2026-04-12T14:27:33.999Z</time></trkpt><trkpt lat="44.18205997373695" lon="9.973621892370595"><ele>371.0</ele><time>2026-04-12T14:27:34.999Z</time></trkpt><trkpt lat="44.18212281799782" lon="9.973734195982535"><ele>372.5</ele><time>2026-04-12T14:27:36.999Z</time></trkpt><trkpt lat="44.182185030958735" lon="9.973793641287648"><ele>374.0</ele><time>2026-04-12T14:27:38.999Z</time></trkpt><trkpt lat="44.182252923629356" lon="9.973840981284868"><ele>375.5</ele><time>2026-04-12T14:27:41Z</time></trkpt><trkpt lat="44.18230729917313" lon="9.973892899738635"><ele>377.0</ele><time>2026-04-12T14:27:43Z</time></trkpt><trkpt lat="44.18238757899735" lon="9.973917470545077"><ele>377.0</ele><time>2026-04-12T14:27:45Z</time></trkpt><trkpt lat="44.18244699498236" lon="9.974025112169063"><ele>377.0</ele><time>2026-04-12T14:27:47Z</time></trkpt><trkpt lat="44.182503830773484" lon="9.974137188126571"><ele>377.0</ele><time>2026-04-12T14:27:49Z</time></trkpt><trkpt lat="44.18257421942147" lon="9.974237288017223"><ele>377.0</ele><time>2026-04-12T14:27:51Z</time></trkpt><trkpt lat="44.18265840671666" lon="9.974275507127931"><ele>377.0</ele><time>2026-04-12T14:27:53Z</time></trkpt><trkpt lat="44.18275182821158" lon="9.974276792016155"><ele>377.0</ele><time>2026-04-12T14:27:55Z</time></trkpt><trkpt lat="44.18286602541091" lon="9.97428240894491"><ele>377.0</ele><time>2026-04-12T14:27:57Z</time></trkpt><trkpt lat="44.18292209694909" lon="9.97422175032072"><ele>377.0</ele><time>2026-04-12T14:27:58Z</time></trkpt><trkpt lat="44.18299907208543" lon="9.974127334157565"><ele>377.0</ele><time>2026-04-12T14:28:00Z</time></trkpt><trkpt lat="44.18307428384836" lon="9.974123361250697"><ele>377.0</ele><time>2026-04-12T14:28:02Z</time></trkpt><trkpt lat="44.18314231061783" lon="9.974209467469475"><ele>377.20000000000005</ele><time>2026-04-12T14:28:04Z</time></trkpt><trkpt lat="44.18319007941913" lon="9.974349118826103"><ele>377.4</ele><time>2026-04-12T14:28:06Z</time></trkpt><trkpt lat="44.183210955162856" lon="9.97451711847341"><ele>377.6</ele><time>2026-04-12T14:28:08Z</time></trkpt><trkpt lat="44.183208671483946" lon="9.974682537704055"><ele>377.79999999999995</ele><time>2026-04-12T14:28:10Z</time></trkpt><trkpt lat="44.183210822420065" lon="9.974771514747014"><ele>378.0</ele><time>2026-04-12T14:28:11Z</time></trkpt><trkpt lat="44.18324065861397" lon="9.974931885082544"><ele>375.59999999999997</ele><time>2026-04-12T14:28:13Z</time></trkpt><trkpt lat="44.18332804574219" lon="9.975040417256977"><ele>373.2</ele><time>2026-04-12T14:28:15Z</time></trkpt><trkpt lat="44.183441887498" lon="9.975080091337874"><ele>370.8</ele><time>2026-04-12T14:28:17Z</time></trkpt><trkpt lat="44.18353466102087" lon="9.975147587059578"><ele>368.4</ele><time>2026-04-12T14:28:19Z</time></trkpt><trkpt lat="44.18362521329421" lon="9.975188345491976"><ele>366.0</ele><time>2026-04-12T14:28:21Z</time></trkpt><trkpt lat="44.1837297510792" lon="9.975175751699718"><ele>366.0</ele><time>2026-04-12T14:28:23Z</time></trkpt><trkpt lat="44.18382451517139" lon="9.975125432594577"><ele>366.0</ele><time>2026-04-12T14:28:25Z</time></trkpt><trkpt lat="44.18391041411172" lon="9.975054097600573"><ele>366.0</ele><time>2026-04-12T14:28:27Z</time></trkpt><trkpt lat="44.18394929756667" lon="9.974979842566766"><ele>366.0</ele><time>2026-04-12T14:28:29Z</time></trkpt><trkpt lat="44.18399163444854" lon="9.974892257166106"><ele>366.0</ele><time>2026-04-12T14:28:31Z</time></trkpt><trkpt lat="44.18407403708322" lon="9.974833409415231"><ele>366.0</ele><time>2026-04-12T14:28:34Z</time></trkpt><trkpt lat="44.184152566747926" lon="9.974912095103875"><ele>368.0</ele><time>2026-04-12T14:28:36Z</time></trkpt><trkpt lat="44.18424407765747" lon="9.974997030735715"><ele>370.0</ele><time>2026-04-12T14:28:38Z</time></trkpt><trkpt lat="44.18433649363634" lon="9.975027593958314"><ele>372.0</ele><time>2026-04-12T14:28:40Z</time></trkpt><trkpt lat="44.1844077331677" lon="9.975068951526971"><ele>374.0</ele><time>2026-04-12T14:28:41.999Z</time></trkpt><trkpt lat="44.18447488634632" lon="9.975160141497359"><ele>376.0</ele><time>2026-04-12T14:28:43.999Z</time></trkpt><trkpt lat="44.184548409026725" lon="9.975256001201593"><ele>371.20000000000005</ele><time>2026-04-12T14:28:45.999Z</time></trkpt><trkpt lat="44.18459914905085" lon="9.97533984717288"><ele>366.40000000000003</ele><time>2026-04-12T14:28:47.999Z</time></trkpt><trkpt lat="44.184679752621314" lon="9.975428888550613"><ele>361.6</ele><time>2026-04-12T14:28:49.999Z</time></trkpt><trkpt lat="44.184747560134234" lon="9.975524404830617"><ele>356.8</ele><time>2026-04-12T14:28:51.999Z</time></trkpt><trkpt lat="44.184815635599556" lon="9.975621252625603"><ele>352.0</ele><time>2026-04-12T14:28:53.999Z</time></trkpt><trkpt lat="44.18490878805951" lon="9.9756912295094"><ele>351.66666666666663</ele><time>2026-04-12T14:28:55.999Z</time></trkpt><trkpt lat="44.18499813003953" lon="9.97567549519619"><ele>351.3333333333333</ele><time>2026-04-12T14:28:57.999Z</time></trkpt><trkpt lat="44.1850666460984" lon="9.97565605739448"><ele>351.0</ele><time>2026-04-12T14:28:59.999Z</time></trkpt><trkpt lat="44.1851434891406" lon="9.975616695895344"><ele>350.6666666666667</ele><time>2026-04-12T14:29:02.999Z</time></trkpt><trkpt lat="44.18521368661015" lon="9.975606157230587"><ele>350.33333333333337</ele><time>2026-04-12T14:29:04.999Z</time></trkpt><trkpt lat="44.185300267769826" lon="9.975606040079986"><ele>350.0</ele><time>2026-04-12T14:29:06.999Z</time></trkpt><trkpt lat="44.1853889747423" lon="9.975613951329649"><ele>350.0</ele><time>2026-04-12T14:29:08.999Z</time></trkpt><trkpt lat="44.18548826177936" lon="9.975631653115173"><ele>350.0</ele><time>2026-04-12T14:29:10.999Z</time></trkpt><trkpt lat="44.18552549965241" lon="9.9757426929837"><ele>350.0</ele><time>2026-04-12T14:29:12.999Z</time></trkpt><trkpt lat="44.185519419597995" lon="9.975883310827943"><ele>350.0</ele><time>2026-04-12T14:29:14.999Z</time></trkpt><trkpt lat="44.18548159540211" lon="9.976012696818836"><ele>350.0</ele><time>2026-04-12T14:29:16.999Z</time></trkpt><trkpt lat="44.18542380020681" lon="9.9761030511818"><ele>347.57142857142856</ele><time>2026-04-12T14:29:19.999Z</time></trkpt><trkpt lat="44.18534081533854" lon="9.976085564924377"><ele>345.1428571428571</ele><time>2026-04-12T14:29:21.999Z</time></trkpt><trkpt lat="44.18526939933795" lon="9.976097505136083"><ele>342.7142857142857</ele><time>2026-04-12T14:29:23.999Z</time></trkpt><trkpt lat="44.185210696400816" lon="9.97615375645421"><ele>340.2857142857143</ele><time>2026-04-12T14:29:25.999Z</time></trkpt><trkpt lat="44.18518884518264" lon="9.976245135964254"><ele>337.85714285714283</ele><time>2026-04-12T14:29:27.999Z</time></trkpt><trkpt lat="44.18519964693603" lon="9.976356034325683"><ele>335.42857142857144</ele><time>2026-04-12T14:29:29.999Z</time></trkpt><trkpt lat="44.18519745506081" lon="9.976444090686677"><ele>333.0</ele><time>2026-04-12T14:29:31.999Z</time></trkpt><trkpt lat="44.18514170344865" lon="9.97653004866877"><ele>333.0</ele><time>2026-04-12T14:29:33.999Z</time></trkpt><trkpt lat="44.185048036679994" lon="9.976542228063572"><ele>333.0</ele><time>2026-04-12T14:29:35.999Z</time></trkpt><trkpt lat="44.184978816759376" lon="9.976445733121471"><ele>333.0</ele><time>2026-04-12T14:29:37.999Z</time></trkpt><trkpt lat="44.184903739296466" lon="9.976347400237897"><ele>333.0</ele><time>2026-04-12T14:29:39.999Z</time></trkpt><trkpt lat="44.184818080524444" lon="9.9762381797723"><ele>333.0</ele><time>2026-04-12T14:29:41.999Z</time></trkpt><trkpt lat="44.184716538453415" lon="9.976159878310183"><ele>335.0</ele><time>2026-04-12T14:29:43.999Z</time></trkpt><trkpt lat="44.18465218937218" lon="9.976159421714804"><ele>337.0</ele><time>2026-04-12T14:29:44.999Z</time></trkpt><trkpt lat="44.18456761789752" lon="9.976203025568564"><ele>339.0</ele><time>2026-04-12T14:29:47Z</time></trkpt><trkpt lat="44.184573044860485" lon="9.976336102542227"><ele>341.0</ele><time>2026-04-12T14:29:50Z</time></trkpt><trkpt lat="44.184657643603494" lon="9.97641761503181"><ele>343.0</ele><time>2026-04-12T14:29:52Z</time></trkpt><trkpt lat="44.184716281224816" lon="9.97653797983153"><ele>343.0</ele><time>2026-04-12T14:29:54Z</time></trkpt><trkpt lat="44.18476117449971" lon="9.976653369577786"><ele>343.0</ele><time>2026-04-12T14:29:56Z</time></trkpt><trkpt lat="44.18479495850457" lon="9.97673596800587"><ele>343.0</ele><time>2026-04-12T14:29:58Z</time></trkpt><trkpt lat="44.1848144198546" lon="9.97684351988175"><ele>343.0</ele><time>2026-04-12T14:30:00Z</time></trkpt><trkpt lat="44.184850146060164" lon="9.976937433395516"><ele>343.0</ele><time>2026-04-12T14:30:02Z</time></trkpt><trkpt lat="44.18488355646099" lon="9.97702368993405"><ele>343.0</ele><time>2026-04-12T14:30:04Z</time></trkpt><trkpt lat="44.18492661330754" lon="9.977122004069729"><ele>339.2857142857143</ele><time>2026-04-12T14:30:07Z</time></trkpt><trkpt lat="44.18496393266026" lon="9.977207017914697"><ele>335.57142857142856</ele><time>2026-04-12T14:30:09Z</time></trkpt><trkpt lat="44.18500302627482" lon="9.977281476978971"><ele>331.8571428571429</ele><time>2026-04-12T14:30:11Z</time></trkpt><trkpt lat="44.18505379696181" lon="9.977371453691129"><ele>328.1428571428571</ele><time>2026-04-12T14:30:13Z</time></trkpt><trkpt lat="44.185105924884795" lon="9.977442708791113"><ele>324.42857142857144</ele><time>2026-04-12T14:30:15Z</time></trkpt><trkpt lat="44.185165066091685" lon="9.977504798157241"><ele>320.7142857142857</ele><time>2026-04-12T14:30:17Z</time></trkpt><trkpt lat="44.185215720300846" lon="9.977557777375623"><ele>317.0</ele><time>2026-04-12T14:30:19Z</time></trkpt><trkpt lat="44.18527177203214" lon="9.977645210131708"><ele>315.83333333333337</ele><time>2026-04-12T14:30:22Z</time></trkpt><trkpt lat="44.18533729938591" lon="9.977744713623752"><ele>314.6666666666667</ele><time>2026-04-12T14:30:25Z</time></trkpt><trkpt lat="44.18538944463503" lon="9.977803749628103"><ele>313.5</ele><time>2026-04-12T14:30:27Z</time></trkpt><trkpt lat="44.1854471165876" lon="9.977860943476015"><ele>312.3333333333333</ele><time>2026-04-12T14:30:29Z</time></trkpt><trkpt lat="44.1855312416629" lon="9.977883947580967"><ele>311.16666666666663</ele><time>2026-04-12T14:30:32Z</time></trkpt><trkpt lat="44.1855993469704" lon="9.977848935321372"><ele>310.0</ele><time>2026-04-12T14:30:34Z</time></trkpt><trkpt lat="44.18568813493029" lon="9.977809148785013"><ele>310.0</ele><time>2026-04-12T14:30:37Z</time></trkpt><trkpt lat="44.185769786934934" lon="9.977786739674146"><ele>310.0</ele><time>2026-04-12T14:30:39Z</time></trkpt><trkpt lat="44.18582495154465" lon="9.977857878227226"><ele>310.0</ele><time>2026-04-12T14:30:41Z</time></trkpt><trkpt lat="44.18582425079294" lon="9.977961827898445"><ele>310.0</ele><time>2026-04-12T14:30:43Z</time></trkpt><trkpt lat="44.18577506735527" lon="9.978072286390724"><ele>310.0</ele><time>2026-04-12T14:30:45Z</time></trkpt><trkpt lat="44.18569512215728" lon="9.978154691697902"><ele>310.0</ele><time>2026-04-12T14:30:47Z</time></trkpt><trkpt lat="44.185642233785195" lon="9.978242808675978"><ele>310.0</ele><time>2026-04-12T14:30:49Z</time></trkpt><trkpt lat="44.185561416245285" lon="9.978275048477471"><ele>310.0</ele><time>2026-04-12T14:30:51Z</time></trkpt><trkpt lat="44.185493990312025" lon="9.978302662879335"><ele>310.0</ele><time>2026-04-12T14:30:53Z</time></trkpt><trkpt lat="44.18542259539836" lon="9.978316811375157"><ele>310.0</ele><time>2026-04-12T14:30:54.999Z</time></trkpt><trkpt lat="44.18532157515295" lon="9.978285056100946"><ele>310.0</ele><time>2026-04-12T14:30:57.999Z</time></trkpt><trkpt lat="44.18522240903802" lon="9.978279335799263"><ele>310.0</ele><time>2026-04-12T14:30:59.999Z</time></trkpt><trkpt lat="44.18514206314758" lon="9.978370242617034"><ele>307.6</ele><time>2026-04-12T14:31:01.999Z</time></trkpt><trkpt lat="44.18510727536584" lon="9.97849037643441"><ele>305.2</ele><time>2026-04-12T14:31:03.999Z</time></trkpt><trkpt lat="44.18512108770247" lon="9.97862034196676"><ele>302.8</ele><time>2026-04-12T14:31:05.999Z</time></trkpt><trkpt lat="44.18514143036113" lon="9.978747311563325"><ele>300.4</ele><time>2026-04-12T14:31:07.999Z</time></trkpt><trkpt lat="44.18515907794112" lon="9.978881461608031"><ele>298.0</ele><time>2026-04-12T14:31:09.999Z</time></trkpt><trkpt lat="44.18517818351683" lon="9.979043315909562"><ele>295.0</ele><time>2026-04-12T14:31:11.999Z</time></trkpt><trkpt lat="44.185187787150554" lon="9.97920628071005"><ele>292.0</ele><time>2026-04-12T14:31:13.999Z</time></trkpt><trkpt lat="44.1852194549628" lon="9.979286514666073"><ele>289.0</ele><time>2026-04-12T14:31:14.999Z</time></trkpt><trkpt lat="44.185222921461005" lon="9.979377657880915"><ele>286.0</ele><time>2026-04-12T14:31:15.999Z</time></trkpt><trkpt lat="44.18526187868357" lon="9.979513592744278"><ele>283.0</ele><time>2026-04-12T14:31:17.999Z</time></trkpt><trkpt lat="44.18524016887469" lon="9.979614711610084"><ele>280.0</ele><time>2026-04-12T14:31:19.999Z</time></trkpt><trkpt lat="44.18517610534424" lon="9.979681383325971"><ele>280.0</ele><time>2026-04-12T14:31:21.999Z</time></trkpt><trkpt lat="44.18509972677746" lon="9.979790754964943"><ele>280.0</ele><time>2026-04-12T14:31:28.999Z</time></trkpt><trkpt lat="44.185007934357245" lon="9.979918621073333"><ele>280.0</ele><time>2026-04-12T14:31:30.999Z</time></trkpt><trkpt lat="44.18494536499522" lon="9.979996434144393"><ele>280.0</ele><time>2026-04-12T14:31:31.999Z</time></trkpt><trkpt lat="44.18488191266638" lon="9.980071306173803"><ele>280.0</ele><time>2026-04-12T14:31:32.999Z</time></trkpt><trkpt lat="44.18481247642291" lon="9.980151582802137"><ele>276.8</ele><time>2026-04-12T14:31:33.999Z</time></trkpt><trkpt lat="44.18474012610846" lon="9.980234137252243"><ele>273.6</ele><time>2026-04-12T14:31:34.999Z</time></trkpt><trkpt lat="44.184677044741896" lon="9.98032249063592"><ele>270.4</ele><time>2026-04-12T14:31:35.999Z</time></trkpt><trkpt lat="44.184608197489176" lon="9.980394152442114"><ele>267.2</ele><time>2026-04-12T14:31:36.999Z</time></trkpt><trkpt lat="44.184523481062584" lon="9.980445767267362"><ele>264.0</ele><time>2026-04-12T14:31:37.999Z</time></trkpt><trkpt lat="44.184452092138265" lon="9.980518253552955"><ele>264.0</ele><time>2026-04-12T14:31:38.999Z</time></trkpt><trkpt lat="44.18436756838691" lon="9.980577084650534"><ele>264.0</ele><time>2026-04-12T14:31:39.999Z</time></trkpt><trkpt lat="44.18427753005395" lon="9.980617644232877"><ele>264.0</ele><time>2026-04-12T14:31:40.999Z</time></trkpt><trkpt lat="44.18417835476316" lon="9.980634459693322"><ele>264.0</ele><time>2026-04-12T14:31:41.999Z</time></trkpt><trkpt lat="44.18408159173756" lon="9.980601822785722"><ele>264.0</ele><time>2026-04-12T14:31:42.999Z</time></trkpt><trkpt lat="44.18397935772164" lon="9.98058627353006"><ele>261.2</ele><time>2026-04-12T14:31:43.999Z</time></trkpt><trkpt lat="44.18388821632573" lon="9.980570973292968"><ele>258.4</ele><time>2026-04-12T14:31:44.999Z</time></trkpt><trkpt lat="44.18380421413807" lon="9.980557429202504"><ele>255.6</ele><time>2026-04-12T14:31:45.999Z</time></trkpt><trkpt lat="44.18372923051263" lon="9.980556088368337"><ele>252.8</ele><time>2026-04-12T14:31:46.999Z</time></trkpt><trkpt lat="44.18363356685744" lon="9.980451888314464"><ele>250.0</ele><time>2026-04-12T14:31:48.999Z</time></trkpt><trkpt lat="44.18362683584008" lon="9.980274593083072"><ele>249.99999999999997</ele><time>2026-04-12T14:31:50.999Z</time></trkpt><trkpt lat="44.18363906833341" lon="9.98017498155282"><ele>250.0</ele><time>2026-04-12T14:31:51.999Z</time></trkpt><trkpt lat="44.1836566797023" lon="9.980069359089477"><ele>250.0</ele><time>2026-04-12T14:31:53Z</time></trkpt><trkpt lat="44.18367071309716" lon="9.979962571372742"><ele>250.0</ele><time>2026-04-12T14:31:54Z</time></trkpt><trkpt lat="44.183667802218466" lon="9.979858356501687"><ele>249.99999999999997</ele><time>2026-04-12T14:31:55Z</time></trkpt><trkpt lat="44.18365498966525" lon="9.9797708078792"><ele>250.0</ele><time>2026-04-12T14:31:56Z</time></trkpt><trkpt lat="44.18360514123673" lon="9.9796100685769"><ele>252.42857142857142</ele><time>2026-04-12T14:31:58Z</time></trkpt><trkpt lat="44.18354663052158" lon="9.979556387073353"><ele>254.8571428571429</ele><time>2026-04-12T14:31:59Z</time></trkpt><trkpt lat="44.18347812086878" lon="9.979523167166985"><ele>257.28571428571433</ele><time>2026-04-12T14:32:00Z</time></trkpt><trkpt lat="44.183405545772686" lon="9.979521160370911"><ele>259.7142857142857</ele><time>2026-04-12T14:32:01Z</time></trkpt><trkpt lat="44.18333139320535" lon="9.979553472905645"><ele>262.14285714285717</ele><time>2026-04-12T14:32:02Z</time></trkpt><trkpt lat="44.18328055740072" lon="9.979636525756554"><ele>264.5714285714286</ele><time>2026-04-12T14:32:03Z</time></trkpt><trkpt lat="44.183222031059444" lon="9.979693836235498"><ele>267.0</ele><time>2026-04-12T14:32:04Z</time></trkpt><trkpt lat="44.183165287411434" lon="9.979749669868584"><ele>267.3333333333333</ele><time>2026-04-12T14:32:05Z</time></trkpt><trkpt lat="44.18311064111774" lon="9.979804853372901"><ele>267.6666666666667</ele><time>2026-04-12T14:32:06Z</time></trkpt><trkpt lat="44.1830590543306" lon="9.979860593138072"><ele>268.0</ele><time>2026-04-12T14:32:07Z</time></trkpt><trkpt lat="44.1829747867645" lon="9.979930628060414"><ele>268.33333333333337</ele><time>2026-04-12T14:32:09Z</time></trkpt><trkpt lat="44.18292280782275" lon="9.980017331305264"><ele>268.6666666666667</ele><time>2026-04-12T14:32:17Z</time></trkpt><trkpt lat="44.182877096689005" lon="9.980087322836873"><ele>269.0</ele><time>2026-04-12T14:32:19Z</time></trkpt><trkpt lat="44.18280610010432" lon="9.980149916938286"><ele>266.33333333333337</ele><time>2026-04-12T14:32:21Z</time></trkpt><trkpt lat="44.18271863658543" lon="9.980269562018778"><ele>263.6666666666667</ele><time>2026-04-12T14:32:23Z</time></trkpt><trkpt lat="44.18266590078696" lon="9.980319454728392"><ele>261.0</ele><time>2026-04-12T14:32:24Z</time></trkpt><trkpt lat="44.182607522861" lon="9.980368967400702"><ele>258.3333333333333</ele><time>2026-04-12T14:32:25Z</time></trkpt><trkpt lat="44.182559962366376" lon="9.98043938745779"><ele>255.66666666666666</ele><time>2026-04-12T14:32:26Z</time></trkpt><trkpt lat="44.18249888241925" lon="9.980512096935797"><ele>253.0</ele><time>2026-04-12T14:32:27Z</time></trkpt><trkpt lat="44.18246086370922" lon="9.980606086647885"><ele>252.99999999999997</ele><time>2026-04-12T14:32:28Z</time></trkpt><trkpt lat="44.1824240240741" lon="9.980698993430352"><ele>253.0</ele><time>2026-04-12T14:32:29Z</time></trkpt><trkpt lat="44.182387120668615" lon="9.980780934012488"><ele>253.0</ele><time>2026-04-12T14:32:30Z</time></trkpt><trkpt lat="44.182345786116926" lon="9.980868828418794"><ele>253.0</ele><time>2026-04-12T14:32:31Z</time></trkpt><trkpt lat="44.18230878725768" lon="9.98094018425986"><ele>252.99999999999997</ele><time>2026-04-12T14:32:32Z</time></trkpt><trkpt lat="44.1822621901054" lon="9.981018010417912"><ele>253.0</ele><time>2026-04-12T14:32:33Z</time></trkpt><trkpt lat="44.18218462771372" lon="9.981119607078485"><ele>248.4</ele><time>2026-04-12T14:32:35Z</time></trkpt><trkpt lat="44.18208809752036" lon="9.981201116961536"><ele>243.8</ele><time>2026-04-12T14:32:37Z</time></trkpt><trkpt lat="44.181982610008006" lon="9.98124802253231"><ele>239.2</ele><time>2026-04-12T14:32:39Z</time></trkpt><trkpt lat="44.18187965881094" lon="9.981254820676652"><ele>234.6</ele><time>2026-04-12T14:32:41Z</time></trkpt><trkpt lat="44.18179072663637" lon="9.981217669496463"><ele>230.0</ele><time>2026-04-12T14:32:43Z</time></trkpt><trkpt lat="44.18172309962624" lon="9.981144992351284"><ele>230.0</ele><time>2026-04-12T14:32:45Z</time></trkpt><trkpt lat="44.18169070091356" lon="9.981004512463858"><ele>230.0</ele><time>2026-04-12T14:32:47Z</time></trkpt><trkpt lat="44.18167511925113" lon="9.980823245316326"><ele>230.0</ele><time>2026-04-12T14:32:49Z</time></trkpt><trkpt lat="44.18165606047782" lon="9.980721956965397"><ele>230.0</ele><time>2026-04-12T14:32:50Z</time></trkpt><trkpt lat="44.18161150749812" lon="9.98063864076039"><ele>230.0</ele><time>2026-04-12T14:32:51Z</time></trkpt><trkpt lat="44.18155981961856" lon="9.980551078602653"><ele>229.71428571428567</ele><time>2026-04-12T14:32:52Z</time></trkpt><trkpt lat="44.181512855482836" lon="9.980467617717025"><ele>229.42857142857142</ele><time>2026-04-12T14:32:53Z</time></trkpt><trkpt lat="44.18147434079216" lon="9.98039153171045"><ele>229.1428571428571</ele><time>2026-04-12T14:32:54Z</time></trkpt><trkpt lat="44.18143817143857" lon="9.980305750191606"><ele>228.85714285714283</ele><time>2026-04-12T14:32:55Z</time></trkpt><trkpt lat="44.18140047160109" lon="9.980222194609558"><ele>228.57142857142856</ele><time>2026-04-12T14:32:56Z</time></trkpt><trkpt lat="44.181376899316724" lon="9.980137140218618"><ele>228.28571428571428</ele><time>2026-04-12T14:32:57Z</time></trkpt><trkpt lat="44.18133034076347" lon="9.98006566037065"><ele>228.0</ele><time>2026-04-12T14:32:58Z</time></trkpt><trkpt lat="44.18124797644449" lon="9.979938268557978"><ele>228.0</ele><time>2026-04-12T14:33:00Z</time></trkpt><trkpt lat="44.181206599812654" lon="9.97986728457809"><ele>228.0</ele><time>2026-04-12T14:33:01Z</time></trkpt><trkpt lat="44.18116878919625" lon="9.979793622824458"><ele>228.0</ele><time>2026-04-12T14:33:02Z</time></trkpt><trkpt lat="44.18114205857007" lon="9.97971209855989"><ele>228.0</ele><time>2026-04-12T14:33:03Z</time></trkpt><trkpt lat="44.18108971426081" lon="9.979567856493615"><ele>228.0</ele><time>2026-04-12T14:33:05Z</time></trkpt><trkpt lat="44.18100580451493" lon="9.979478480956496"><ele>228.0</ele><time>2026-04-12T14:33:07Z</time></trkpt><trkpt lat="44.180919893782644" lon="9.97943962867758"><ele>228.0</ele><time>2026-04-12T14:33:09Z</time></trkpt><trkpt lat="44.18081695065682" lon="9.979453835512153"><ele>228.0</ele><time>2026-04-12T14:33:11Z</time></trkpt><trkpt lat="44.180690285729156" lon="9.979465434311493"><ele>228.0</ele><time>2026-04-12T14:33:12.999Z</time></trkpt><trkpt lat="44.18058176834529" lon="9.979472343062573"><ele>228.0</ele><time>2026-04-12T14:33:14.999Z</time></trkpt><trkpt lat="44.18048533839134" lon="9.979460056914077"><ele>228.0</ele><time>2026-04-12T14:33:16.999Z</time></trkpt><trkpt lat="44.1804078561078" lon="9.979445507838141"><ele>227.60000000000002</ele><time>2026-04-12T14:33:18.999Z</time></trkpt><trkpt lat="44.180325210380964" lon="9.97943716638642"><ele>227.20000000000002</ele><time>2026-04-12T14:33:20.999Z</time></trkpt><trkpt lat="44.18023586006599" lon="9.979436482435682"><ele>226.8</ele><time>2026-04-12T14:33:22.999Z</time></trkpt><trkpt lat="44.180132539818025" lon="9.979422558730668"><ele>226.4</ele><time>2026-04-12T14:33:24.999Z</time></trkpt><trkpt lat="44.180028685283624" lon="9.979394815974581"><ele>226.0</ele><time>2026-04-12T14:33:26.999Z</time></trkpt><trkpt lat="44.17992371649704" lon="9.979331298147851"><ele>225.99999999999997</ele><time>2026-04-12T14:33:28.999Z</time></trkpt><trkpt lat="44.17986466846847" lon="9.979287088334264"><ele>226.0</ele><time>2026-04-12T14:33:29.999Z</time></trkpt><trkpt lat="44.179810293006945" lon="9.979236540595743"><ele>226.0</ele><time>2026-04-12T14:33:30.999Z</time></trkpt><trkpt lat="44.17975374613313" lon="9.97918456876952"><ele>226.0</ele><time>2026-04-12T14:33:31.999Z</time></trkpt><trkpt lat="44.17970077290633" lon="9.979125887983752"><ele>225.99999999999997</ele><time>2026-04-12T14:33:32.999Z</time></trkpt><trkpt lat="44.17962552521141" lon="9.978996378663316"><ele>226.0</ele><time>2026-04-12T14:33:34.999Z</time></trkpt><trkpt lat="44.17958169632901" lon="9.978832208446478"><ele>225.71428571428572</ele><time>2026-04-12T14:33:36.999Z</time></trkpt><trkpt lat="44.17955738632841" lon="9.978741460467647"><ele>225.42857142857142</ele><time>2026-04-12T14:33:37.999Z</time></trkpt><trkpt lat="44.17953075652702" lon="9.978651022904693"><ele>225.14285714285714</ele><time>2026-04-12T14:33:38.999Z</time></trkpt><trkpt lat="44.179497755224276" lon="9.978559978027606"><ele>224.85714285714286</ele><time>2026-04-12T14:33:39.999Z</time></trkpt><trkpt lat="44.17946415528795" lon="9.978471351373871"><ele>224.57142857142856</ele><time>2026-04-12T14:33:40.999Z</time></trkpt><trkpt lat="44.17942477313382" lon="9.978384874340763"><ele>224.28571428571428</ele><time>2026-04-12T14:33:41.999Z</time></trkpt><trkpt lat="44.17938120863392" lon="9.978312764800716"><ele>224.0</ele><time>2026-04-12T14:33:42.999Z</time></trkpt><trkpt lat="44.17930585152169" lon="9.978193207224196"><ele>224.0</ele><time>2026-04-12T14:33:44.999Z</time></trkpt><trkpt lat="44.17926269130037" lon="9.97804360663028"><ele>223.99999999999997</ele><time>2026-04-12T14:33:46.999Z</time></trkpt><trkpt lat="44.17925473786503" lon="9.977949252754627"><ele>223.99999999999997</ele><time>2026-04-12T14:33:47.999Z</time></trkpt><trkpt lat="44.179216615407725" lon="9.977776952471494"><ele>224.0</ele><time>2026-04-12T14:33:49.999Z</time></trkpt><trkpt lat="44.179134575430005" lon="9.977626071373708"><ele>224.0</ele><time>2026-04-12T14:33:51.999Z</time></trkpt><trkpt lat="44.179077660580056" lon="9.977542088914557"><ele>225.33333333333334</ele><time>2026-04-12T14:33:52.999Z</time></trkpt><trkpt lat="44.17901845606238" lon="9.977459098791966"><ele>226.66666666666669</ele><time>2026-04-12T14:33:53.999Z</time></trkpt><trkpt lat="44.178963140218364" lon="9.977393206038887"><ele>228.0</ele><time>2026-04-12T14:33:54.999Z</time></trkpt><trkpt lat="44.178894996604896" lon="9.9773371686126"><ele>229.33333333333331</ele><time>2026-04-12T14:33:55.999Z</time></trkpt><trkpt lat="44.17883179583042" lon="9.977320925657093"><ele>230.66666666666666</ele><time>2026-04-12T14:33:56.999Z</time></trkpt><trkpt lat="44.1787422976311" lon="9.97735631890723"><ele>232.0</ele><time>2026-04-12T14:33:59Z</time></trkpt><trkpt lat="44.178669727769375" lon="9.977439973017944"><ele>228.83333333333331</ele><time>2026-04-12T14:34:02Z</time></trkpt><trkpt lat="44.17866836513367" lon="9.977535276357113"><ele>225.66666666666666</ele><time>2026-04-12T14:34:04Z</time></trkpt><trkpt lat="44.178694434854734" lon="9.977653050452625"><ele>222.5</ele><time>2026-04-12T14:34:07Z</time></trkpt><trkpt lat="44.178707760364176" lon="9.977772939499967"><ele>219.33333333333331</ele><time>2026-04-12T14:34:09Z</time></trkpt><trkpt lat="44.17867656336345" lon="9.977926353380237"><ele>216.16666666666666</ele><time>2026-04-12T14:34:11Z</time></trkpt><trkpt lat="44.17863299027873" lon="9.977998654241025"><ele>213.0</ele><time>2026-04-12T14:34:12Z</time></trkpt><trkpt lat="44.17858518919921" lon="9.978068353247377"><ele>213.0</ele><time>2026-04-12T14:34:13Z</time></trkpt><trkpt lat="44.17853416167061" lon="9.978136827798737"><ele>213.0</ele><time>2026-04-12T14:34:14Z</time></trkpt><trkpt lat="44.178471027960704" lon="9.978191651228569"><ele>213.0</ele><time>2026-04-12T14:34:15Z</time></trkpt><trkpt lat="44.17839118499262" lon="9.978223452289805"><ele>213.0</ele><time>2026-04-12T14:34:16Z</time></trkpt><trkpt lat="44.17831010643634" lon="9.978232336054896"><ele>213.0</ele><time>2026-04-12T14:34:17Z</time></trkpt><trkpt lat="44.17822874623194" lon="9.97821919311828"><ele>213.0</ele><time>2026-04-12T14:34:18Z</time></trkpt><trkpt lat="44.178154202122755" lon="9.978185969553312"><ele>212.5</ele><time>2026-04-12T14:34:19Z</time></trkpt><trkpt lat="44.17808639925542" lon="9.978142853209562"><ele>212.0</ele><time>2026-04-12T14:34:20Z</time></trkpt><trkpt lat="44.178022001954126" lon="9.978094860887424"><ele>211.5</ele><time>2026-04-12T14:34:21Z</time></trkpt><trkpt lat="44.17795864885054" lon="9.978064312229927"><ele>211.0</ele><time>2026-04-12T14:34:22Z</time></trkpt><trkpt lat="44.17784687911203" lon="9.978101863717303"><ele>210.5</ele><time>2026-04-12T14:34:24Z</time></trkpt><trkpt lat="44.17783953743578" lon="9.978248959978234"><ele>210.0</ele><time>2026-04-12T14:34:26Z</time></trkpt><trkpt lat="44.177864374056746" lon="9.978349467431638"><ele>209.33333333333334</ele><time>2026-04-12T14:34:28Z</time></trkpt><trkpt lat="44.177912983867074" lon="9.978498344051768"><ele>208.66666666666669</ele><time>2026-04-12T14:34:30Z</time></trkpt><trkpt lat="44.1779349911145" lon="9.978588194722056"><ele>208.0</ele><time>2026-04-12T14:34:31Z</time></trkpt><trkpt lat="44.177953050444934" lon="9.978688289904667"><ele>207.33333333333334</ele><time>2026-04-12T14:34:32Z</time></trkpt><trkpt lat="44.17796258635843" lon="9.978790799041091"><ele>206.66666666666669</ele><time>2026-04-12T14:34:33Z</time></trkpt><trkpt lat="44.17793510576462" lon="9.978889797422047"><ele>206.0</ele><time>2026-04-12T14:34:34Z</time></trkpt><trkpt lat="44.17795335705285" lon="9.979044070460375"><ele>206.0</ele><time>2026-04-12T14:34:36Z</time></trkpt><trkpt lat="44.178065807456825" lon="9.979111219074111"><ele>206.0</ele><time>2026-04-12T14:34:38Z</time></trkpt><trkpt lat="44.17817319612775" lon="9.979067357327827"><ele>206.0</ele><time>2026-04-12T14:34:40Z</time></trkpt><trkpt lat="44.178249583589604" lon="9.978930943982665"><ele>206.0</ele><time>2026-04-12T14:34:42Z</time></trkpt><trkpt lat="44.17827445422872" lon="9.978849589169958"><ele>206.0</ele><time>2026-04-12T14:34:43Z</time></trkpt><trkpt lat="44.17832826599903" lon="9.978777502716266"><ele>206.50000000000003</ele><time>2026-04-12T14:34:45Z</time></trkpt><trkpt lat="44.178367318731375" lon="9.978890826597281"><ele>207.0</ele><time>2026-04-12T14:34:48Z</time></trkpt><trkpt lat="44.17829595849604" lon="9.978987326710088"><ele>207.5</ele><time>2026-04-12T14:34:50Z</time></trkpt><trkpt lat="44.17823965409592" lon="9.979119417072845"><ele>208.0</ele><time>2026-04-12T14:34:52Z</time></trkpt><trkpt lat="44.178199590644454" lon="9.979199523387226"><ele>208.50000000000003</ele><time>2026-04-12T14:34:53Z</time></trkpt><trkpt lat="44.178147855103724" lon="9.979276077550406"><ele>209.0</ele><time>2026-04-12T14:34:54Z</time></trkpt><trkpt lat="44.178089300589704" lon="9.979327849495677"><ele>209.0</ele><time>2026-04-12T14:34:55Z</time></trkpt><trkpt lat="44.17802228577182" lon="9.97934467948018"><ele>209.0</ele><time>2026-04-12T14:34:56Z</time></trkpt><trkpt lat="44.17794142203836" lon="9.97935716724172"><ele>209.0</ele><time>2026-04-12T14:34:57Z</time></trkpt><trkpt lat="44.17785666068562" lon="9.97936542761866"><ele>209.0</ele><time>2026-04-12T14:34:58Z</time></trkpt><trkpt lat="44.177788939773556" lon="9.979376918467986"><ele>209.0</ele><time>2026-04-12T14:34:59Z</time></trkpt><trkpt lat="44.17773125942134" lon="9.979439044714452"><ele>209.0</ele><time>2026-04-12T14:35:01Z</time></trkpt><trkpt lat="44.17769058201427" lon="9.979507542507845"><ele>209.0</ele><time>2026-04-12T14:35:03Z</time></trkpt><trkpt lat="44.17767946919355" lon="9.979622823943647"><ele>209.0</ele><time>2026-04-12T14:35:05Z</time></trkpt><trkpt lat="44.17769621088884" lon="9.979722818738132"><ele>209.0</ele><time>2026-04-12T14:35:08Z</time></trkpt><trkpt lat="44.17774172323242" lon="9.979855500034207"><ele>209.0</ele><time>2026-04-12T14:35:11Z</time></trkpt><trkpt lat="44.17778780276625" lon="9.979984821923482"><ele>209.0</ele><time>2026-04-12T14:35:13Z</time></trkpt><trkpt lat="44.177786108709" lon="9.980150130945173"><ele>209.0</ele><time>2026-04-12T14:35:15Z</time></trkpt><trkpt lat="44.17778275118248" lon="9.980259629398969"><ele>208.71428571428572</ele><time>2026-04-12T14:35:16Z</time></trkpt><trkpt lat="44.17778869670174" lon="9.98037488389926"><ele>208.42857142857142</ele><time>2026-04-12T14:35:17Z</time></trkpt><trkpt lat="44.17781708982445" lon="9.980479028649782"><ele>208.14285714285717</ele><time>2026-04-12T14:35:18Z</time></trkpt><trkpt lat="44.17783253454776" lon="9.980567530271829"><ele>207.85714285714286</ele><time>2026-04-12T14:35:19Z</time></trkpt><trkpt lat="44.1778270418067" lon="9.980655482732596"><ele>207.57142857142858</ele><time>2026-04-12T14:35:20Z</time></trkpt><trkpt lat="44.17783314048331" lon="9.98074475820125"><ele>207.2857142857143</ele><time>2026-04-12T14:35:21Z</time></trkpt><trkpt lat="44.17783288043808" lon="9.980832804510536"><ele>207.0</ele><time>2026-04-12T14:35:22Z</time></trkpt><trkpt lat="44.177806939338204" lon="9.98100698105578"><ele>207.66666666666666</ele><time>2026-04-12T14:35:24Z</time></trkpt><trkpt lat="44.17778273238264" lon="9.981102810888611"><ele>208.33333333333331</ele><time>2026-04-12T14:35:25Z</time></trkpt><trkpt lat="44.177783826759345" lon="9.981206320353813"><ele>209.0</ele><time>2026-04-12T14:35:25.999Z</time></trkpt><trkpt lat="44.17778181166205" lon="9.981297769826785"><ele>209.66666666666666</ele><time>2026-04-12T14:35:26.999Z</time></trkpt><trkpt lat="44.17780002336724" lon="9.981453007361432"><ele>210.33333333333331</ele><time>2026-04-12T14:35:28.999Z</time></trkpt><trkpt lat="44.177858234620544" lon="9.981576604570247"><ele>211.0</ele><time>2026-04-12T14:35:30.999Z</time></trkpt><trkpt lat="44.17791836937603" lon="9.98162002383286"><ele>210.99999999999997</ele><time>2026-04-12T14:35:31.999Z</time></trkpt><trkpt lat="44.17799288696779" lon="9.981652092471037"><ele>211.0</ele><time>2026-04-12T14:35:32.999Z</time></trkpt><trkpt lat="44.178078530317684" lon="9.981685488107914"><ele>211.0</ele><time>2026-04-12T14:35:33.999Z</time></trkpt><trkpt lat="44.17814673683265" lon="9.981708226960123"><ele>211.0</ele><time>2026-04-12T14:35:34.999Z</time></trkpt><trkpt lat="44.17822548477595" lon="9.981738202078777"><ele>210.99999999999997</ele><time>2026-04-12T14:35:37.999Z</time></trkpt><trkpt lat="44.17828042212454" lon="9.981786009722311"><ele>211.0</ele><time>2026-04-12T14:35:43.999Z</time></trkpt><trkpt lat="44.17831268596329" lon="9.981887964115534"><ele>209.0</ele><time>2026-04-12T14:35:45.999Z</time></trkpt><trkpt lat="44.17826449108949" lon="9.981972954757433"><ele>207.0</ele><time>2026-04-12T14:35:46.999Z</time></trkpt><trkpt lat="44.17821882395991" lon="9.982072556573288"><ele>205.0</ele><time>2026-04-12T14:35:47.999Z</time></trkpt><trkpt lat="44.17817694555915" lon="9.982187071266623"><ele>203.0</ele><time>2026-04-12T14:35:48.999Z</time></trkpt><trkpt lat="44.17814710214545" lon="9.982321060025948"><ele>201.0</ele><time>2026-04-12T14:35:49.999Z</time></trkpt><trkpt lat="44.17813004656701" lon="9.98246077454356"><ele>207.0</ele><time>2026-04-12T14:35:50.999Z</time></trkpt><trkpt lat="44.17814261048789" lon="9.982594013939979"><ele>213.0</ele><time>2026-04-12T14:35:51.999Z</time></trkpt><trkpt lat="44.17813258086706" lon="9.982702336185259"><ele>219.0</ele><time>2026-04-12T14:35:52.999Z</time></trkpt><trkpt lat="44.17813098030633" lon="9.98284307893822"><ele>225.0</ele><time>2026-04-12T14:35:54.999Z</time></trkpt><trkpt lat="44.17811533953304" lon="9.982935533052952"><ele>231.0</ele><time>2026-04-12T14:36:29Z</time></trkpt><trkpt lat="44.178114792017226" lon="9.983027713130838"><ele>237.0</ele><time>2026-04-12T14:36:31Z</time></trkpt><trkpt lat="44.178117347840384" lon="9.983150785762652"><ele>237.0</ele><time>2026-04-12T14:36:33Z</time></trkpt><trkpt lat="44.17812113651455" lon="9.983294606995141"><ele>237.0</ele><time>2026-04-12T14:36:35Z</time></trkpt><trkpt lat="44.17811801028729" lon="9.983433433222261"><ele>237.0</ele><time>2026-04-12T14:36:37Z</time></trkpt><trkpt lat="44.17808164858878" lon="9.983571679351149"><ele>237.0</ele><time>2026-04-12T14:36:39Z</time></trkpt><trkpt lat="44.17806085313022" lon="9.98366122474095"><ele>237.0</ele><time>2026-04-12T14:36:40Z</time></trkpt><trkpt lat="44.17804596734904" lon="9.98375526674659"><ele>237.0</ele><time>2026-04-12T14:36:41Z</time></trkpt><trkpt lat="44.17803283581133" lon="9.983853762575777"><ele>238.5</ele><time>2026-04-12T14:36:42Z</time></trkpt><trkpt lat="44.17803535427592" lon="9.983964042009179"><ele>240.0</ele><time>2026-04-12T14:36:43Z</time></trkpt><trkpt lat="44.17804601288587" lon="9.984065698357561"><ele>241.5</ele><time>2026-04-12T14:36:44Z</time></trkpt><trkpt lat="44.178066878797615" lon="9.984161808612576"><ele>243.0</ele><time>2026-04-12T14:36:45Z</time></trkpt><trkpt lat="44.17809307623285" lon="9.984250008729116"><ele>244.5</ele><time>2026-04-12T14:36:46Z</time></trkpt><trkpt lat="44.17811578815631" lon="9.984415284964886"><ele>246.0</ele><time>2026-04-12T14:36:48Z</time></trkpt><trkpt lat="44.1781292201206" lon="9.984512258037308"><ele>247.33333333333334</ele><time>2026-04-12T14:36:49Z</time></trkpt><trkpt lat="44.1781561907287" lon="9.984609482033767"><ele>248.66666666666669</ele><time>2026-04-12T14:36:50Z</time></trkpt><trkpt lat="44.1782024339261" lon="9.98469423790074"><ele>250.0</ele><time>2026-04-12T14:36:51Z</time></trkpt><trkpt lat="44.17826211495568" lon="9.984757151846583"><ele>251.33333333333334</ele><time>2026-04-12T14:36:52Z</time></trkpt><trkpt lat="44.17834038692356" lon="9.984769299600021"><ele>252.66666666666669</ele><time>2026-04-12T14:36:53Z</time></trkpt><trkpt lat="44.17840681355626" lon="9.984777265672513"><ele>254.0</ele><time>2026-04-12T14:36:54Z</time></trkpt><trkpt lat="44.17852270556548" lon="9.984769606636085"><ele>248.79999999999998</ele><time>2026-04-12T14:36:56Z</time></trkpt><trkpt lat="44.17862317463227" lon="9.98478939783235"><ele>243.59999999999997</ele><time>2026-04-12T14:36:58Z</time></trkpt><trkpt lat="44.17871997353648" lon="9.984823494021798"><ele>238.4</ele><time>2026-04-12T14:37:00Z</time></trkpt><trkpt lat="44.17881838196495" lon="9.984865022781118"><ele>233.2</ele><time>2026-04-12T14:37:02Z</time></trkpt><trkpt lat="44.178924087540885" lon="9.98493989757899"><ele>228.0</ele><time>2026-04-12T14:37:04Z</time></trkpt><trkpt lat="44.17904085434097" lon="9.984985221013671"><ele>226.2</ele><time>2026-04-12T14:37:06Z</time></trkpt><trkpt lat="44.17916551617375" lon="9.985000402825332"><ele>224.4</ele><time>2026-04-12T14:37:08Z</time></trkpt><trkpt lat="44.17923603790903" lon="9.984995947973708"><ele>222.59999999999997</ele><time>2026-04-12T14:37:09Z</time></trkpt><trkpt lat="44.1793074260751" lon="9.98499110840228"><ele>220.79999999999998</ele><time>2026-04-12T14:37:10Z</time></trkpt><trkpt lat="44.179374205187656" lon="9.985000182329742"><ele>219.0</ele><time>2026-04-12T14:37:11Z</time></trkpt><trkpt lat="44.17947650710156" lon="9.985094450584226"><ele>221.57142857142858</ele><time>2026-04-12T14:37:13Z</time></trkpt><trkpt lat="44.17950451304112" lon="9.985176483746894"><ele>224.1428571428571</ele><time>2026-04-12T14:37:14Z</time></trkpt><trkpt lat="44.17951053397442" lon="9.98527810850768"><ele>226.7142857142857</ele><time>2026-04-12T14:37:15Z</time></trkpt><trkpt lat="44.179533953930395" lon="9.985364449461127"><ele>229.28571428571428</ele><time>2026-04-12T14:37:16Z</time></trkpt><trkpt lat="44.179588046059905" lon="9.985428485808672"><ele>231.85714285714283</ele><time>2026-04-12T14:37:17Z</time></trkpt><trkpt lat="44.17965003407875" lon="9.985473665353918"><ele>234.4285714285714</ele><time>2026-04-12T14:37:18Z</time></trkpt><trkpt lat="44.17972685488907" lon="9.985481741701602"><ele>236.99999999999997</ele><time>2026-04-12T14:37:19Z</time></trkpt><trkpt lat="44.1798074245994" lon="9.985483266487746"><ele>235.0</ele><time>2026-04-12T14:37:20Z</time></trkpt><trkpt lat="44.179887047057534" lon="9.985491722462136"><ele>233.0</ele><time>2026-04-12T14:37:21Z</time></trkpt><trkpt lat="44.1799617600444" lon="9.985522748999411"><ele>231.0</ele><time>2026-04-12T14:37:22Z</time></trkpt><trkpt lat="44.18004636895226" lon="9.9855745576892"><ele>229.0</ele><time>2026-04-12T14:37:23Z</time></trkpt><trkpt lat="44.18012461680568" lon="9.985663824621543"><ele>227.0</ele><time>2026-04-12T14:37:24Z</time></trkpt><trkpt lat="44.180211179639784" lon="9.985732110497903"><ele>227.00000000000003</ele><time>2026-04-12T14:37:25Z</time></trkpt><trkpt lat="44.18029806821451" lon="9.985774407916614"><ele>227.0</ele><time>2026-04-12T14:37:26Z</time></trkpt><trkpt lat="44.18036409498987" lon="9.985828539189658"><ele>227.0</ele><time>2026-04-12T14:37:26.999Z</time></trkpt><trkpt lat="44.180417857292845" lon="9.985902279456843"><ele>227.0</ele><time>2026-04-12T14:37:27.999Z</time></trkpt><trkpt lat="44.18044780234565" lon="9.98599073230787"><ele>227.00000000000003</ele><time>2026-04-12T14:37:28.999Z</time></trkpt><trkpt lat="44.180449913548884" lon="9.986149731203962"><ele>227.0</ele><time>2026-04-12T14:37:30.999Z</time></trkpt><trkpt lat="44.180443852266585" lon="9.986246272528438"><ele>227.2</ele><time>2026-04-12T14:37:32.999Z</time></trkpt><trkpt lat="44.18042225129126" lon="9.986359716556885"><ele>227.39999999999998</ele><time>2026-04-12T14:37:37.999Z</time></trkpt><trkpt lat="44.18050119167104" lon="9.986461928766941"><ele>227.60000000000002</ele><time>2026-04-12T14:37:40.999Z</time></trkpt><trkpt lat="44.18056692573632" lon="9.986550253648314"><ele>227.8</ele><time>2026-04-12T14:37:42.999Z</time></trkpt><trkpt lat="44.18065615618552" lon="9.986660071268282"><ele>228.0</ele><time>2026-04-12T14:37:44.999Z</time></trkpt><trkpt lat="44.180701034562965" lon="9.986726472220155"><ele>225.7142857142857</ele><time>2026-04-12T14:37:45.999Z</time></trkpt><trkpt lat="44.180745639160875" lon="9.986794416395783"><ele>223.4285714285714</ele><time>2026-04-12T14:37:46.999Z</time></trkpt><trkpt lat="44.18079423577373" lon="9.986852137157289"><ele>221.14285714285714</ele><time>2026-04-12T14:37:47.999Z</time></trkpt><trkpt lat="44.18085097582951" lon="9.986906501555069"><ele>218.85714285714283</ele><time>2026-04-12T14:37:48.999Z</time></trkpt><trkpt lat="44.18091167141053" lon="9.986956520012376"><ele>216.57142857142856</ele><time>2026-04-12T14:37:49.999Z</time></trkpt><trkpt lat="44.1809719909977" lon="9.987001029500464"><ele>214.28571428571428</ele><time>2026-04-12T14:37:50.999Z</time></trkpt><trkpt lat="44.18104711792588" lon="9.987031445998316"><ele>212.0</ele><time>2026-04-12T14:37:51.999Z</time></trkpt><trkpt lat="44.181130998703786" lon="9.987049264098685"><ele>212.00000000000003</ele><time>2026-04-12T14:37:52.999Z</time></trkpt><trkpt lat="44.18122286853376" lon="9.98706258572659"><ele>212.0</ele><time>2026-04-12T14:37:53.999Z</time></trkpt><trkpt lat="44.1813079044994" lon="9.987073181312166"><ele>212.0</ele><time>2026-04-12T14:37:54.999Z</time></trkpt><trkpt lat="44.181390844233334" lon="9.98708936032241"><ele>212.0</ele><time>2026-04-12T14:37:55.999Z</time></trkpt><trkpt lat="44.18147592961403" lon="9.987112478407726"><ele>212.00000000000003</ele><time>2026-04-12T14:37:56.999Z</time></trkpt><trkpt lat="44.18155583578203" lon="9.987143944429327"><ele>212.0</ele><time>2026-04-12T14:37:57.999Z</time></trkpt><trkpt lat="44.181618948727085" lon="9.98718331076571"><ele>211.39999999999998</ele><time>2026-04-12T14:37:58.999Z</time></trkpt><trkpt lat="44.181715736971825" lon="9.987261475294373"><ele>210.79999999999998</ele><time>2026-04-12T14:38:00.999Z</time></trkpt><trkpt lat="44.181782945470744" lon="9.987338853184212"><ele>210.2</ele><time>2026-04-12T14:38:02.999Z</time></trkpt><trkpt lat="44.18185301246596" lon="9.987427476238999"><ele>209.6</ele><time>2026-04-12T14:38:04.999Z</time></trkpt><trkpt lat="44.18193736816755" lon="9.987516338594123"><ele>209.0</ele><time>2026-04-12T14:38:06.999Z</time></trkpt><trkpt lat="44.182027110097984" lon="9.987617274015296"><ele>208.33333333333334</ele><time>2026-04-12T14:38:08.999Z</time></trkpt><trkpt lat="44.18211409318331" lon="9.987697996336093"><ele>207.66666666666669</ele><time>2026-04-12T14:38:11Z</time></trkpt><trkpt lat="44.18218421605443" lon="9.987739937735673"><ele>207.0</ele><time>2026-04-12T14:38:13Z</time></trkpt><trkpt lat="44.182263505030654" lon="9.987782994172374"><ele>206.33333333333331</ele><time>2026-04-12T14:38:16Z</time></trkpt><trkpt lat="44.18232479195941" lon="9.987814554312227"><ele>205.66666666666666</ele><time>2026-04-12T14:38:19Z</time></trkpt><trkpt lat="44.182404184951885" lon="9.987851702117077"><ele>205.0</ele><time>2026-04-12T14:38:22Z</time></trkpt><trkpt lat="44.18247803165829" lon="9.987889328949665"><ele>205.0</ele><time>2026-04-12T14:38:24Z</time></trkpt><trkpt lat="44.18256155714898" lon="9.987932509794666"><ele>205.0</ele><time>2026-04-12T14:38:26Z</time></trkpt><trkpt lat="44.18264346846871" lon="9.987988677474442"><ele>205.0</ele><time>2026-04-12T14:38:28Z</time></trkpt><trkpt lat="44.18272171724495" lon="9.988061948136618"><ele>205.0</ele><time>2026-04-12T14:38:30Z</time></trkpt><trkpt lat="44.18280389791876" lon="9.988160281865051"><ele>205.0</ele><time>2026-04-12T14:38:32Z</time></trkpt><trkpt lat="44.18289477182496" lon="9.988270646703267"><ele>205.0</ele><time>2026-04-12T14:38:34Z</time></trkpt><trkpt lat="44.18294057428984" lon="9.988332130629543"><ele>205.0</ele><time>2026-04-12T14:38:35Z</time></trkpt><trkpt lat="44.18299039014464" lon="9.988401823772373"><ele>205.0</ele><time>2026-04-12T14:38:36Z</time></trkpt><trkpt lat="44.183035841594105" lon="9.988472422864229"><ele>205.0</ele><time>2026-04-12T14:38:37Z</time></trkpt><trkpt lat="44.1831209411904" lon="9.988594888785126"><ele>205.0</ele><time>2026-04-12T14:38:39Z</time></trkpt><trkpt lat="44.18320138498033" lon="9.988731927730317"><ele>203.8</ele><time>2026-04-12T14:38:41Z</time></trkpt><trkpt lat="44.18326776667444" lon="9.988864558120348"><ele>202.6</ele><time>2026-04-12T14:38:43Z</time></trkpt><trkpt lat="44.183310147986234" lon="9.988993672971144"><ele>201.39999999999998</ele><time>2026-04-12T14:38:45Z</time></trkpt><trkpt lat="44.18333797828035" lon="9.989122517187017"><ele>200.2</ele><time>2026-04-12T14:38:47Z</time></trkpt><trkpt lat="44.18336495826588" lon="9.989255594411466"><ele>199.0</ele><time>2026-04-12T14:38:49Z</time></trkpt><trkpt lat="44.18339780399425" lon="9.989403955267202"><ele>197.6</ele><time>2026-04-12T14:38:51Z</time></trkpt><trkpt lat="44.18343742525214" lon="9.989548395800988"><ele>196.2</ele><time>2026-04-12T14:38:53Z</time></trkpt><trkpt lat="44.1834728683959" lon="9.989678568499402"><ele>194.79999999999998</ele><time>2026-04-12T14:38:55Z</time></trkpt><trkpt lat="44.183498856079545" lon="9.989797511508607"><ele>193.39999999999998</ele><time>2026-04-12T14:38:57Z</time></trkpt><trkpt lat="44.183496447806206" lon="9.989914576475622"><ele>192.0</ele><time>2026-04-12T14:38:59Z</time></trkpt><trkpt lat="44.18344185783087" lon="9.990017661760758"><ele>190.33333333333334</ele><time>2026-04-12T14:39:01Z</time></trkpt><trkpt lat="44.1833957212233" lon="9.99010308828984"><ele>188.66666666666666</ele><time>2026-04-12T14:39:03Z</time></trkpt><trkpt lat="44.18338191447148" lon="9.990195270419036"><ele>187.0</ele><time>2026-04-12T14:39:05Z</time></trkpt><trkpt lat="44.18338369697445" lon="9.990330287277533"><ele>185.33333333333331</ele><time>2026-04-12T14:39:08Z</time></trkpt><trkpt lat="44.18339513832045" lon="9.99043080898967"><ele>183.66666666666666</ele><time>2026-04-12T14:39:10Z</time></trkpt><trkpt lat="44.18339736802554" lon="9.99052888628938"><ele>182.0</ele><time>2026-04-12T14:39:12Z</time></trkpt><trkpt lat="44.183431529237964" lon="9.990624657662748"><ele>182.0</ele><time>2026-04-12T14:39:14Z</time></trkpt><trkpt lat="44.18345040946067" lon="9.99073151782985"><ele>182.0</ele><time>2026-04-12T14:39:16Z</time></trkpt><trkpt lat="44.183478516626224" lon="9.99084563498554"><ele>182.0</ele><time>2026-04-12T14:39:18Z</time></trkpt><trkpt lat="44.18351485870365" lon="9.990975841889268"><ele>182.0</ele><time>2026-04-12T14:39:20Z</time></trkpt><trkpt lat="44.18358337094609" lon="9.991092107129594"><ele>182.0</ele><time>2026-04-12T14:39:22Z</time></trkpt><trkpt lat="44.183684797620536" lon="9.991175074771125"><ele>180.0</ele><time>2026-04-12T14:39:24Z</time></trkpt><trkpt lat="44.18374005087871" lon="9.991218396748742"><ele>178.0</ele><time>2026-04-12T14:39:25Z</time></trkpt><trkpt lat="44.18383901034897" lon="9.99131668913141"><ele>176.0</ele><time>2026-04-12T14:39:27Z</time></trkpt><trkpt lat="44.18392154836133" lon="9.991445811645526"><ele>174.0</ele><time>2026-04-12T14:39:29Z</time></trkpt><trkpt lat="44.18395873775739" lon="9.991522850246023"><ele>172.0</ele><time>2026-04-12T14:39:30Z</time></trkpt><trkpt lat="44.183998019626976" lon="9.991606670508554"><ele>170.0</ele><time>2026-04-12T14:39:31Z</time></trkpt><trkpt lat="44.184044420556376" lon="9.991693635746072"><ele>169.83333333333331</ele><time>2026-04-12T14:39:32Z</time></trkpt><trkpt lat="44.18409344748208" lon="9.991783258748674"><ele>169.66666666666666</ele><time>2026-04-12T14:39:32.999Z</time></trkpt><trkpt lat="44.184134274665226" lon="9.991867585723334"><ele>169.5</ele><time>2026-04-12T14:39:33.999Z</time></trkpt><trkpt lat="44.1841713866089" lon="9.991943854284221"><ele>169.33333333333334</ele><time>2026-04-12T14:39:34.999Z</time></trkpt><trkpt lat="44.18424569151562" lon="9.992086957102337"><ele>169.16666666666669</ele><time>2026-04-12T14:39:36.999Z</time></trkpt><trkpt lat="44.18428503677652" lon="9.992159805345345"><ele>169.0</ele><time>2026-04-12T14:39:37.999Z</time></trkpt><trkpt lat="44.184333859434034" lon="9.99224060123677"><ele>169.0</ele><time>2026-04-12T14:39:38.999Z</time></trkpt><trkpt lat="44.1843868313063" lon="9.992326870897067"><ele>169.0</ele><time>2026-04-12T14:39:39.999Z</time></trkpt><trkpt lat="44.18444200693426" lon="9.992417121452839"><ele>169.0</ele><time>2026-04-12T14:39:40.999Z</time></trkpt><trkpt lat="44.184498842958135" lon="9.992508928603916"><ele>169.0</ele><time>2026-04-12T14:39:41.999Z</time></trkpt><trkpt lat="44.18455180082166" lon="9.992592486013779"><ele>169.0</ele><time>2026-04-12T14:39:42.999Z</time></trkpt><trkpt lat="44.18459995006607" lon="9.992672249259519"><ele>169.0</ele><time>2026-04-12T14:39:43.999Z</time></trkpt><trkpt lat="44.18464668741977" lon="9.992751379968594"><ele>169.66666666666669</ele><time>2026-04-12T14:39:44.999Z</time></trkpt><trkpt lat="44.18469435058844" lon="9.992818476262071"><ele>170.33333333333334</ele><time>2026-04-12T14:39:45.999Z</time></trkpt><trkpt lat="44.18473858415353" lon="9.992882709736815"><ele>171.0</ele><time>2026-04-12T14:39:46.999Z</time></trkpt><trkpt lat="44.1848104190057" lon="9.993017503318923"><ele>171.66666666666666</ele><time>2026-04-12T14:39:48.999Z</time></trkpt><trkpt lat="44.18484405268422" lon="9.993099492738153"><ele>172.33333333333331</ele><time>2026-04-12T14:39:49.999Z</time></trkpt><trkpt lat="44.18487660631626" lon="9.99319029259115"><ele>173.0</ele><time>2026-04-12T14:39:50.999Z</time></trkpt><trkpt lat="44.18490575043049" lon="9.99328546579471"><ele>171.60000000000002</ele><time>2026-04-12T14:39:51.999Z</time></trkpt><trkpt lat="44.184927040158314" lon="9.993370074233312"><ele>170.20000000000002</ele><time>2026-04-12T14:39:52.999Z</time></trkpt><trkpt lat="44.18498202621515" lon="9.99352413072326"><ele>168.8</ele><time>2026-04-12T14:39:54.999Z</time></trkpt><trkpt lat="44.185038613986755" lon="9.993667149692035"><ele>167.4</ele><time>2026-04-12T14:39:56.999Z</time></trkpt><trkpt lat="44.18510962613557" lon="9.993790248408333"><ele>166.0</ele><time>2026-04-12T14:39:58.999Z</time></trkpt><trkpt lat="44.18517309477166" lon="9.993884694111996"><ele>166.0</ele><time>2026-04-12T14:40:00.999Z</time></trkpt><trkpt lat="44.18523185476276" lon="9.993979017108702"><ele>166.0</ele><time>2026-04-12T14:40:02.999Z</time></trkpt><trkpt lat="44.18529951220622" lon="9.99410014175527"><ele>166.0</ele><time>2026-04-12T14:40:04.999Z</time></trkpt><trkpt lat="44.185361924551906" lon="9.994247126691707"><ele>166.0</ele><time>2026-04-12T14:40:06.999Z</time></trkpt><trkpt lat="44.185415484913925" lon="9.99437396665558"><ele>166.0</ele><time>2026-04-12T14:40:08.999Z</time></trkpt><trkpt lat="44.185457105072935" lon="9.994493560864559"><ele>165.20000000000002</ele><time>2026-04-12T14:40:10.999Z</time></trkpt><trkpt lat="44.185504008602095" lon="9.994595261543948"><ele>164.4</ele><time>2026-04-12T14:40:12.999Z</time></trkpt><trkpt lat="44.185557837827346" lon="9.99470215393122"><ele>163.6</ele><time>2026-04-12T14:40:14.999Z</time></trkpt><trkpt lat="44.18562285876793" lon="9.994834367492695"><ele>162.8</ele><time>2026-04-12T14:40:17Z</time></trkpt><trkpt lat="44.185689102120605" lon="9.994971939068497"><ele>162.0</ele><time>2026-04-12T14:40:19Z</time></trkpt><trkpt lat="44.18577098186485" lon="9.995096232470736"><ele>160.2</ele><time>2026-04-12T14:40:21Z</time></trkpt><trkpt lat="44.18586482886749" lon="9.995208212614134"><ele>158.39999999999998</ele><time>2026-04-12T14:40:23Z</time></trkpt><trkpt lat="44.18595213883092" lon="9.995281138735011"><ele>156.60000000000002</ele><time>2026-04-12T14:40:25Z</time></trkpt><trkpt lat="44.186026341503855" lon="9.995330269310552"><ele>154.8</ele><time>2026-04-12T14:40:27Z</time></trkpt><trkpt lat="44.18611639186526" lon="9.995388202705469"><ele>153.0</ele><time>2026-04-12T14:40:29Z</time></trkpt><trkpt lat="44.18622222541643" lon="9.99544587202812"><ele>153.0</ele><time>2026-04-12T14:40:31Z</time></trkpt><trkpt lat="44.18634151341229" lon="9.995495597802812"><ele>153.0</ele><time>2026-04-12T14:40:33Z</time></trkpt><trkpt lat="44.186459583719085" lon="9.995539226377629"><ele>153.0</ele><time>2026-04-12T14:40:35Z</time></trkpt><trkpt lat="44.18655708536986" lon="9.995600776801375"><ele>153.0</ele><time>2026-04-12T14:40:37Z</time></trkpt><trkpt lat="44.186658328755115" lon="9.995696134844566"><ele>154.0</ele><time>2026-04-12T14:40:39Z</time></trkpt><trkpt lat="44.18671612441772" lon="9.995745318289359"><ele>155.0</ele><time>2026-04-12T14:40:40Z</time></trkpt><trkpt lat="44.186772608652895" lon="9.995787674362054"><ele>156.0</ele><time>2026-04-12T14:40:41Z</time></trkpt><trkpt lat="44.18685545626516" lon="9.995888297933815"><ele>157.0</ele><time>2026-04-12T14:40:43Z</time></trkpt><trkpt lat="44.1869094772461" lon="9.996015549470325"><ele>158.0</ele><time>2026-04-12T14:40:45Z</time></trkpt><trkpt lat="44.18689843530084" lon="9.996114514983605"><ele>159.0</ele><time>2026-04-12T14:40:46Z</time></trkpt><trkpt lat="44.18691812975765" lon="9.996268828202039"><ele>157.0</ele><time>2026-04-12T14:40:48Z</time></trkpt><trkpt lat="44.18694866939942" lon="9.996352750791502"><ele>155.0</ele><time>2026-04-12T14:40:49Z</time></trkpt><trkpt lat="44.186991972434896" lon="9.996432996863089"><ele>153.0</ele><time>2026-04-12T14:40:50Z</time></trkpt><trkpt lat="44.18704286518947" lon="9.996514486960193"><ele>151.0</ele><time>2026-04-12T14:40:51Z</time></trkpt><trkpt lat="44.187101406528996" lon="9.996596962868106"><ele>149.0</ele><time>2026-04-12T14:40:52Z</time></trkpt><trkpt lat="44.18715950790589" lon="9.996678092712463"><ele>147.0</ele><time>2026-04-12T14:40:53Z</time></trkpt><trkpt lat="44.18720575070519" lon="9.996758021136909"><ele>146.0</ele><time>2026-04-12T14:40:54Z</time></trkpt><trkpt lat="44.18723375800721" lon="9.996846096707054"><ele>145.0</ele><time>2026-04-12T14:40:55Z</time></trkpt><trkpt lat="44.18723399485369" lon="9.99693612913829"><ele>144.0</ele><time>2026-04-12T14:40:56Z</time></trkpt><trkpt lat="44.18721349285384" lon="9.997029746731124"><ele>143.0</ele><time>2026-04-12T14:40:57Z</time></trkpt><trkpt lat="44.18717633630262" lon="9.997121869142584"><ele>142.0</ele><time>2026-04-12T14:40:58Z</time></trkpt><trkpt lat="44.18713319016776" lon="9.997213730489532"><ele>141.0</ele><time>2026-04-12T14:40:59Z</time></trkpt><trkpt lat="44.18709327571134" lon="9.997313035552123"><ele>140.0</ele><time>2026-04-12T14:41:00Z</time></trkpt><trkpt lat="44.1870631367981" lon="9.99741024019595"><ele>138.83333333333331</ele><time>2026-04-12T14:41:01Z</time></trkpt><trkpt lat="44.18704861658301" lon="9.99751527345911"><ele>137.66666666666666</ele><time>2026-04-12T14:41:02Z</time></trkpt><trkpt lat="44.18703869488987" lon="9.997630124924443"><ele>136.5</ele><time>2026-04-12T14:41:03Z</time></trkpt><trkpt lat="44.187041141469976" lon="9.99775041039397"><ele>135.33333333333334</ele><time>2026-04-12T14:41:04Z</time></trkpt><trkpt lat="44.187052243319826" lon="9.997862965953514"><ele>134.16666666666669</ele><time>2026-04-12T14:41:05Z</time></trkpt><trkpt lat="44.18707135902647" lon="9.997969461489495"><ele>133.0</ele><time>2026-04-12T14:41:06Z</time></trkpt><trkpt lat="44.18710398956706" lon="9.99806571095325"><ele>133.0</ele><time>2026-04-12T14:41:07Z</time></trkpt><trkpt lat="44.18714851223097" lon="9.998146046986927"><ele>133.0</ele><time>2026-04-12T14:41:08Z</time></trkpt><trkpt lat="44.187208284361425" lon="9.998206871526396"><ele>133.0</ele><time>2026-04-12T14:41:09Z</time></trkpt><trkpt lat="44.18728176952998" lon="9.998263615865362"><ele>133.0</ele><time>2026-04-12T14:41:10Z</time></trkpt><trkpt lat="44.18735756057343" lon="9.998345547968484"><ele>133.0</ele><time>2026-04-12T14:41:11Z</time></trkpt><trkpt lat="44.18742593542191" lon="9.998448619300486"><ele>133.0</ele><time>2026-04-12T14:41:12Z</time></trkpt><trkpt lat="44.18748149705778" lon="9.998550929962644"><ele>133.33333333333334</ele><time>2026-04-12T14:41:13Z</time></trkpt><trkpt lat="44.1875205112874" lon="9.998658688035825"><ele>133.66666666666669</ele><time>2026-04-12T14:41:14Z</time></trkpt><trkpt lat="44.18753488407195" lon="9.99876789759105"><ele>134.0</ele><time>2026-04-12T14:41:15Z</time></trkpt><trkpt lat="44.18756941883961" lon="9.998893655914822"><ele>134.33333333333334</ele><time>2026-04-12T14:41:17Z</time></trkpt><trkpt lat="44.18766177336267" lon="9.998925832205465"><ele>134.66666666666666</ele><time>2026-04-12T14:41:19Z</time></trkpt><trkpt lat="44.187716859993834" lon="9.998882248295594"><ele>135.0</ele><time>2026-04-12T14:41:20Z</time></trkpt><trkpt lat="44.18777845736712" lon="9.998818632635372"><ele>135.0</ele><time>2026-04-12T14:41:20.999Z</time></trkpt><trkpt lat="44.187844366406985" lon="9.998746466745017"><ele>135.0</ele><time>2026-04-12T14:41:21.999Z</time></trkpt><trkpt lat="44.187914595464676" lon="9.998699442359522"><ele>135.0</ele><time>2026-04-12T14:41:22.999Z</time></trkpt><trkpt lat="44.187980125991565" lon="9.998681425489213"><ele>135.0</ele><time>2026-04-12T14:41:23.999Z</time></trkpt><trkpt lat="44.18809496128411" lon="9.998752577108315"><ele>135.0</ele><time>2026-04-12T14:41:25.999Z</time></trkpt><trkpt lat="44.18813562329256" lon="9.998832711553916"><ele>135.0</ele><time>2026-04-12T14:41:26.999Z</time></trkpt><trkpt lat="44.18815768830587" lon="9.998923901965522"><ele>135.0</ele><time>2026-04-12T14:41:27.999Z</time></trkpt><trkpt lat="44.18816788701667" lon="9.999033285412901"><ele>135.0</ele><time>2026-04-12T14:41:28.999Z</time></trkpt><trkpt lat="44.18817221349652" lon="9.999146173210418"><ele>135.0</ele><time>2026-04-12T14:41:29.999Z</time></trkpt><trkpt lat="44.188167342945256" lon="9.999262245836317"><ele>135.0</ele><time>2026-04-12T14:41:30.999Z</time></trkpt><trkpt lat="44.18816003776748" lon="9.999366147833301"><ele>135.0</ele><time>2026-04-12T14:41:31.999Z</time></trkpt><trkpt lat="44.188164804606274" lon="9.999467574611161"><ele>135.0</ele><time>2026-04-12T14:41:32.999Z</time></trkpt><trkpt lat="44.188181913239475" lon="9.999572471600692"><ele>136.14285714285714</ele><time>2026-04-12T14:41:33.999Z</time></trkpt><trkpt lat="44.188205463948655" lon="9.999673911128879"><ele>137.28571428571428</ele><time>2026-04-12T14:41:34.999Z</time></trkpt><trkpt lat="44.18821955319663" lon="9.999769363504907"><ele>138.42857142857142</ele><time>2026-04-12T14:41:35.999Z</time></trkpt><trkpt lat="44.18821075662192" lon="9.999864090870913"><ele>139.57142857142856</ele><time>2026-04-12T14:41:36.999Z</time></trkpt><trkpt lat="44.18818243279301" lon="9.999956572191257"><ele>140.71428571428572</ele><time>2026-04-12T14:41:37.999Z</time></trkpt><trkpt lat="44.18814072930332" lon="10.00003731625295"><ele>141.85714285714283</ele><time>2026-04-12T14:41:38.999Z</time></trkpt><trkpt lat="44.188103480291595" lon="10.000129601164074"><ele>143.0</ele><time>2026-04-12T14:41:39.999Z</time></trkpt><trkpt lat="44.188079067840405" lon="10.00022275986851"><ele>139.7142857142857</ele><time>2026-04-12T14:41:40.999Z</time></trkpt><trkpt lat="44.18806412714539" lon="10.000322984626925"><ele>136.42857142857142</ele><time>2026-04-12T14:41:41.999Z</time></trkpt><trkpt lat="44.18805888906711" lon="10.000430268458617"><ele>133.14285714285714</ele><time>2026-04-12T14:41:42.999Z</time></trkpt><trkpt lat="44.18806503070529" lon="10.000542104713796"><ele>129.85714285714283</ele><time>2026-04-12T14:41:43.999Z</time></trkpt><trkpt lat="44.18808632634089" lon="10.000646114949287"><ele>126.57142857142856</ele><time>2026-04-12T14:41:44.999Z</time></trkpt><trkpt lat="44.18811827067277" lon="10.000734827878409"><ele>123.28571428571429</ele><time>2026-04-12T14:41:45.999Z</time></trkpt><trkpt lat="44.18815102648426" lon="10.000816447723826"><ele>120.0</ele><time>2026-04-12T14:41:46.999Z</time></trkpt><trkpt lat="44.18816586144455" lon="10.000902395167891"><ele>122.4</ele><time>2026-04-12T14:41:47.999Z</time></trkpt><trkpt lat="44.18819766471563" lon="10.00103563261851"><ele>124.8</ele><time>2026-04-12T14:41:49.999Z</time></trkpt><trkpt lat="44.188143180312196" lon="10.001179040324415"><ele>127.19999999999999</ele><time>2026-04-12T14:41:51.999Z</time></trkpt><trkpt lat="44.18810004594208" lon="10.001334950859864"><ele>129.6</ele><time>2026-04-12T14:41:53.999Z</time></trkpt><trkpt lat="44.188106899110984" lon="10.001486063891631"><ele>132.0</ele><time>2026-04-12T14:41:55.999Z</time></trkpt><trkpt lat="44.18814686342972" lon="10.001555600623504"><ele>132.0</ele><time>2026-04-12T14:41:56.999Z</time></trkpt><trkpt lat="44.18819461777821" lon="10.001632893596906"><ele>132.0</ele><time>2026-04-12T14:41:57.999Z</time></trkpt><trkpt lat="44.188243135089486" lon="10.00171777493199"><ele>132.0</ele><time>2026-04-12T14:41:58.999Z</time></trkpt><trkpt lat="44.188295633620804" lon="10.001784652378893"><ele>132.0</ele><time>2026-04-12T14:41:59.999Z</time></trkpt><trkpt lat="44.18834968212901" lon="10.001841709535814"><ele>132.0</ele><time>2026-04-12T14:42:00.999Z</time></trkpt><trkpt lat="44.18840925132649" lon="10.001891131977366"><ele>132.0</ele><time>2026-04-12T14:42:01.999Z</time></trkpt><trkpt lat="44.18846816235945" lon="10.001932528161198"><ele>132.0</ele><time>2026-04-12T14:42:02.999Z</time></trkpt><trkpt lat="44.18856716931708" lon="10.001909738752216"><ele>129.0</ele><time>2026-04-12T14:42:04.999Z</time></trkpt><trkpt lat="44.18864756536923" lon="10.001796678297046"><ele>125.99999999999999</ele><time>2026-04-12T14:42:06.999Z</time></trkpt><trkpt lat="44.18873218365896" lon="10.001770158505714"><ele>122.99999999999999</ele><time>2026-04-12T14:42:08.999Z</time></trkpt><trkpt lat="44.18878141881022" lon="10.00191023860635"><ele>120.0</ele><time>2026-04-12T14:42:10.999Z</time></trkpt><trkpt lat="44.18882597896893" lon="10.001989483128213"><ele>117.0</ele><time>2026-04-12T14:42:11.999Z</time></trkpt><trkpt lat="44.18885810282637" lon="10.002084362753607"><ele>117.0</ele><time>2026-04-12T14:42:12.999Z</time></trkpt><trkpt lat="44.18888526852594" lon="10.002193583903248"><ele>116.99999999999999</ele><time>2026-04-12T14:42:13.999Z</time></trkpt><trkpt lat="44.18891131397506" lon="10.00228271522591"><ele>116.99999999999999</ele><time>2026-04-12T14:42:14.999Z</time></trkpt><trkpt lat="44.189002708994394" lon="10.00238354372414"><ele>117.0</ele><time>2026-04-12T14:42:16.999Z</time></trkpt><trkpt lat="44.189130164170294" lon="10.002371637264808"><ele>117.0</ele><time>2026-04-12T14:42:18.999Z</time></trkpt><trkpt lat="44.18919148167667" lon="10.002328102042089"><ele>117.57142857142858</ele><time>2026-04-12T14:42:19.999Z</time></trkpt><trkpt lat="44.1892430602607" lon="10.002255567749984"><ele>118.14285714285715</ele><time>2026-04-12T14:42:20.999Z</time></trkpt><trkpt lat="44.189276835628085" lon="10.00216557120185"><ele>118.71428571428572</ele><time>2026-04-12T14:42:21.999Z</time></trkpt><trkpt lat="44.18930970438644" lon="10.002077311710929"><ele>119.28571428571428</ele><time>2026-04-12T14:42:23Z</time></trkpt><trkpt lat="44.18931238282537" lon="10.001983797177969"><ele>119.85714285714285</ele><time>2026-04-12T14:42:24Z</time></trkpt><trkpt lat="44.189321647535955" lon="10.001884392499877"><ele>120.42857142857142</ele><time>2026-04-12T14:42:26Z</time></trkpt><trkpt lat="44.18940199595471" lon="10.001915924651133"><ele>121.0</ele><time>2026-04-12T14:42:29Z</time></trkpt><trkpt lat="44.1894155731459" lon="10.002108615446607"><ele>121.00000000000001</ele><time>2026-04-12T14:42:31Z</time></trkpt><trkpt lat="44.18943171360203" lon="10.002216599652137"><ele>121.0</ele><time>2026-04-12T14:42:32Z</time></trkpt><trkpt lat="44.18944943443764" lon="10.00234850748152"><ele>121.0</ele><time>2026-04-12T14:42:33Z</time></trkpt><trkpt lat="44.189469487325404" lon="10.002473645859801"><ele>121.0</ele><time>2026-04-12T14:42:34Z</time></trkpt><trkpt lat="44.18948470891183" lon="10.00258253588615"><ele>121.00000000000001</ele><time>2026-04-12T14:42:35Z</time></trkpt><trkpt lat="44.18948036913587" lon="10.002698231620693"><ele>121.0</ele><time>2026-04-12T14:42:36Z</time></trkpt><trkpt lat="44.18945767114126" lon="10.002816192374453"><ele>118.66666666666667</ele><time>2026-04-12T14:42:37Z</time></trkpt><trkpt lat="44.18939494411345" lon="10.002908780562976"><ele>116.33333333333334</ele><time>2026-04-12T14:42:38Z</time></trkpt><trkpt lat="44.189336661169236" lon="10.002995371094851"><ele>114.0</ele><time>2026-04-12T14:42:39Z</time></trkpt><trkpt lat="44.18928411926297" lon="10.003092836696537"><ele>111.66666666666666</ele><time>2026-04-12T14:42:40Z</time></trkpt><trkpt lat="44.1892016471403" lon="10.003103732411068"><ele>109.33333333333333</ele><time>2026-04-12T14:42:41Z</time></trkpt><trkpt lat="44.189118599837414" lon="10.003123429029765"><ele>107.0</ele><time>2026-04-12T14:42:42Z</time></trkpt><trkpt lat="44.18903273317341" lon="10.003123425415932"><ele>105.49999999999999</ele><time>2026-04-12T14:42:43Z</time></trkpt><trkpt lat="44.188944755164606" lon="10.00310767675374"><ele>104.0</ele><time>2026-04-12T14:42:44Z</time></trkpt><trkpt lat="44.18886188832213" lon="10.003062536034372"><ele>102.5</ele><time>2026-04-12T14:42:45Z</time></trkpt><trkpt lat="44.18877656698094" lon="10.003037989443216"><ele>101.0</ele><time>2026-04-12T14:42:46Z</time></trkpt><trkpt lat="44.18870321295709" lon="10.00302881361803"><ele>99.49999999999999</ele><time>2026-04-12T14:42:47Z</time></trkpt><trkpt lat="44.18862787630465" lon="10.003040087594325"><ele>98.0</ele><time>2026-04-12T14:42:48Z</time></trkpt><trkpt lat="44.1885625773242" lon="10.003065195157253"><ele>97.99999999999999</ele><time>2026-04-12T14:42:49Z</time></trkpt><trkpt lat="44.18845753900816" lon="10.003173479251583"><ele>98.0</ele><time>2026-04-12T14:42:51Z</time></trkpt><trkpt lat="44.18843019519472" lon="10.003265243133782"><ele>98.0</ele><time>2026-04-12T14:42:52Z</time></trkpt><trkpt lat="44.18843364610394" lon="10.003366672036785"><ele>98.0</ele><time>2026-04-12T14:42:53Z</time></trkpt><trkpt lat="44.188438835590006" lon="10.00346680175429"><ele>97.99999999999999</ele><time>2026-04-12T14:42:54Z</time></trkpt><trkpt lat="44.18845758863771" lon="10.003571352145908"><ele>98.0</ele><time>2026-04-12T14:42:55Z</time></trkpt><trkpt lat="44.18848721218296" lon="10.003676576035405"><ele>97.83333333333333</ele><time>2026-04-12T14:42:56Z</time></trkpt><trkpt lat="44.1885198992282" lon="10.003777968839021"><ele>97.66666666666666</ele><time>2026-04-12T14:42:57Z</time></trkpt><trkpt lat="44.18855448515267" lon="10.003875704048902"><ele>97.5</ele><time>2026-04-12T14:42:58Z</time></trkpt><trkpt lat="44.188591036192655" lon="10.003969563258375"><ele>97.33333333333334</ele><time>2026-04-12T14:42:59Z</time></trkpt><trkpt lat="44.18862853114894" lon="10.004063464827398"><ele>97.16666666666667</ele><time>2026-04-12T14:43:00Z</time></trkpt><trkpt lat="44.18866456488843" lon="10.004159314665038"><ele>97.0</ele><time>2026-04-12T14:43:01Z</time></trkpt><trkpt lat="44.188699160156375" lon="10.004258374335038"><ele>97.00000000000001</ele><time>2026-04-12T14:43:02Z</time></trkpt><trkpt lat="44.1887333233849" lon="10.004360082636572"><ele>97.0</ele><time>2026-04-12T14:43:03Z</time></trkpt><trkpt lat="44.188771077219265" lon="10.004466067626643"><ele>97.0</ele><time>2026-04-12T14:43:04Z</time></trkpt><trkpt lat="44.18880695896654" lon="10.004580790918974"><ele>97.0</ele><time>2026-04-12T14:43:05Z</time></trkpt><trkpt lat="44.18884193355965" lon="10.004693933610406"><ele>97.00000000000001</ele><time>2026-04-12T14:43:06Z</time></trkpt><trkpt lat="44.188873627794564" lon="10.004795842784517"><ele>97.0</ele><time>2026-04-12T14:43:07Z</time></trkpt><trkpt lat="44.188901816658344" lon="10.004890317945526"><ele>97.0</ele><time>2026-04-12T14:43:08Z</time></trkpt><trkpt lat="44.18892432028321" lon="10.004976591500341"><ele>97.0</ele><time>2026-04-12T14:43:09Z</time></trkpt><trkpt lat="44.188955253921236" lon="10.0051307078073"><ele>97.0</ele><time>2026-04-12T14:43:11Z</time></trkpt><trkpt lat="44.18897590599518" lon="10.005241270934397"><ele>97.0</ele><time>2026-04-12T14:43:13Z</time></trkpt><trkpt lat="44.18886633261975" lon="10.005387212080604"><ele>97.0</ele><time>2026-04-12T14:43:22Z</time></trkpt><trkpt lat="44.18878775847406" lon="10.005437619008774"><ele>97.33333333333334</ele><time>2026-04-12T14:43:24Z</time></trkpt><trkpt lat="44.18869228213131" lon="10.005499589405854"><ele>97.66666666666667</ele><time>2026-04-12T14:43:26Z</time></trkpt><trkpt lat="44.188590126251775" lon="10.00557872698507"><ele>98.0</ele><time>2026-04-12T14:43:28Z</time></trkpt><trkpt lat="44.18852774866083" lon="10.005603506744952"><ele>98.33333333333334</ele><time>2026-04-12T14:43:29Z</time></trkpt><trkpt lat="44.18847029927001" lon="10.0056491655727"><ele>98.66666666666667</ele><time>2026-04-12T14:43:30Z</time></trkpt><trkpt lat="44.18841031474491" lon="10.005700277747202"><ele>99.0</ele><time>2026-04-12T14:43:31Z</time></trkpt><trkpt lat="44.18835914166807" lon="10.005772564834555"><ele>99.0</ele><time>2026-04-12T14:43:32Z</time></trkpt><trkpt lat="44.18829099534291" lon="10.005809628626654"><ele>99.0</ele><time>2026-04-12T14:43:33Z</time></trkpt><trkpt lat="44.18822698344116" lon="10.005870016897381"><ele>99.0</ele><time>2026-04-12T14:43:34Z</time></trkpt><trkpt lat="44.18817351537897" lon="10.005948912445005"><ele>99.0</ele><time>2026-04-12T14:43:35Z</time></trkpt><trkpt lat="44.188099475662945" lon="10.005995936679378"><ele>99.0</ele><time>2026-04-12T14:43:36Z</time></trkpt><trkpt lat="44.18803620307841" lon="10.006065790871956"><ele>99.0</ele><time>2026-04-12T14:43:36.999Z</time></trkpt><trkpt lat="44.187974234829646" lon="10.006140918822876"><ele>99.0</ele><time>2026-04-12T14:43:37.999Z</time></trkpt><trkpt lat="44.18791906204354" lon="10.006222095975753"><ele>99.0</ele><time>2026-04-12T14:43:38.999Z</time></trkpt><trkpt lat="44.18787668439948" lon="10.006302452269336"><ele>99.0</ele><time>2026-04-12T14:43:39.999Z</time></trkpt><trkpt lat="44.187853839030986" lon="10.006396235455563"><ele>99.0</ele><time>2026-04-12T14:43:40.999Z</time></trkpt><trkpt lat="44.18780892312036" lon="10.006466644801234"><ele>99.0</ele><time>2026-04-12T14:43:41.999Z</time></trkpt><trkpt lat="44.18777608295998" lon="10.00655170154664"><ele>99.0</ele><time>2026-04-12T14:43:42.999Z</time></trkpt><trkpt lat="44.18774411173475" lon="10.006640058510813"><ele>99.0</ele><time>2026-04-12T14:43:43.999Z</time></trkpt><trkpt lat="44.18772250412847" lon="10.006746556009581"><ele>99.0</ele><time>2026-04-12T14:43:44.999Z</time></trkpt><trkpt lat="44.18768383549754" lon="10.006847046287094"><ele>99.0</ele><time>2026-04-12T14:43:45.999Z</time></trkpt><trkpt lat="44.18764230928175" lon="10.006949851128779"><ele>99.0</ele><time>2026-04-12T14:43:46.999Z</time></trkpt><trkpt lat="44.18760009742376" lon="10.00705752576858"><ele>99.0</ele><time>2026-04-12T14:43:47.999Z</time></trkpt><trkpt lat="44.18755500360276" lon="10.007166454672538"><ele>99.0</ele><time>2026-04-12T14:43:48.999Z</time></trkpt><trkpt lat="44.187507405019275" lon="10.00727217553895"><ele>99.0</ele><time>2026-04-12T14:43:49.999Z</time></trkpt><trkpt lat="44.18744052628852" lon="10.00735697078739"><ele>99.0</ele><time>2026-04-12T14:43:50.999Z</time></trkpt><trkpt lat="44.187384825624825" lon="10.007456221472411"><ele>99.0</ele><time>2026-04-12T14:43:51.999Z</time></trkpt><trkpt lat="44.18733178708679" lon="10.00755889173012"><ele>99.0</ele><time>2026-04-12T14:43:52.999Z</time></trkpt><trkpt lat="44.187279569487686" lon="10.007662085870479"><ele>99.0</ele><time>2026-04-12T14:43:53.999Z</time></trkpt><trkpt lat="44.18722700330912" lon="10.00776596888531"><ele>99.0</ele><time>2026-04-12T14:43:54.999Z</time></trkpt><trkpt lat="44.187173573345184" lon="10.00787155895734"><ele>100.83333333333333</ele><time>2026-04-12T14:43:55.999Z</time></trkpt><trkpt lat="44.18712067617864" lon="10.007977368984955"><ele>102.66666666666666</ele><time>2026-04-12T14:43:56.999Z</time></trkpt><trkpt lat="44.18708572621941" lon="10.008094409802421"><ele>104.5</ele><time>2026-04-12T14:43:57.999Z</time></trkpt><trkpt lat="44.18703896514436" lon="10.008172957904591"><ele>106.33333333333333</ele><time>2026-04-12T14:43:58.999Z</time></trkpt><trkpt lat="44.18699285032803" lon="10.008239740901384"><ele>108.16666666666666</ele><time>2026-04-12T14:43:59.999Z</time></trkpt><trkpt lat="44.186933198095524" lon="10.008289250777596"><ele>110.0</ele><time>2026-04-12T14:44:00.999Z</time></trkpt><trkpt lat="44.18686446457336" lon="10.008296160119272"><ele>109.99999999999999</ele><time>2026-04-12T14:44:01.999Z</time></trkpt><trkpt lat="44.18678969988395" lon="10.008321362886461"><ele>110.0</ele><time>2026-04-12T14:44:02.999Z</time></trkpt><trkpt lat="44.186707570707235" lon="10.00828400688593"><ele>110.0</ele><time>2026-04-12T14:44:03.999Z</time></trkpt><trkpt lat="44.18662124280606" lon="10.008270616544344"><ele>110.0</ele><time>2026-04-12T14:44:04.999Z</time></trkpt><trkpt lat="44.1865494825859" lon="10.008270810932855"><ele>109.99999999999999</ele><time>2026-04-12T14:44:05.999Z</time></trkpt><trkpt lat="44.18647797588768" lon="10.00831879750059"><ele>110.0</ele><time>2026-04-12T14:44:06.999Z</time></trkpt><trkpt lat="44.18643746132191" lon="10.00840520419331"><ele>109.16666666666666</ele><time>2026-04-12T14:44:07.999Z</time></trkpt><trkpt lat="44.186382060493045" lon="10.00845811993978"><ele>108.33333333333333</ele><time>2026-04-12T14:44:08.999Z</time></trkpt><trkpt lat="44.18634355471463" lon="10.00854478738278"><ele>107.5</ele><time>2026-04-12T14:44:09.999Z</time></trkpt><trkpt lat="44.18631434098732" lon="10.008645348121723"><ele>106.66666666666666</ele><time>2026-04-12T14:44:10.999Z</time></trkpt><trkpt lat="44.18629131389328" lon="10.008752949065755"><ele>105.83333333333333</ele><time>2026-04-12T14:44:11.999Z</time></trkpt><trkpt lat="44.18627431104296" lon="10.008877105685094"><ele>105.0</ele><time>2026-04-12T14:44:12.999Z</time></trkpt><trkpt lat="44.18626319591102" lon="10.00901496165306"><ele>105.0</ele><time>2026-04-12T14:44:13.999Z</time></trkpt><trkpt lat="44.18626471725153" lon="10.00915701558126"><ele>105.0</ele><time>2026-04-12T14:44:14.999Z</time></trkpt><trkpt lat="44.186244251560055" lon="10.009300108404675"><ele>105.0</ele><time>2026-04-12T14:44:15.999Z</time></trkpt><trkpt lat="44.18622534617377" lon="10.009426010596501"><ele>105.0</ele><time>2026-04-12T14:44:16.999Z</time></trkpt><trkpt lat="44.18621085585155" lon="10.009527891523103"><ele>105.0</ele><time>2026-04-12T14:44:17.999Z</time></trkpt><trkpt lat="44.18619728167346" lon="10.009621230432785"><ele>105.0</ele><time>2026-04-12T14:44:18.999Z</time></trkpt><trkpt lat="44.18618292249632" lon="10.009714784076841"><ele>105.0</ele><time>2026-04-12T14:44:19.999Z</time></trkpt><trkpt lat="44.186167222401664" lon="10.009810183912572"><ele>105.0</ele><time>2026-04-12T14:44:20.999Z</time></trkpt><trkpt lat="44.1861524879686" lon="10.009910123540044"><ele>105.0</ele><time>2026-04-12T14:44:21.999Z</time></trkpt><trkpt lat="44.186134313626056" lon="10.010015333512039"><ele>105.0</ele><time>2026-04-12T14:44:22.999Z</time></trkpt><trkpt lat="44.18611675408942" lon="10.010130757544587"><ele>105.0</ele><time>2026-04-12T14:44:23.999Z</time></trkpt><trkpt lat="44.186096734357555" lon="10.010253953377925"><ele>105.0</ele><time>2026-04-12T14:44:24.999Z</time></trkpt><trkpt lat="44.18607861434505" lon="10.010384766076996"><ele>105.0</ele><time>2026-04-12T14:44:25.999Z</time></trkpt><trkpt lat="44.18604003693118" lon="10.01050787099472"><ele>105.0</ele><time>2026-04-12T14:44:26.999Z</time></trkpt><trkpt lat="44.18601407055925" lon="10.010621303420272"><ele>105.0</ele><time>2026-04-12T14:44:27.999Z</time></trkpt><trkpt lat="44.18600051006047" lon="10.01073247774086"><ele>105.0</ele><time>2026-04-12T14:44:29Z</time></trkpt><trkpt lat="44.18596892702799" lon="10.010829333431548"><ele>105.0</ele><time>2026-04-12T14:44:30Z</time></trkpt><trkpt lat="44.185941927096394" lon="10.010920176221456"><ele>105.0</ele><time>2026-04-12T14:44:31Z</time></trkpt><trkpt lat="44.18590049648355" lon="10.010996233092914"><ele>105.0</ele><time>2026-04-12T14:44:32Z</time></trkpt><trkpt lat="44.18586522542747" lon="10.011088473620873"><ele>105.0</ele><time>2026-04-12T14:44:33Z</time></trkpt><trkpt lat="44.185813905014804" lon="10.011167097777982"><ele>105.0</ele><time>2026-04-12T14:44:34Z</time></trkpt><trkpt lat="44.18577076665201" lon="10.011269549847858"><ele>105.0</ele><time>2026-04-12T14:44:35Z</time></trkpt><trkpt lat="44.18573970424007" lon="10.011391367274003"><ele>105.0</ele><time>2026-04-12T14:44:36Z</time></trkpt><trkpt lat="44.18571626940944" lon="10.011521040906453"><ele>105.0</ele><time>2026-04-12T14:44:37Z</time></trkpt><trkpt lat="44.185694282301625" lon="10.011643911209294"><ele>105.83333333333333</ele><time>2026-04-12T14:44:38Z</time></trkpt><trkpt lat="44.185674696739504" lon="10.011767708634812"><ele>106.66666666666666</ele><time>2026-04-12T14:44:39Z</time></trkpt><trkpt lat="44.18566041041805" lon="10.011887863006558"><ele>107.5</ele><time>2026-04-12T14:44:40Z</time></trkpt><trkpt lat="44.18566873883435" lon="10.01201044254346"><ele>108.33333333333333</ele><time>2026-04-12T14:44:41Z</time></trkpt><trkpt lat="44.18566624780408" lon="10.012126953780678"><ele>109.16666666666666</ele><time>2026-04-12T14:44:42Z</time></trkpt><trkpt lat="44.18567047109621" lon="10.01224679507578"><ele>110.0</ele><time>2026-04-12T14:44:43Z</time></trkpt><trkpt lat="44.18567739413221" lon="10.012376132447875"><ele>108.2</ele><time>2026-04-12T14:44:44Z</time></trkpt><trkpt lat="44.18568853717124" lon="10.012517276268671"><ele>106.4</ele><time>2026-04-12T14:44:45Z</time></trkpt><trkpt lat="44.18569932938536" lon="10.012666911171909"><ele>104.6</ele><time>2026-04-12T14:44:46Z</time></trkpt><trkpt lat="44.18570914720752" lon="10.012817344475362"><ele>102.8</ele><time>2026-04-12T14:44:47Z</time></trkpt><trkpt lat="44.185719219292665" lon="10.01297066277407"><ele>101.0</ele><time>2026-04-12T14:44:48Z</time></trkpt><trkpt lat="44.185725433503066" lon="10.013119691837565"><ele>100.99999999999999</ele><time>2026-04-12T14:44:49Z</time></trkpt><trkpt lat="44.18573236688968" lon="10.0132568867567"><ele>101.0</ele><time>2026-04-12T14:44:50Z</time></trkpt><trkpt lat="44.18574271850436" lon="10.013369270539867"><ele>101.0</ele><time>2026-04-12T14:44:51Z</time></trkpt><trkpt lat="44.185764786023604" lon="10.013468971604313"><ele>101.0</ele><time>2026-04-12T14:44:52Z</time></trkpt><trkpt lat="44.18579828705538" lon="10.013549226790325"><ele>100.99999999999999</ele><time>2026-04-12T14:44:53Z</time></trkpt><trkpt lat="44.18585603032947" lon="10.013669273188322"><ele>101.0</ele><time>2026-04-12T14:44:55Z</time></trkpt><trkpt lat="44.18591770902574" lon="10.013819331058977"><ele>102.49999999999999</ele><time>2026-04-12T14:44:57Z</time></trkpt><trkpt lat="44.18598793712791" lon="10.013978528435906"><ele>104.0</ele><time>2026-04-12T14:44:59Z</time></trkpt><trkpt lat="44.186022777199575" lon="10.014062465538782"><ele>105.5</ele><time>2026-04-12T14:45:00Z</time></trkpt><trkpt lat="44.18605810445552" lon="10.01414649752052"><ele>107.0</ele><time>2026-04-12T14:45:01Z</time></trkpt><trkpt lat="44.18609686815559" lon="10.014229291840858"><ele>108.49999999999999</ele><time>2026-04-12T14:45:02Z</time></trkpt><trkpt lat="44.186133727467656" lon="10.014313398968305"><ele>110.0</ele><time>2026-04-12T14:45:03Z</time></trkpt><trkpt lat="44.18616472650491" lon="10.014399406339807"><ele>111.28571428571428</ele><time>2026-04-12T14:45:04Z</time></trkpt><trkpt lat="44.18618194674017" lon="10.014492688328449"><ele>112.57142857142857</ele><time>2026-04-12T14:45:05Z</time></trkpt><trkpt lat="44.18617675617871" lon="10.014590296114632"><ele>113.85714285714286</ele><time>2026-04-12T14:45:06Z</time></trkpt><trkpt lat="44.18617731193785" lon="10.014696785382295"><ele>115.14285714285714</ele><time>2026-04-12T14:45:07Z</time></trkpt><trkpt lat="44.18619912003494" lon="10.014801587796509"><ele>116.42857142857143</ele><time>2026-04-12T14:45:08Z</time></trkpt><trkpt lat="44.186242271919475" lon="10.014888703349888"><ele>117.71428571428571</ele><time>2026-04-12T14:45:09Z</time></trkpt><trkpt lat="44.186305003822696" lon="10.014955063731396"><ele>119.0</ele><time>2026-04-12T14:45:10Z</time></trkpt><trkpt lat="44.186379504202606" lon="10.015004925597799"><ele>120.0</ele><time>2026-04-12T14:45:11Z</time></trkpt><trkpt lat="44.18646667710753" lon="10.01504712545271"><ele>121.0</ele><time>2026-04-12T14:45:12Z</time></trkpt><trkpt lat="44.18654142085687" lon="10.015083050443566"><ele>122.0</ele><time>2026-04-12T14:45:13Z</time></trkpt><trkpt lat="44.18663061481258" lon="10.01515374348049"><ele>123.0</ele><time>2026-04-12T14:45:15Z</time></trkpt><trkpt lat="44.18654270504639" lon="10.01532560663542"><ele>124.0</ele><time>2026-04-12T14:45:18Z</time></trkpt><trkpt lat="44.18648136348079" lon="10.015354510312742"><ele>124.0</ele><time>2026-04-12T14:45:19Z</time></trkpt><trkpt lat="44.18641390405822" lon="10.015415244718302"><ele>124.0</ele><time>2026-04-12T14:45:20Z</time></trkpt><trkpt lat="44.18635171004583" lon="10.015504455365997"><ele>124.0</ele><time>2026-04-12T14:45:21Z</time></trkpt><trkpt lat="44.18627221100049" lon="10.0155777419538"><ele>124.0</ele><time>2026-04-12T14:45:22Z</time></trkpt><trkpt lat="44.18618176904261" lon="10.015656625960439"><ele>124.0</ele><time>2026-04-12T14:45:23Z</time></trkpt><trkpt lat="44.18608282910163" lon="10.015729951893347"><ele>124.0</ele><time>2026-04-12T14:45:24Z</time></trkpt><trkpt lat="44.18597218614169" lon="10.015782535474024"><ele>124.0</ele><time>2026-04-12T14:45:25Z</time></trkpt><trkpt lat="44.185873624045975" lon="10.015871189677025"><ele>124.0</ele><time>2026-04-12T14:45:26Z</time></trkpt><trkpt lat="44.185762843748165" lon="10.015931522323024"><ele>124.0</ele><time>2026-04-12T14:45:27Z</time></trkpt><trkpt lat="44.18565352585679" lon="10.015991454240634"><ele>127.5</ele><time>2026-04-12T14:45:28Z</time></trkpt><trkpt lat="44.18553989214906" lon="10.016045835151656"><ele>131.0</ele><time>2026-04-12T14:45:29Z</time></trkpt><trkpt lat="44.18541997980546" lon="10.016098986914034"><ele>134.5</ele><time>2026-04-12T14:45:30Z</time></trkpt><trkpt lat="44.18528609608917" lon="10.016134439169864"><ele>138.0</ele><time>2026-04-12T14:45:31Z</time></trkpt><trkpt lat="44.18515483185382" lon="10.016209513112113"><ele>138.0</ele><time>2026-04-12T14:45:32Z</time></trkpt><trkpt lat="44.18504135303673" lon="10.016283010269955"><ele>138.0</ele><time>2026-04-12T14:45:33Z</time></trkpt><trkpt lat="44.18494659805676" lon="10.016343561673187"><ele>138.0</ele><time>2026-04-12T14:45:34Z</time></trkpt><trkpt lat="44.18486386192602" lon="10.016384305116814"><ele>138.0</ele><time>2026-04-12T14:45:35Z</time></trkpt><trkpt lat="44.18477707133413" lon="10.01640527205855"><ele>138.0</ele><time>2026-04-12T14:45:36Z</time></trkpt><trkpt lat="44.18468869591459" lon="10.016414019112936"><ele>139.6</ele><time>2026-04-12T14:45:37Z</time></trkpt><trkpt lat="44.18459886976017" lon="10.016406805469467"><ele>141.20000000000002</ele><time>2026-04-12T14:45:38Z</time></trkpt><trkpt lat="44.18451213176815" lon="10.01636977823789"><ele>142.8</ele><time>2026-04-12T14:45:39Z</time></trkpt><trkpt lat="44.184434771739994" lon="10.01630417515462"><ele>144.4</ele><time>2026-04-12T14:45:39.999Z</time></trkpt><trkpt lat="44.18434596197748" lon="10.016230494625853"><ele>146.0</ele><time>2026-04-12T14:45:40.999Z</time></trkpt><trkpt lat="44.18423605257131" lon="10.016205178222824"><ele>146.0</ele><time>2026-04-12T14:45:41.999Z</time></trkpt><trkpt lat="44.1841265882369" lon="10.016194240390451"><ele>146.0</ele><time>2026-04-12T14:45:42.999Z</time></trkpt><trkpt lat="44.18401029529115" lon="10.01618003465333"><ele>146.0</ele><time>2026-04-12T14:45:43.999Z</time></trkpt><trkpt lat="44.18388910214578" lon="10.016164607475288"><ele>146.0</ele><time>2026-04-12T14:45:44.999Z</time></trkpt><trkpt lat="44.183772989693956" lon="10.016149789321968"><ele>147.8</ele><time>2026-04-12T14:45:45.999Z</time></trkpt><trkpt lat="44.1836569180747" lon="10.016152274119772"><ele>149.6</ele><time>2026-04-12T14:45:46.999Z</time></trkpt><trkpt lat="44.183549025832136" lon="10.016197806478965"><ele>151.4</ele><time>2026-04-12T14:45:47.999Z</time></trkpt><trkpt lat="44.183448549480545" lon="10.016259581882423"><ele>153.2</ele><time>2026-04-12T14:45:48.999Z</time></trkpt><trkpt lat="44.18335112860334" lon="10.016299904805248"><ele>155.0</ele><time>2026-04-12T14:45:49.999Z</time></trkpt><trkpt lat="44.1832606617495" lon="10.016306301206962"><ele>159.2</ele><time>2026-04-12T14:45:50.999Z</time></trkpt><trkpt lat="44.183180674840564" lon="10.016276260582405"><ele>163.4</ele><time>2026-04-12T14:45:51.999Z</time></trkpt><trkpt lat="44.183103174981355" lon="10.01621480808609"><ele>167.60000000000002</ele><time>2026-04-12T14:45:52.999Z</time></trkpt><trkpt lat="44.18301250096465" lon="10.016170519857933"><ele>171.8</ele><time>2026-04-12T14:45:53.999Z</time></trkpt><trkpt lat="44.1829118624387" lon="10.016156723494449"><ele>176.0</ele><time>2026-04-12T14:45:54.999Z</time></trkpt><trkpt lat="44.18281355425485" lon="10.016198488366179"><ele>176.0</ele><time>2026-04-12T14:45:55.999Z</time></trkpt><trkpt lat="44.18273339151965" lon="10.016271707205018"><ele>176.0</ele><time>2026-04-12T14:45:56.999Z</time></trkpt><trkpt lat="44.182661845532344" lon="10.01633655973177"><ele>176.0</ele><time>2026-04-12T14:45:57.999Z</time></trkpt><trkpt lat="44.182589993640214" lon="10.016391723639833"><ele>176.0</ele><time>2026-04-12T14:45:58.999Z</time></trkpt><trkpt lat="44.18251330145958" lon="10.016440979782997"><ele>176.0</ele><time>2026-04-12T14:45:59.999Z</time></trkpt><trkpt lat="44.182434347728424" lon="10.01647702342709"><ele>176.0</ele><time>2026-04-12T14:46:00.999Z</time></trkpt><trkpt lat="44.18234528606694" lon="10.016489840484692"><ele>177.0</ele><time>2026-04-12T14:46:01.999Z</time></trkpt><trkpt lat="44.182248746212835" lon="10.016486346503333"><ele>178.0</ele><time>2026-04-12T14:46:02.999Z</time></trkpt><trkpt lat="44.1821469342094" lon="10.016466307387777"><ele>179.0</ele><time>2026-04-12T14:46:03.999Z</time></trkpt><trkpt lat="44.18203760984287" lon="10.016448891816408"><ele>180.0</ele><time>2026-04-12T14:46:04.999Z</time></trkpt><trkpt lat="44.18192330805371" lon="10.016430683317976"><ele>181.0</ele><time>2026-04-12T14:46:05.999Z</time></trkpt><trkpt lat="44.18181532717223" lon="10.016426440249232"><ele>181.0</ele><time>2026-04-12T14:46:06.999Z</time></trkpt><trkpt lat="44.18171477030313" lon="10.01645120928084"><ele>181.0</ele><time>2026-04-12T14:46:07.999Z</time></trkpt><trkpt lat="44.18162154761244" lon="10.016505505309262"><ele>181.0</ele><time>2026-04-12T14:46:08.999Z</time></trkpt><trkpt lat="44.18154057040167" lon="10.016583322903559"><ele>181.0</ele><time>2026-04-12T14:46:09.999Z</time></trkpt><trkpt lat="44.1814656574843" lon="10.01666274112042"><ele>181.0</ele><time>2026-04-12T14:46:10.999Z</time></trkpt><trkpt lat="44.18138731659919" lon="10.016741577842515"><ele>181.0</ele><time>2026-04-12T14:46:11.999Z</time></trkpt><trkpt lat="44.18130486031261" lon="10.016815676788353"><ele>181.0</ele><time>2026-04-12T14:46:12.999Z</time></trkpt><trkpt lat="44.18120811847395" lon="10.016869538372164"><ele>181.0</ele><time>2026-04-12T14:46:13.999Z</time></trkpt><trkpt lat="44.18110504906595" lon="10.016912607102556"><ele>181.0</ele><time>2026-04-12T14:46:14.999Z</time></trkpt><trkpt lat="44.180992107547134" lon="10.016965151353373"><ele>181.0</ele><time>2026-04-12T14:46:15.999Z</time></trkpt><trkpt lat="44.180876092267134" lon="10.017034003254997"><ele>181.0</ele><time>2026-04-12T14:46:16.999Z</time></trkpt><trkpt lat="44.18076476102533" lon="10.017119147290668"><ele>181.0</ele><time>2026-04-12T14:46:17.999Z</time></trkpt><trkpt lat="44.18065754615964" lon="10.017194643724268"><ele>181.0</ele><time>2026-04-12T14:46:18.999Z</time></trkpt><trkpt lat="44.180562365359506" lon="10.017252557639141"><ele>181.0</ele><time>2026-04-12T14:46:19.999Z</time></trkpt><trkpt lat="44.18045541654247" lon="10.017297124420898"><ele>183.5</ele><time>2026-04-12T14:46:20.999Z</time></trkpt><trkpt lat="44.180354284034784" lon="10.017358268913876"><ele>186.0</ele><time>2026-04-12T14:46:21.999Z</time></trkpt><trkpt lat="44.18027523358398" lon="10.017440429359453"><ele>188.5</ele><time>2026-04-12T14:46:22.999Z</time></trkpt><trkpt lat="44.18023147480869" lon="10.017529204237315"><ele>191.0</ele><time>2026-04-12T14:46:23.999Z</time></trkpt><trkpt lat="44.18016988752299" lon="10.017616225142644"><ele>193.49999999999997</ele><time>2026-04-12T14:46:25.999Z</time></trkpt><trkpt lat="44.1801054582717" lon="10.017625242970302"><ele>196.0</ele><time>2026-04-12T14:46:27.999Z</time></trkpt><trkpt lat="44.18009718957135" lon="10.017527003498452"><ele>197.8</ele><time>2026-04-12T14:46:29.999Z</time></trkpt><trkpt lat="44.18012923266157" lon="10.017382673698267"><ele>199.60000000000002</ele><time>2026-04-12T14:46:31.999Z</time></trkpt><trkpt lat="44.180187941851315" lon="10.017282186735539"><ele>201.4</ele><time>2026-04-12T14:46:32.999Z</time></trkpt><trkpt lat="44.18024778101778" lon="10.017177307814539"><ele>203.2</ele><time>2026-04-12T14:46:33.999Z</time></trkpt><trkpt lat="44.1802973409683" lon="10.017076645229238"><ele>205.0</ele><time>2026-04-12T14:46:35Z</time></trkpt><trkpt lat="44.18032107866426" lon="10.01696382635873"><ele>204.99999999999997</ele><time>2026-04-12T14:46:36Z</time></trkpt><trkpt lat="44.18032567327584" lon="10.016848340520205"><ele>205.0</ele><time>2026-04-12T14:46:37Z</time></trkpt><trkpt lat="44.18032509868462" lon="10.016729767753269"><ele>205.0</ele><time>2026-04-12T14:46:38Z</time></trkpt><trkpt lat="44.18032501501936" lon="10.01660812099081"><ele>205.0</ele><time>2026-04-12T14:46:39Z</time></trkpt><trkpt lat="44.180333311797796" lon="10.016485959474645"><ele>204.99999999999997</ele><time>2026-04-12T14:46:40Z</time></trkpt><trkpt lat="44.18033815791589" lon="10.016365188060442"><ele>205.0</ele><time>2026-04-12T14:46:41Z</time></trkpt><trkpt lat="44.180326929462616" lon="10.016246428870385"><ele>203.8</ele><time>2026-04-12T14:46:42Z</time></trkpt><trkpt lat="44.18030583204242" lon="10.016119965564425"><ele>202.6</ele><time>2026-04-12T14:46:43Z</time></trkpt><trkpt lat="44.18026416632293" lon="10.015996080830542"><ele>201.39999999999998</ele><time>2026-04-12T14:46:44Z</time></trkpt><trkpt lat="44.180218828209014" lon="10.015886207226327"><ele>200.2</ele><time>2026-04-12T14:46:45Z</time></trkpt><trkpt lat="44.18018502130969" lon="10.0157935591067"><ele>199.0</ele><time>2026-04-12T14:46:46Z</time></trkpt><trkpt lat="44.18014871806598" lon="10.015664287087708"><ele>199.0</ele><time>2026-04-12T14:46:48Z</time></trkpt><trkpt lat="44.18009087831368" lon="10.015588926346538"><ele>199.0</ele><time>2026-04-12T14:46:50Z</time></trkpt><trkpt lat="44.18002371939236" lon="10.015698023333359"><ele>199.0</ele><time>2026-04-12T14:46:52Z</time></trkpt><trkpt lat="44.18007804134489" lon="10.015856784805829"><ele>199.0</ele><time>2026-04-12T14:46:54Z</time></trkpt><trkpt lat="44.18010705551725" lon="10.015955767865737"><ele>199.0</ele><time>2026-04-12T14:46:55Z</time></trkpt><trkpt lat="44.18012334097049" lon="10.016073779435066"><ele>199.0</ele><time>2026-04-12T14:46:56Z</time></trkpt><trkpt lat="44.18011772035539" lon="10.016195786603854"><ele>199.0</ele><time>2026-04-12T14:46:57Z</time></trkpt><trkpt lat="44.18009444573138" lon="10.01631981189877"><ele>199.0</ele><time>2026-04-12T14:46:58Z</time></trkpt><trkpt lat="44.18006289328214" lon="10.016447997663958"><ele>199.0</ele><time>2026-04-12T14:46:59Z</time></trkpt><trkpt lat="44.18002730584198" lon="10.016568669487588"><ele>199.0</ele><time>2026-04-12T14:47:00Z</time></trkpt><trkpt lat="44.179980132284776" lon="10.016677466789412"><ele>200.2</ele><time>2026-04-12T14:47:01Z</time></trkpt><trkpt lat="44.17992204428561" lon="10.016763658509017"><ele>201.39999999999998</ele><time>2026-04-12T14:47:02Z</time></trkpt><trkpt lat="44.17983382066907" lon="10.016786429583007"><ele>202.6</ele><time>2026-04-12T14:47:03Z</time></trkpt><trkpt lat="44.17976766133582" lon="10.016865608739806"><ele>203.8</ele><time>2026-04-12T14:47:04Z</time></trkpt><trkpt lat="44.17971976688077" lon="10.016981108787128"><ele>205.0</ele><time>2026-04-12T14:47:05Z</time></trkpt><trkpt lat="44.179720386583554" lon="10.01712045709895"><ele>206.99999999999997</ele><time>2026-04-12T14:47:06Z</time></trkpt><trkpt lat="44.17969202402502" lon="10.01723778763893"><ele>209.0</ele><time>2026-04-12T14:47:07Z</time></trkpt><trkpt lat="44.17965770132464" lon="10.017342542532704"><ele>211.0</ele><time>2026-04-12T14:47:08Z</time></trkpt><trkpt lat="44.17959425763801" lon="10.01740119782753"><ele>213.0</ele><time>2026-04-12T14:47:09Z</time></trkpt><trkpt lat="44.17952485668857" lon="10.017453119575856"><ele>214.99999999999997</ele><time>2026-04-12T14:47:10Z</time></trkpt><trkpt lat="44.1794384652966" lon="10.017479863806741"><ele>217.0</ele><time>2026-04-12T14:47:11Z</time></trkpt><trkpt lat="44.1793438052098" lon="10.017490376515156"><ele>217.0</ele><time>2026-04-12T14:47:11.999Z</time></trkpt><trkpt lat="44.17925198411478" lon="10.017521367435966"><ele>217.0</ele><time>2026-04-12T14:47:12.999Z</time></trkpt><trkpt lat="44.17917061327655" lon="10.017608620319265"><ele>217.0</ele><time>2026-04-12T14:47:13.999Z</time></trkpt><trkpt lat="44.179125330308935" lon="10.017734111830578"><ele>217.0</ele><time>2026-04-12T14:47:14.999Z</time></trkpt><trkpt lat="44.17905711796803" lon="10.017822610959486"><ele>217.0</ele><time>2026-04-12T14:47:15.999Z</time></trkpt><trkpt lat="44.17899908741404" lon="10.017885973442247"><ele>216.83333333333331</ele><time>2026-04-12T14:47:16.999Z</time></trkpt><trkpt lat="44.17891749650304" lon="10.017911611663193"><ele>216.66666666666666</ele><time>2026-04-12T14:47:18.999Z</time></trkpt><trkpt lat="44.17884928847755" lon="10.017846155658692"><ele>216.5</ele><time>2026-04-12T14:47:20.999Z</time></trkpt><trkpt lat="44.17883937862852" lon="10.017736135219977"><ele>216.33333333333331</ele><time>2026-04-12T14:47:21.999Z</time></trkpt><trkpt lat="44.17879960925457" lon="10.017604076383831"><ele>216.16666666666666</ele><time>2026-04-12T14:47:22.999Z</time></trkpt><trkpt lat="44.17876423165442" lon="10.017486570519551"><ele>216.0</ele><time>2026-04-12T14:47:23.999Z</time></trkpt><trkpt lat="44.17873392376687" lon="10.017385903439882"><ele>216.0</ele><time>2026-04-12T14:47:24.999Z</time></trkpt><trkpt lat="44.17870572451503" lon="10.017292240272274"><ele>216.0</ele><time>2026-04-12T14:47:25.999Z</time></trkpt><trkpt lat="44.17867733786287" lon="10.017197958956372"><ele>216.0</ele><time>2026-04-12T14:47:26.999Z</time></trkpt><trkpt lat="44.17865165846356" lon="10.017112671730215"><ele>216.0</ele><time>2026-04-12T14:47:27.999Z</time></trkpt><trkpt lat="44.17856403038296" lon="10.017070900630413"><ele>216.0</ele><time>2026-04-12T14:47:28.999Z</time></trkpt><trkpt lat="44.17849939871888" lon="10.017024111847336"><ele>216.0</ele><time>2026-04-12T14:47:29.999Z</time></trkpt><trkpt lat="44.17843651455614" lon="10.01697135836619"><ele>216.0</ele><time>2026-04-12T14:47:30.999Z</time></trkpt><trkpt lat="44.17837283453061" lon="10.016923880477107"><ele>216.0</ele><time>2026-04-12T14:47:31.999Z</time></trkpt><trkpt lat="44.178309425555376" lon="10.016879629947425"><ele>216.0</ele><time>2026-04-12T14:47:32.999Z</time></trkpt><trkpt lat="44.1782464623929" lon="10.016835918380345"><ele>216.0</ele><time>2026-04-12T14:47:33.999Z</time></trkpt><trkpt lat="44.17819328831752" lon="10.01677146564342"><ele>216.0</ele><time>2026-04-12T14:47:34.999Z</time></trkpt><trkpt lat="44.178124440487885" lon="10.016752203545343"><ele>216.0</ele><time>2026-04-12T14:47:35.999Z</time></trkpt><trkpt lat="44.178062963270804" lon="10.016710286766466"><ele>216.0</ele><time>2026-04-12T14:47:36.999Z</time></trkpt><trkpt lat="44.1779968254293" lon="10.016669584865653"><ele>216.0</ele><time>2026-04-12T14:47:37.999Z</time></trkpt><trkpt lat="44.17792241319105" lon="10.016631618387889"><ele>216.0</ele><time>2026-04-12T14:47:38.999Z</time></trkpt><trkpt lat="44.177841344219225" lon="10.016596609758468"><ele>216.0</ele><time>2026-04-12T14:47:39.999Z</time></trkpt><trkpt lat="44.177754104115714" lon="10.016552945741953"><ele>216.0</ele><time>2026-04-12T14:47:40.999Z</time></trkpt><trkpt lat="44.17767334392356" lon="10.016484323904207"><ele>216.0</ele><time>2026-04-12T14:47:41.999Z</time></trkpt><trkpt lat="44.177590880927895" lon="10.016425918001783"><ele>216.0</ele><time>2026-04-12T14:47:42.999Z</time></trkpt><trkpt lat="44.177512011550334" lon="10.016357169362845"><ele>216.0</ele><time>2026-04-12T14:47:43.999Z</time></trkpt><trkpt lat="44.17743542231409" lon="10.016284301076476"><ele>216.00000000000003</ele><time>2026-04-12T14:47:44.999Z</time></trkpt><trkpt lat="44.17736611672526" lon="10.016212827902699"><ele>216.00000000000003</ele><time>2026-04-12T14:47:45.999Z</time></trkpt><trkpt lat="44.17731459466249" lon="10.016158815229645"><ele>216.0</ele><time>2026-04-12T14:47:46.999Z</time></trkpt><trkpt lat="44.17723101370262" lon="10.016066981498371"><ele>216.0</ele><time>2026-04-12T14:47:48.999Z</time></trkpt><trkpt lat="44.177146044798775" lon="10.01594489052956"><ele>218.20000000000002</ele><time>2026-04-12T14:47:50.999Z</time></trkpt><trkpt lat="44.17710669562876" lon="10.015856857811734"><ele>220.40000000000003</ele><time>2026-04-12T14:47:51.999Z</time></trkpt><trkpt lat="44.177039612719994" lon="10.015771422621688"><ele>222.6</ele><time>2026-04-12T14:47:52.999Z</time></trkpt><trkpt lat="44.17696883457821" lon="10.015674407616277"><ele>224.8</ele><time>2026-04-12T14:47:53.999Z</time></trkpt><trkpt lat="44.176886209382374" lon="10.015570123226293"><ele>227.0</ele><time>2026-04-12T14:47:54.999Z</time></trkpt><trkpt lat="44.176794936889834" lon="10.015462199457044"><ele>227.39999999999998</ele><time>2026-04-12T14:47:55.999Z</time></trkpt><trkpt lat="44.176702258984754" lon="10.015353501408203"><ele>227.79999999999998</ele><time>2026-04-12T14:47:56.999Z</time></trkpt><trkpt lat="44.176615624193474" lon="10.015245526691617"><ele>228.2</ele><time>2026-04-12T14:47:57.999Z</time></trkpt><trkpt lat="44.17654340470892" lon="10.015139230757164"><ele>228.6</ele><time>2026-04-12T14:47:58.999Z</time></trkpt><trkpt lat="44.17648510726571" lon="10.015018916528742"><ele>229.0</ele><time>2026-04-12T14:47:59.999Z</time></trkpt><trkpt lat="44.17647719719577" lon="10.014866318245044"><ele>231.39999999999998</ele><time>2026-04-12T14:48:00.999Z</time></trkpt><trkpt lat="44.17645285106728" lon="10.01472922736057"><ele>233.79999999999998</ele><time>2026-04-12T14:48:01.999Z</time></trkpt><trkpt lat="44.176406855151875" lon="10.014616574897246"><ele>236.20000000000002</ele><time>2026-04-12T14:48:02.999Z</time></trkpt><trkpt lat="44.176355019968824" lon="10.014516216152684"><ele>238.60000000000002</ele><time>2026-04-12T14:48:03.999Z</time></trkpt><trkpt lat="44.176285751427415" lon="10.01443870606132"><ele>241.0</ele><time>2026-04-12T14:48:04.999Z</time></trkpt><trkpt lat="44.1762046810655" lon="10.014379235451697"><ele>241.0</ele><time>2026-04-12T14:48:05.999Z</time></trkpt><trkpt lat="44.17611142805566" lon="10.014324140738603"><ele>241.00000000000003</ele><time>2026-04-12T14:48:06.999Z</time></trkpt><trkpt lat="44.176011560826886" lon="10.014260431453321"><ele>241.00000000000003</ele><time>2026-04-12T14:48:07.999Z</time></trkpt><trkpt lat="44.1759176320634" lon="10.014170872130592"><ele>241.0</ele><time>2026-04-12T14:48:08.999Z</time></trkpt><trkpt lat="44.17580095218251" lon="10.014113545437048"><ele>241.0</ele><time>2026-04-12T14:48:09.999Z</time></trkpt><trkpt lat="44.17570861534582" lon="10.014013341021766"><ele>243.5</ele><time>2026-04-12T14:48:10.999Z</time></trkpt><trkpt lat="44.17562858201958" lon="10.013894857178384"><ele>246.0</ele><time>2026-04-12T14:48:11.999Z</time></trkpt><trkpt lat="44.17555251533998" lon="10.013778857944263"><ele>248.5</ele><time>2026-04-12T14:48:12.999Z</time></trkpt><trkpt lat="44.17547114279511" lon="10.013669872398427"><ele>251.0</ele><time>2026-04-12T14:48:13.999Z</time></trkpt><trkpt lat="44.17539708333635" lon="10.013560636621628"><ele>251.0</ele><time>2026-04-12T14:48:14.999Z</time></trkpt><trkpt lat="44.175308009383706" lon="10.013473210855725"><ele>251.00000000000003</ele><time>2026-04-12T14:48:15.999Z</time></trkpt><trkpt lat="44.175268628351276" lon="10.013323372356632"><ele>251.00000000000003</ele><time>2026-04-12T14:48:16.999Z</time></trkpt><trkpt lat="44.175201940608716" lon="10.013206517639375"><ele>251.0</ele><time>2026-04-12T14:48:17.999Z</time></trkpt><trkpt lat="44.17511865147886" lon="10.013097891023257"><ele>251.0</ele><time>2026-04-12T14:48:18.999Z</time></trkpt><trkpt lat="44.175037276981676" lon="10.012989848200307"><ele>250.20000000000002</ele><time>2026-04-12T14:48:19.999Z</time></trkpt><trkpt lat="44.17495509188459" lon="10.012878119971479"><ele>249.40000000000003</ele><time>2026-04-12T14:48:20.999Z</time></trkpt><trkpt lat="44.17487673635449" lon="10.012768618747327"><ele>248.6</ele><time>2026-04-12T14:48:21.999Z</time></trkpt><trkpt lat="44.17477859048504" lon="10.012706478102949"><ele>247.8</ele><time>2026-04-12T14:48:22.999Z</time></trkpt><trkpt lat="44.17470004114302" lon="10.01260974989393"><ele>247.0</ele><time>2026-04-12T14:48:23.999Z</time></trkpt><trkpt lat="44.17465954057823" lon="10.012477197363841"><ele>254.39999999999998</ele><time>2026-04-12T14:48:24.999Z</time></trkpt><trkpt lat="44.17461712271853" lon="10.012345523124726"><ele>261.79999999999995</ele><time>2026-04-12T14:48:25.999Z</time></trkpt><trkpt lat="44.17457126607056" lon="10.012217237740328"><ele>269.2</ele><time>2026-04-12T14:48:26.999Z</time></trkpt><trkpt lat="44.17456069755324" lon="10.012097909174406"><ele>276.59999999999997</ele><time>2026-04-12T14:48:27.999Z</time></trkpt><trkpt lat="44.17451865355307" lon="10.011993542850991"><ele>284.0</ele><time>2026-04-12T14:48:28.999Z</time></trkpt><trkpt lat="44.17444524407084" lon="10.011938370205353"><ele>284.0</ele><time>2026-04-12T14:48:29.999Z</time></trkpt><trkpt lat="44.174359355303054" lon="10.011831247124567"><ele>284.0</ele><time>2026-04-12T14:48:31.999Z</time></trkpt><trkpt lat="44.174384760839395" lon="10.011675205186325"><ele>284.0</ele><time>2026-04-12T14:48:33.999Z</time></trkpt><trkpt lat="44.174435605239275" lon="10.011608118593257"><ele>284.0</ele><time>2026-04-12T14:48:34.999Z</time></trkpt><trkpt lat="44.17449092494059" lon="10.01153513221366"><ele>284.0</ele><time>2026-04-12T14:48:35.999Z</time></trkpt><trkpt lat="44.17455130933192" lon="10.011464596652448"><ele>286.4</ele><time>2026-04-12T14:48:36.999Z</time></trkpt><trkpt lat="44.17462418381725" lon="10.011403176457323"><ele>288.79999999999995</ele><time>2026-04-12T14:48:37.999Z</time></trkpt><trkpt lat="44.174716264996164" lon="10.011360959131613"><ele>291.20000000000005</ele><time>2026-04-12T14:48:38.999Z</time></trkpt><trkpt lat="44.17480024764123" lon="10.011311374712987"><ele>293.6</ele><time>2026-04-12T14:48:39.999Z</time></trkpt><trkpt lat="44.174865564935864" lon="10.01122208511498"><ele>296.0</ele><time>2026-04-12T14:48:41Z</time></trkpt><trkpt lat="44.174916451987706" lon="10.011105157517056"><ele>291.0</ele><time>2026-04-12T14:48:42Z</time></trkpt><trkpt lat="44.174972852608896" lon="10.010984423719922"><ele>286.0</ele><time>2026-04-12T14:48:43Z</time></trkpt><trkpt lat="44.175030793354736" lon="10.010878357678218"><ele>281.0</ele><time>2026-04-12T14:48:44Z</time></trkpt><trkpt lat="44.17507326189294" lon="10.010804887436459"><ele>276.0</ele><time>2026-04-12T14:48:45Z</time></trkpt><trkpt lat="44.175094089172035" lon="10.01065374925166"><ele>271.0</ele><time>2026-04-12T14:48:47Z</time></trkpt><trkpt lat="44.17499756351361" lon="10.010529790227908"><ele>269.6</ele><time>2026-04-12T14:48:49Z</time></trkpt><trkpt lat="44.17493119865095" lon="10.010489717216334"><ele>268.20000000000005</ele><time>2026-04-12T14:48:50Z</time></trkpt><trkpt lat="44.174853496396985" lon="10.010441405094342"><ele>266.79999999999995</ele><time>2026-04-12T14:48:51Z</time></trkpt><trkpt lat="44.17475762851173" lon="10.010381559052028"><ele>265.4</ele><time>2026-04-12T14:48:52Z</time></trkpt><trkpt lat="44.17465596964219" lon="10.010317875662201"><ele>264.0</ele><time>2026-04-12T14:48:53Z</time></trkpt><trkpt lat="44.17455645322438" lon="10.010249133174652"><ele>267.6666666666667</ele><time>2026-04-12T14:48:54Z</time></trkpt><trkpt lat="44.174481667514435" lon="10.010154030351972"><ele>271.3333333333333</ele><time>2026-04-12T14:48:55Z</time></trkpt><trkpt lat="44.17443568147276" lon="10.010046279118834"><ele>275.0</ele><time>2026-04-12T14:48:56Z</time></trkpt><trkpt lat="44.17441603101519" lon="10.009935861856139"><ele>278.66666666666663</ele><time>2026-04-12T14:48:57Z</time></trkpt><trkpt lat="44.174399066373034" lon="10.009819956879003"><ele>282.3333333333333</ele><time>2026-04-12T14:48:58Z</time></trkpt><trkpt lat="44.174413233065806" lon="10.009702244332978"><ele>286.0</ele><time>2026-04-12T14:48:59Z</time></trkpt><trkpt lat="44.1744142473733" lon="10.009585874937633"><ele>286.0</ele><time>2026-04-12T14:49:00Z</time></trkpt><trkpt lat="44.17438251086488" lon="10.009485780023036"><ele>286.0</ele><time>2026-04-12T14:49:01Z</time></trkpt><trkpt lat="44.17432103437771" lon="10.00940120722588"><ele>286.0</ele><time>2026-04-12T14:49:02Z</time></trkpt><trkpt lat="44.174258911302374" lon="10.009296080360429"><ele>286.0</ele><time>2026-04-12T14:49:03Z</time></trkpt><trkpt lat="44.17419819674614" lon="10.009154199552691"><ele>286.0</ele><time>2026-04-12T14:49:04Z</time></trkpt><trkpt lat="44.17413588071973" lon="10.009025329100577"><ele>285.0</ele><time>2026-04-12T14:49:05Z</time></trkpt><trkpt lat="44.174071135666345" lon="10.008945102204317"><ele>284.0</ele><time>2026-04-12T14:49:06Z</time></trkpt><trkpt lat="44.17399052140915" lon="10.00889794952636"><ele>283.0</ele><time>2026-04-12T14:49:07Z</time></trkpt><trkpt lat="44.17391025777811" lon="10.008846497764123"><ele>282.0</ele><time>2026-04-12T14:49:08Z</time></trkpt><trkpt lat="44.173823859176" lon="10.008795653107853"><ele>281.0</ele><time>2026-04-12T14:49:09Z</time></trkpt><trkpt lat="44.17374187592242" lon="10.008753513045425"><ele>280.0</ele><time>2026-04-12T14:49:10Z</time></trkpt><trkpt lat="44.1736667114581" lon="10.008739670028515"><ele>282.16666666666663</ele><time>2026-04-12T14:49:11Z</time></trkpt><trkpt lat="44.17358973342145" lon="10.008796274560218"><ele>284.3333333333333</ele><time>2026-04-12T14:49:12Z</time></trkpt><trkpt lat="44.1735132595816" lon="10.008803393910654"><ele>286.5</ele><time>2026-04-12T14:49:13Z</time></trkpt><trkpt lat="44.17343248576564" lon="10.008821921237809"><ele>288.6666666666667</ele><time>2026-04-12T14:49:14Z</time></trkpt><trkpt lat="44.173360342376604" lon="10.008821331924244"><ele>290.83333333333337</ele><time>2026-04-12T14:49:15Z</time></trkpt><trkpt lat="44.1732902425614" lon="10.008790481793733"><ele>293.0</ele><time>2026-04-12T14:49:16Z</time></trkpt><trkpt lat="44.17322356199659" lon="10.008744863895965"><ele>293.0</ele><time>2026-04-12T14:49:17Z</time></trkpt><trkpt lat="44.173193185686" lon="10.008663280990561"><ele>293.0</ele><time>2026-04-12T14:49:18Z</time></trkpt><trkpt lat="44.17313128695865" lon="10.008505415019869"><ele>293.0</ele><time>2026-04-12T14:49:20Z</time></trkpt><trkpt lat="44.17309256941311" lon="10.00841707603517"><ele>293.0</ele><time>2026-04-12T14:49:21Z</time></trkpt><trkpt lat="44.17305028610285" lon="10.008321773447095"><ele>293.0</ele><time>2026-04-12T14:49:22Z</time></trkpt><trkpt lat="44.17300643906064" lon="10.008223663296786"><ele>293.0</ele><time>2026-04-12T14:49:23Z</time></trkpt><trkpt lat="44.17296039083051" lon="10.00812062779702"><ele>295.8</ele><time>2026-04-12T14:49:24Z</time></trkpt><trkpt lat="44.17290408902811" lon="10.008012089198058"><ele>298.6</ele><time>2026-04-12T14:49:25Z</time></trkpt><trkpt lat="44.17282752611306" lon="10.007920212525196"><ele>301.4</ele><time>2026-04-12T14:49:26Z</time></trkpt><trkpt lat="44.17277068957024" lon="10.007808073422808"><ele>304.2</ele><time>2026-04-12T14:49:27Z</time></trkpt><trkpt lat="44.17270561634598" lon="10.007703996077387"><ele>307.0</ele><time>2026-04-12T14:49:28Z</time></trkpt><trkpt lat="44.172639723530665" lon="10.007603664223007"><ele>307.0</ele><time>2026-04-12T14:49:29Z</time></trkpt><trkpt lat="44.17257220279701" lon="10.007512860538192"><ele>307.0</ele><time>2026-04-12T14:49:30Z</time></trkpt><trkpt lat="44.17249371517054" lon="10.007443446830973"><ele>307.0</ele><time>2026-04-12T14:49:31Z</time></trkpt><trkpt lat="44.17240259267199" lon="10.007378483248223"><ele>307.0</ele><time>2026-04-12T14:49:32Z</time></trkpt><trkpt lat="44.172310476231736" lon="10.007316272257231"><ele>307.0</ele><time>2026-04-12T14:49:33Z</time></trkpt><trkpt lat="44.17221594467163" lon="10.007253085829456"><ele>308.6</ele><time>2026-04-12T14:49:34Z</time></trkpt><trkpt lat="44.172133106397276" lon="10.007191920480583"><ele>310.2</ele><time>2026-04-12T14:49:35Z</time></trkpt><trkpt lat="44.172059415337216" lon="10.007121808795228"><ele>311.8</ele><time>2026-04-12T14:49:36Z</time></trkpt><trkpt lat="44.171985381689424" lon="10.007044101976211"><ele>313.4</ele><time>2026-04-12T14:49:37Z</time></trkpt><trkpt lat="44.17190368253569" lon="10.006958079124852"><ele>315.0</ele><time>2026-04-12T14:49:38Z</time></trkpt><trkpt lat="44.17181816675981" lon="10.006867800120366"><ele>315.0</ele><time>2026-04-12T14:49:39Z</time></trkpt><trkpt lat="44.171752593580024" lon="10.00679132663224"><ele>315.0</ele><time>2026-04-12T14:49:40Z</time></trkpt><trkpt lat="44.17170126854481" lon="10.00671995508608"><ele>315.0</ele><time>2026-04-12T14:49:41Z</time></trkpt><trkpt lat="44.17163883920882" lon="10.006577499608055"><ele>315.0</ele><time>2026-04-12T14:49:43Z</time></trkpt><trkpt lat="44.17157796647292" lon="10.006410765444713"><ele>315.0</ele><time>2026-04-12T14:49:45Z</time></trkpt><trkpt lat="44.17155407515415" lon="10.006312344196925"><ele>318.2</ele><time>2026-04-12T14:49:46Z</time></trkpt><trkpt lat="44.17151583636627" lon="10.006176239972238"><ele>321.4</ele><time>2026-04-12T14:49:46.999Z</time></trkpt><trkpt lat="44.17146177356757" lon="10.006075751534201"><ele>324.6</ele><time>2026-04-12T14:49:47.999Z</time></trkpt><trkpt lat="44.17139345160264" lon="10.005955107868239"><ele>327.8</ele><time>2026-04-12T14:49:48.999Z</time></trkpt><trkpt lat="44.17132559774708" lon="10.005815191108994"><ele>331.0</ele><time>2026-04-12T14:49:49.999Z</time></trkpt><trkpt lat="44.17125653858863" lon="10.005655446784742"><ele>332.25</ele><time>2026-04-12T14:49:50.999Z</time></trkpt><trkpt lat="44.17117834853822" lon="10.005490642899495"><ele>333.5</ele><time>2026-04-12T14:49:51.999Z</time></trkpt><trkpt lat="44.17111359266682" lon="10.005331156792133"><ele>334.75</ele><time>2026-04-12T14:49:52.999Z</time></trkpt><trkpt lat="44.171066701279706" lon="10.00516969990884"><ele>336.0</ele><time>2026-04-12T14:49:53.999Z</time></trkpt><trkpt lat="44.17099495022335" lon="10.005055959779005"><ele>336.6666666666667</ele><time>2026-04-12T14:49:54.999Z</time></trkpt><trkpt lat="44.17095589482766" lon="10.0049422166874"><ele>337.3333333333333</ele><time>2026-04-12T14:49:55.999Z</time></trkpt><trkpt lat="44.1709081393555" lon="10.004853165959362"><ele>338.0</ele><time>2026-04-12T14:49:56.999Z</time></trkpt><trkpt lat="44.17090730643463" lon="10.00474629797915"><ele>338.66666666666663</ele><time>2026-04-12T14:49:57.999Z</time></trkpt><trkpt lat="44.170937180458544" lon="10.004638639013201"><ele>339.3333333333333</ele><time>2026-04-12T14:49:58.999Z</time></trkpt><trkpt lat="44.17097420243449" lon="10.004527695734263"><ele>340.0</ele><time>2026-04-12T14:49:59.999Z</time></trkpt><trkpt lat="44.17102157353841" lon="10.004427573268869"><ele>340.0</ele><time>2026-04-12T14:50:00.999Z</time></trkpt><trkpt lat="44.17105835838319" lon="10.004309893845589"><ele>340.0</ele><time>2026-04-12T14:50:01.999Z</time></trkpt><trkpt lat="44.17110564271614" lon="10.004203859006243"><ele>340.0</ele><time>2026-04-12T14:50:02.999Z</time></trkpt><trkpt lat="44.17113734030146" lon="10.00409987362602"><ele>340.0</ele><time>2026-04-12T14:50:03.999Z</time></trkpt><trkpt lat="44.17117954867473" lon="10.003987346609229"><ele>340.0</ele><time>2026-04-12T14:50:04.999Z</time></trkpt><trkpt lat="44.171181614579524" lon="10.003834549540807"><ele>341.5</ele><time>2026-04-12T14:50:05.999Z</time></trkpt><trkpt lat="44.171162062575064" lon="10.003665130430765"><ele>343.0</ele><time>2026-04-12T14:50:06.999Z</time></trkpt><trkpt lat="44.17117069612394" lon="10.00351035989979"><ele>344.5</ele><time>2026-04-12T14:50:07.999Z</time></trkpt><trkpt lat="44.17120504073715" lon="10.00335648427822"><ele>346.0</ele><time>2026-04-12T14:50:08.999Z</time></trkpt><trkpt lat="44.1712277547605" lon="10.003200809262436"><ele>346.0</ele><time>2026-04-12T14:50:09.999Z</time></trkpt><trkpt lat="44.17122934844352" lon="10.00306691732004"><ele>346.0</ele><time>2026-04-12T14:50:10.999Z</time></trkpt><trkpt lat="44.17120639067971" lon="10.002943944704809"><ele>346.0</ele><time>2026-04-12T14:50:11.999Z</time></trkpt><trkpt lat="44.171233010303915" lon="10.002817288860326"><ele>346.0</ele><time>2026-04-12T14:50:12.999Z</time></trkpt><trkpt lat="44.17122481196357" lon="10.002707893924839"><ele>346.0</ele><time>2026-04-12T14:50:13.999Z</time></trkpt><trkpt lat="44.171210762953166" lon="10.002605402707834"><ele>346.0</ele><time>2026-04-12T14:50:14.999Z</time></trkpt><trkpt lat="44.17117568229428" lon="10.002511847717598"><ele>345.0</ele><time>2026-04-12T14:50:15.999Z</time></trkpt><trkpt lat="44.17112419751876" lon="10.002437531068828"><ele>344.0</ele><time>2026-04-12T14:50:16.999Z</time></trkpt><trkpt lat="44.17104325311509" lon="10.002310862910356"><ele>343.0</ele><time>2026-04-12T14:50:18.999Z</time></trkpt><trkpt lat="44.17096996473276" lon="10.002255031850893"><ele>342.0</ele><time>2026-04-12T14:50:19.999Z</time></trkpt><trkpt lat="44.17088130798794" lon="10.002201618772474"><ele>341.0</ele><time>2026-04-12T14:50:20.999Z</time></trkpt><trkpt lat="44.170774971752486" lon="10.00214214117303"><ele>348.4</ele><time>2026-04-12T14:50:21.999Z</time></trkpt><trkpt lat="44.17065935448865" lon="10.002095650801802"><ele>355.8</ele><time>2026-04-12T14:50:22.999Z</time></trkpt><trkpt lat="44.17055902717919" lon="10.002069265083245"><ele>363.2</ele><time>2026-04-12T14:50:23.999Z</time></trkpt><trkpt lat="44.170471479817394" lon="10.002058625799812"><ele>370.59999999999997</ele><time>2026-04-12T14:50:24.999Z</time></trkpt><trkpt lat="44.17041736511883" lon="10.001961078232226"><ele>378.0</ele><time>2026-04-12T14:50:25.999Z</time></trkpt><trkpt lat="44.17036823229295" lon="10.001858303248932"><ele>378.0</ele><time>2026-04-12T14:50:26.999Z</time></trkpt><trkpt lat="44.17030589801798" lon="10.001753063416027"><ele>378.0</ele><time>2026-04-12T14:50:27.999Z</time></trkpt><trkpt lat="44.17027632988326" lon="10.001653180975667"><ele>378.0</ele><time>2026-04-12T14:50:28.999Z</time></trkpt><trkpt lat="44.170272280779635" lon="10.00156017346778"><ele>378.0</ele><time>2026-04-12T14:50:29.999Z</time></trkpt><trkpt lat="44.17029572627892" lon="10.001470076171396"><ele>378.0</ele><time>2026-04-12T14:50:30.999Z</time></trkpt><trkpt lat="44.17034148052236" lon="10.001405328107454"><ele>378.0</ele><time>2026-04-12T14:50:31.999Z</time></trkpt><trkpt lat="44.17040239101745" lon="10.00135456643884"><ele>378.0</ele><time>2026-04-12T14:50:32.999Z</time></trkpt><trkpt lat="44.17046751675015" lon="10.00128472594699"><ele>376.8333333333333</ele><time>2026-04-12T14:50:33.999Z</time></trkpt><trkpt lat="44.17054082233881" lon="10.001195294498448"><ele>375.6666666666667</ele><time>2026-04-12T14:50:34.999Z</time></trkpt><trkpt lat="44.170622969555865" lon="10.001107672583382"><ele>374.5</ele><time>2026-04-12T14:50:35.999Z</time></trkpt><trkpt lat="44.17069526140321" lon="10.001034502923902"><ele>373.33333333333337</ele><time>2026-04-12T14:50:36.999Z</time></trkpt><trkpt lat="44.170749386476636" lon="10.000971788329482"><ele>372.1666666666667</ele><time>2026-04-12T14:50:37.999Z</time></trkpt><trkpt lat="44.17078455765189" lon="10.000896493030066"><ele>371.0</ele><time>2026-04-12T14:50:38.999Z</time></trkpt><trkpt lat="44.17079763702341" lon="10.000809954887995"><ele>371.0</ele><time>2026-04-12T14:50:39.999Z</time></trkpt><trkpt lat="44.17078554879654" lon="10.000720763245047"><ele>371.0</ele><time>2026-04-12T14:50:40.999Z</time></trkpt><trkpt lat="44.17075319105308" lon="10.000638526363755"><ele>371.0</ele><time>2026-04-12T14:50:41.999Z</time></trkpt><trkpt lat="44.170725132524744" lon="10.000559181552143"><ele>371.0</ele><time>2026-04-12T14:50:42.999Z</time></trkpt><trkpt lat="44.17071947601046" lon="10.000405546984155"><ele>371.0</ele><time>2026-04-12T14:50:44.999Z</time></trkpt><trkpt lat="44.17078933158089" lon="10.000251973963174"><ele>371.0</ele><time>2026-04-12T14:50:47Z</time></trkpt><trkpt lat="44.170842036333724" lon="10.000153278941733"><ele>371.0</ele><time>2026-04-12T14:50:48Z</time></trkpt><trkpt lat="44.170857205814166" lon="10.000008754575585"><ele>371.0</ele><time>2026-04-12T14:50:49Z</time></trkpt><trkpt lat="44.170896219888895" lon="9.999864297247699"><ele>371.0</ele><time>2026-04-12T14:50:50Z</time></trkpt><trkpt lat="44.17095344086957" lon="9.999720838802535"><ele>371.0</ele><time>2026-04-12T14:50:51Z</time></trkpt><trkpt lat="44.17101863964061" lon="9.999575369777938"><ele>371.0</ele><time>2026-04-12T14:50:52Z</time></trkpt><trkpt lat="44.17107978726752" lon="9.999427277970858"><ele>371.0</ele><time>2026-04-12T14:50:53Z</time></trkpt><trkpt lat="44.17114092212985" lon="9.999272811395995"><ele>371.0</ele><time>2026-04-12T14:50:54Z</time></trkpt><trkpt lat="44.171185253584234" lon="9.999128537987833"><ele>371.0</ele><time>2026-04-12T14:50:55Z</time></trkpt><trkpt lat="44.171217449244786" lon="9.999004216594132"><ele>375.4</ele><time>2026-04-12T14:50:56Z</time></trkpt><trkpt lat="44.1712316079763" lon="9.998870236353728"><ele>379.8</ele><time>2026-04-12T14:50:57Z</time></trkpt><trkpt lat="44.17123826209315" lon="9.998726261572154"><ele>384.2</ele><time>2026-04-12T14:50:58Z</time></trkpt><trkpt lat="44.17123981972265" lon="9.998577764079666"><ele>388.59999999999997</ele><time>2026-04-12T14:50:59Z</time></trkpt><trkpt lat="44.171241279455" lon="9.998446333897403"><ele>393.0</ele><time>2026-04-12T14:51:00Z</time></trkpt><trkpt lat="44.171234667510426" lon="9.998332242546455"><ele>393.0</ele><time>2026-04-12T14:51:01Z</time></trkpt><trkpt lat="44.171206649400816" lon="9.998222559735025"><ele>393.0</ele><time>2026-04-12T14:51:02Z</time></trkpt><trkpt lat="44.171191269800325" lon="9.99812064559637"><ele>393.0</ele><time>2026-04-12T14:51:03Z</time></trkpt><trkpt lat="44.17113559884764" lon="9.998030564400644"><ele>393.0</ele><time>2026-04-12T14:51:05Z</time></trkpt><trkpt lat="44.17104502807456" lon="9.998048337442857"><ele>393.0</ele><time>2026-04-12T14:51:07Z</time></trkpt><trkpt lat="44.171060349600744" lon="9.998199884337726"><ele>393.0</ele><time>2026-04-12T14:51:09Z</time></trkpt><trkpt lat="44.17111089464122" lon="9.998362184350633"><ele>393.0</ele><time>2026-04-12T14:51:11Z</time></trkpt><trkpt lat="44.17110105868834" lon="9.99845997116731"><ele>393.0</ele><time>2026-04-12T14:51:12Z</time></trkpt><trkpt lat="44.17107408209205" lon="9.99857373514887"><ele>393.0</ele><time>2026-04-12T14:51:14Z</time></trkpt><trkpt lat="44.171039529881945" lon="9.998654559692666"><ele>393.0</ele><time>2026-04-12T14:51:15Z</time></trkpt><trkpt lat="44.17100934604874" lon="9.998753604573444"><ele>393.0</ele><time>2026-04-12T14:51:16Z</time></trkpt><trkpt lat="44.170961395676784" lon="9.998876058654298"><ele>393.0</ele><time>2026-04-12T14:51:18Z</time></trkpt><trkpt lat="44.1708861532001" lon="9.998849856814317"><ele>393.0</ele><time>2026-04-12T14:51:22Z</time></trkpt><trkpt lat="44.170950180038794" lon="9.998718385805459"><ele>393.0</ele><time>2026-04-12T14:51:24Z</time></trkpt><trkpt lat="44.17099484437982" lon="9.998645139855272"><ele>393.0</ele><time>2026-04-12T14:51:25Z</time></trkpt><trkpt lat="44.170999784359374" lon="9.998548358713041"><ele>393.0</ele><time>2026-04-12T14:51:26Z</time></trkpt><trkpt lat="44.170981806176904" lon="9.998448234359946"><ele>393.0</ele><time>2026-04-12T14:51:27Z</time></trkpt><trkpt lat="44.1709450276512" lon="9.998344818805698"><ele>393.0</ele><time>2026-04-12T14:51:28Z</time></trkpt><trkpt lat="44.17089148471766" lon="9.998246506076837"><ele>396.0</ele><time>2026-04-12T14:51:29Z</time></trkpt><trkpt lat="44.17083245514886" lon="9.99815088262585"><ele>399.0</ele><time>2026-04-12T14:51:30Z</time></trkpt><trkpt lat="44.17077596239476" lon="9.998043258211725"><ele>402.0</ele><time>2026-04-12T14:51:31Z</time></trkpt><trkpt lat="44.17070225384427" lon="9.997968748788981"><ele>405.0</ele><time>2026-04-12T14:51:32Z</time></trkpt><trkpt lat="44.17064662475414" lon="9.997917375641556"><ele>408.0</ele><time>2026-04-12T14:51:33Z</time></trkpt><trkpt lat="44.17057974238744" lon="9.9977972979953"><ele>408.0</ele><time>2026-04-12T14:51:35Z</time></trkpt><trkpt lat="44.17059578201985" lon="9.997710320557452"><ele>408.0</ele><time>2026-04-12T14:51:36Z</time></trkpt><trkpt lat="44.17063298389251" lon="9.997624813889544"><ele>408.0</ele><time>2026-04-12T14:51:37Z</time></trkpt><trkpt lat="44.17069739612411" lon="9.997550847187002"><ele>408.0</ele><time>2026-04-12T14:51:38Z</time></trkpt><trkpt lat="44.170763055380284" lon="9.99749447540548"><ele>408.0</ele><time>2026-04-12T14:51:39Z</time></trkpt><trkpt lat="44.170825057123004" lon="9.997432125253686"><ele>408.0</ele><time>2026-04-12T14:51:40Z</time></trkpt><trkpt lat="44.17086041752951" lon="9.997359245888305"><ele>408.0</ele><time>2026-04-12T14:51:41Z</time></trkpt><trkpt lat="44.170855254830165" lon="9.997177667948227"><ele>408.79999999999995</ele><time>2026-04-12T14:51:43Z</time></trkpt><trkpt lat="44.17081560292126" lon="9.997084427459558"><ele>409.6</ele><time>2026-04-12T14:51:44Z</time></trkpt><trkpt lat="44.17076620646716" lon="9.99696968799901"><ele>410.4</ele><time>2026-04-12T14:51:45Z</time></trkpt><trkpt lat="44.17069112343979" lon="9.996871738678804"><ele>411.20000000000005</ele><time>2026-04-12T14:51:46Z</time></trkpt><trkpt lat="44.1705982484422" lon="9.996797217183365"><ele>412.0</ele><time>2026-04-12T14:51:47Z</time></trkpt><trkpt lat="44.1705143441676" lon="9.996695274645566"><ele>420.5</ele><time>2026-04-12T14:51:48Z</time></trkpt><trkpt lat="44.170444789372176" lon="9.996566468235095"><ele>429.0</ele><time>2026-04-12T14:51:49Z</time></trkpt><trkpt lat="44.170406076417706" lon="9.996413108734"><ele>437.5</ele><time>2026-04-12T14:51:50Z</time></trkpt><trkpt lat="44.17034973918301" lon="9.996276359230922"><ele>446.0</ele><time>2026-04-12T14:51:51Z</time></trkpt><trkpt lat="44.17032151864223" lon="9.996120798116477"><ele>445.99999999999994</ele><time>2026-04-12T14:51:52Z</time></trkpt><trkpt lat="44.170299073704165" lon="9.995971824840648"><ele>446.0</ele><time>2026-04-12T14:51:53Z</time></trkpt><trkpt lat="44.17026911332299" lon="9.995835483327275"><ele>446.0</ele><time>2026-04-12T14:51:54Z</time></trkpt><trkpt lat="44.17023873137539" lon="9.995732943495328"><ele>446.0</ele><time>2026-04-12T14:51:54.999Z</time></trkpt><trkpt lat="44.17018933166225" lon="9.995672950519184"><ele>445.99999999999994</ele><time>2026-04-12T14:51:55.999Z</time></trkpt><trkpt lat="44.17012739548668" lon="9.995646082304129"><ele>446.0</ele><time>2026-04-12T14:51:56.999Z</time></trkpt><trkpt lat="44.170064166138445" lon="9.995613204026606"><ele>443.49999999999994</ele><time>2026-04-12T14:51:57.999Z</time></trkpt><trkpt lat="44.16998472532175" lon="9.995652187057814"><ele>441.0</ele><time>2026-04-12T14:51:58.999Z</time></trkpt><trkpt lat="44.169904531013934" lon="9.99566413511569"><ele>438.5</ele><time>2026-04-12T14:51:59.999Z</time></trkpt><trkpt lat="44.1698417611065" lon="9.995743030703506"><ele>436.0</ele><time>2026-04-12T14:52:00.999Z</time></trkpt><trkpt lat="44.169776766471244" lon="9.99582286680729"><ele>433.49999999999994</ele><time>2026-04-12T14:52:01.999Z</time></trkpt><trkpt lat="44.16971757220113" lon="9.995922457388877"><ele>431.0</ele><time>2026-04-12T14:52:02.999Z</time></trkpt><trkpt lat="44.16966462910974" lon="9.996036128705638"><ele>431.0</ele><time>2026-04-12T14:52:03.999Z</time></trkpt><trkpt lat="44.1696346218277" lon="9.996167043393779"><ele>431.0</ele><time>2026-04-12T14:52:04.999Z</time></trkpt><trkpt lat="44.16960372003964" lon="9.996298073710374"><ele>431.0</ele><time>2026-04-12T14:52:05.999Z</time></trkpt><trkpt lat="44.16957829955048" lon="9.9964430330941"><ele>431.0</ele><time>2026-04-12T14:52:06.999Z</time></trkpt><trkpt lat="44.16954443584531" lon="9.99657569865236"><ele>431.0</ele><time>2026-04-12T14:52:07.999Z</time></trkpt><trkpt lat="44.16948686150257" lon="9.996669499286869"><ele>436.99999999999994</ele><time>2026-04-12T14:52:08.999Z</time></trkpt><trkpt lat="44.16943533796117" lon="9.996760696271762"><ele>443.0</ele><time>2026-04-12T14:52:09.999Z</time></trkpt><trkpt lat="44.16938808623993" lon="9.996865315415196"><ele>449.0</ele><time>2026-04-12T14:52:10.999Z</time></trkpt><trkpt lat="44.16931940807313" lon="9.996941546358983"><ele>455.0</ele><time>2026-04-12T14:52:11.999Z</time></trkpt><trkpt lat="44.16926762741975" lon="9.997031705033622"><ele>460.99999999999994</ele><time>2026-04-12T14:52:12.999Z</time></trkpt><trkpt lat="44.16923584461599" lon="9.997139176395448"><ele>467.0</ele><time>2026-04-12T14:52:13.999Z</time></trkpt><trkpt lat="44.16919003622118" lon="9.997226862018723"><ele>466.99999999999994</ele><time>2026-04-12T14:52:14.999Z</time></trkpt><trkpt lat="44.16911875074231" lon="9.997262509803665"><ele>467.0</ele><time>2026-04-12T14:52:15.999Z</time></trkpt><trkpt lat="44.16904795350176" lon="9.997285414818409"><ele>467.0</ele><time>2026-04-12T14:52:16.999Z</time></trkpt><trkpt lat="44.16897493809603" lon="9.997312607851462"><ele>467.0</ele><time>2026-04-12T14:52:17.999Z</time></trkpt><trkpt lat="44.168901848532585" lon="9.997385187016814"><ele>466.99999999999994</ele><time>2026-04-12T14:52:18.999Z</time></trkpt><trkpt lat="44.16884129004916" lon="9.997461375799533"><ele>467.0</ele><time>2026-04-12T14:52:19.999Z</time></trkpt><trkpt lat="44.16876083195827" lon="9.997443537996302"><ele>466.66666666666663</ele><time>2026-04-12T14:52:20.999Z</time></trkpt><trkpt lat="44.16863428851565" lon="9.997450389202529"><ele>466.3333333333333</ele><time>2026-04-12T14:52:22.999Z</time></trkpt><trkpt lat="44.168567196440115" lon="9.9974643375256"><ele>466.0</ele><time>2026-04-12T14:52:23.999Z</time></trkpt><trkpt lat="44.168517593933885" lon="9.997556566041059"><ele>465.66666666666663</ele><time>2026-04-12T14:52:24.999Z</time></trkpt><trkpt lat="44.16847545627388" lon="9.99765195329139"><ele>465.3333333333333</ele><time>2026-04-12T14:52:25.999Z</time></trkpt><trkpt lat="44.16842797378542" lon="9.99775712198569"><ele>465.0</ele><time>2026-04-12T14:52:26.999Z</time></trkpt><trkpt lat="44.16837549629629" lon="9.9978566110183"><ele>465.0</ele><time>2026-04-12T14:52:27.999Z</time></trkpt><trkpt lat="44.16833780137589" lon="9.99796095155928"><ele>465.0</ele><time>2026-04-12T14:52:28.999Z</time></trkpt><trkpt lat="44.168318304299405" lon="9.998081558131771"><ele>465.0</ele><time>2026-04-12T14:52:29.999Z</time></trkpt><trkpt lat="44.1683043214028" lon="9.99820109814272"><ele>465.0</ele><time>2026-04-12T14:52:30.999Z</time></trkpt><trkpt lat="44.16826722694064" lon="9.998299050935286"><ele>465.0</ele><time>2026-04-12T14:52:31.999Z</time></trkpt><trkpt lat="44.1682065019705" lon="9.998343993115656"><ele>465.0</ele><time>2026-04-12T14:52:32.999Z</time></trkpt><trkpt lat="44.16813900660071" lon="9.998391210632306"><ele>462.5</ele><time>2026-04-12T14:52:33.999Z</time></trkpt><trkpt lat="44.16806481670935" lon="9.998460012883692"><ele>460.0</ele><time>2026-04-12T14:52:34.999Z</time></trkpt><trkpt lat="44.16800397266131" lon="9.998538645881865"><ele>457.5</ele><time>2026-04-12T14:52:35.999Z</time></trkpt><trkpt lat="44.16796353702852" lon="9.998629319080989"><ele>455.0</ele><time>2026-04-12T14:52:36.999Z</time></trkpt><trkpt lat="44.16794593830931" lon="9.998732663639466"><ele>452.5</ele><time>2026-04-12T14:52:37.999Z</time></trkpt><trkpt lat="44.167954313607424" lon="9.99885119505274"><ele>450.0</ele><time>2026-04-12T14:52:38.999Z</time></trkpt><trkpt lat="44.16796414783973" lon="9.998964057814597"><ele>450.0</ele><time>2026-04-12T14:52:39.999Z</time></trkpt><trkpt lat="44.16795181145412" lon="9.999106614924905"><ele>450.0</ele><time>2026-04-12T14:52:41.999Z</time></trkpt><trkpt lat="44.167900101882196" lon="9.999231325511042"><ele>450.0</ele><time>2026-04-12T14:52:43.999Z</time></trkpt><trkpt lat="44.16784681119161" lon="9.999278829951793"><ele>450.0</ele><time>2026-04-12T14:52:44.999Z</time></trkpt><trkpt lat="44.167779668677866" lon="9.999313612309967"><ele>450.0</ele><time>2026-04-12T14:52:45.999Z</time></trkpt><trkpt lat="44.1677042657418" lon="9.999344293104206"><ele>450.0</ele><time>2026-04-12T14:52:46.999Z</time></trkpt><trkpt lat="44.16762862557921" lon="9.999383251991379"><ele>455.5</ele><time>2026-04-12T14:52:47.999Z</time></trkpt><trkpt lat="44.167565485015" lon="9.999441049457198"><ele>461.0</ele><time>2026-04-12T14:52:48.999Z</time></trkpt><trkpt lat="44.16752889630046" lon="9.999524646435765"><ele>466.5</ele><time>2026-04-12T14:52:49.999Z</time></trkpt><trkpt lat="44.16753180033729" lon="9.999696838485331"><ele>472.0</ele><time>2026-04-12T14:52:51.999Z</time></trkpt><trkpt lat="44.167520280353735" lon="9.9997885127773"><ele>477.5</ele><time>2026-04-12T14:52:53Z</time></trkpt><trkpt lat="44.16748277770114" lon="9.999863958958763"><ele>483.0</ele><time>2026-04-12T14:52:54Z</time></trkpt><trkpt lat="44.16742656617851" lon="9.999916838981191"><ele>480.1666666666667</ele><time>2026-04-12T14:52:55Z</time></trkpt><trkpt lat="44.16734490619888" lon="9.999915684431498"><ele>477.33333333333337</ele><time>2026-04-12T14:52:56Z</time></trkpt><trkpt lat="44.16725484201868" lon="9.999950357678154"><ele>474.5</ele><time>2026-04-12T14:52:57Z</time></trkpt><trkpt lat="44.167161863227506" lon="9.999966152228236"><ele>471.6666666666667</ele><time>2026-04-12T14:52:58Z</time></trkpt><trkpt lat="44.16707707279666" lon="9.999985430125998"><ele>468.83333333333337</ele><time>2026-04-12T14:52:59Z</time></trkpt><trkpt lat="44.16701827856447" lon="10.000039515672942"><ele>466.0</ele><time>2026-04-12T14:53:00Z</time></trkpt><trkpt lat="44.16697829929337" lon="10.000123740112002"><ele>466.0</ele><time>2026-04-12T14:53:01Z</time></trkpt><trkpt lat="44.16696282488123" lon="10.000227399579025"><ele>466.0</ele><time>2026-04-12T14:53:02Z</time></trkpt><trkpt lat="44.16691856142409" lon="10.000314149322099"><ele>466.0</ele><time>2026-04-12T14:53:03Z</time></trkpt><trkpt lat="44.16685107163711" lon="10.000356646392909"><ele>466.0</ele><time>2026-04-12T14:53:04Z</time></trkpt><trkpt lat="44.16678423858648" lon="10.000385047086583"><ele>466.0</ele><time>2026-04-12T14:53:05Z</time></trkpt><trkpt lat="44.166715974596045" lon="10.000400294004137"><ele>466.0</ele><time>2026-04-12T14:53:06Z</time></trkpt><trkpt lat="44.166646788443536" lon="10.00043188007614"><ele>466.0</ele><time>2026-04-12T14:53:07Z</time></trkpt><trkpt lat="44.16658391710461" lon="10.000485953138417"><ele>466.0</ele><time>2026-04-12T14:53:08Z</time></trkpt><trkpt lat="44.166530599225794" lon="10.000551746840369"><ele>466.0</ele><time>2026-04-12T14:53:09Z</time></trkpt><trkpt lat="44.16644837365046" lon="10.000650631983373"><ele>466.0</ele><time>2026-04-12T14:53:11Z</time></trkpt><trkpt lat="44.16634303095332" lon="10.00067500234908"><ele>466.0</ele><time>2026-04-12T14:53:13Z</time></trkpt><trkpt lat="44.16623069466889" lon="10.000618683880639"><ele>466.0</ele><time>2026-04-12T14:53:15Z</time></trkpt><trkpt lat="44.1661155587344" lon="10.00055120554473"><ele>467.8</ele><time>2026-04-12T14:53:17Z</time></trkpt><trkpt lat="44.16601700700533" lon="10.00050934552708"><ele>469.6</ele><time>2026-04-12T14:53:19Z</time></trkpt><trkpt lat="44.165914646224294" lon="10.000493977558625"><ele>471.4</ele><time>2026-04-12T14:53:21Z</time></trkpt><trkpt lat="44.16578888592239" lon="10.000489064061112"><ele>473.2</ele><time>2026-04-12T14:53:23Z</time></trkpt><trkpt lat="44.16572287933461" lon="10.0004887962927"><ele>475.0</ele><time>2026-04-12T14:53:24Z</time></trkpt><trkpt lat="44.16565843959481" lon="10.000477725839733"><ele>475.00000000000006</ele><time>2026-04-12T14:53:25Z</time></trkpt><trkpt lat="44.16555487982256" lon="10.000439374252286"><ele>475.0</ele><time>2026-04-12T14:53:27Z</time></trkpt><trkpt lat="44.165452687461155" lon="10.000365493162445"><ele>475.0</ele><time>2026-04-12T14:53:29Z</time></trkpt><trkpt lat="44.16540744508892" lon="10.000303216602338"><ele>475.0</ele><time>2026-04-12T14:53:30Z</time></trkpt><trkpt lat="44.16534801113983" lon="10.000271228382584"><ele>475.00000000000006</ele><time>2026-04-12T14:53:31Z</time></trkpt><trkpt lat="44.165296169150295" lon="10.000220082821318"><ele>475.0</ele><time>2026-04-12T14:53:32Z</time></trkpt><trkpt lat="44.165202749823685" lon="10.000138932672659"><ele>475.0</ele><time>2026-04-12T14:53:34Z</time></trkpt><trkpt lat="44.16511321060001" lon="10.000060945434756"><ele>475.0</ele><time>2026-04-12T14:53:36Z</time></trkpt><trkpt lat="44.165017335707816" lon="9.999959111809453"><ele>475.0</ele><time>2026-04-12T14:53:38Z</time></trkpt><trkpt lat="44.164905371888466" lon="9.999898376531009"><ele>475.0</ele><time>2026-04-12T14:53:40Z</time></trkpt><trkpt lat="44.16484801395859" lon="9.999857759057868"><ele>475.0</ele><time>2026-04-12T14:53:41Z</time></trkpt><trkpt lat="44.164780912095864" lon="9.999839884111443"><ele>477.50000000000006</ele><time>2026-04-12T14:53:42Z</time></trkpt><trkpt lat="44.16471339235996" lon="9.999854650463284"><ele>480.0</ele><time>2026-04-12T14:53:43Z</time></trkpt><trkpt lat="44.164586284693996" lon="9.999866382648793"><ele>482.5</ele><time>2026-04-12T14:53:45Z</time></trkpt><trkpt lat="44.16451952405078" lon="9.999879886675155"><ele>485.0</ele><time>2026-04-12T14:53:46Z</time></trkpt><trkpt lat="44.1644506723715" lon="9.999870546454044"><ele>487.50000000000006</ele><time>2026-04-12T14:53:47Z</time></trkpt><trkpt lat="44.16433719748871" lon="9.999860817574657"><ele>490.0</ele><time>2026-04-12T14:53:49Z</time></trkpt><trkpt lat="44.164252815648894" lon="9.999732014295265"><ele>490.00000000000006</ele><time>2026-04-12T14:53:51Z</time></trkpt><trkpt lat="44.164229951238454" lon="9.999626703986413"><ele>490.0</ele><time>2026-04-12T14:53:52Z</time></trkpt><trkpt lat="44.16417437791374" lon="9.999535377641633"><ele>490.0</ele><time>2026-04-12T14:53:53Z</time></trkpt><trkpt lat="44.16412738794352" lon="9.999433511831"><ele>490.0</ele><time>2026-04-12T14:53:54Z</time></trkpt><trkpt lat="44.16406805586457" lon="9.999334364209105"><ele>490.00000000000006</ele><time>2026-04-12T14:53:55Z</time></trkpt><trkpt lat="44.16400297041582" lon="9.999231086198613"><ele>490.0</ele><time>2026-04-12T14:53:56Z</time></trkpt><trkpt lat="44.16394158900603" lon="9.999120433048045"><ele>499.8</ele><time>2026-04-12T14:53:57Z</time></trkpt><trkpt lat="44.16389542196472" lon="9.999024927970018"><ele>509.6</ele><time>2026-04-12T14:53:58Z</time></trkpt><trkpt lat="44.16383429181352" lon="9.998910597593438"><ele>519.4</ele><time>2026-04-12T14:54:00Z</time></trkpt><trkpt lat="44.16373662133358" lon="9.998887356352055"><ele>529.2</ele><time>2026-04-12T14:54:01.999Z</time></trkpt><trkpt lat="44.163714499973054" lon="9.999036852736108"><ele>539.0</ele><time>2026-04-12T14:54:03.999Z</time></trkpt><trkpt lat="44.1637794485163" lon="9.9991664634783"><ele>535.6666666666666</ele><time>2026-04-12T14:54:05.999Z</time></trkpt><trkpt lat="44.16383232615126" lon="9.999252058155827"><ele>532.3333333333333</ele><time>2026-04-12T14:54:06.999Z</time></trkpt><trkpt lat="44.1638887132728" lon="9.999356737051693"><ele>529.0</ele><time>2026-04-12T14:54:07.999Z</time></trkpt><trkpt lat="44.163942360119115" lon="9.999463262516079"><ele>525.6666666666666</ele><time>2026-04-12T14:54:08.999Z</time></trkpt><trkpt lat="44.16398686136238" lon="9.999539955029556"><ele>522.3333333333334</ele><time>2026-04-12T14:54:09.999Z</time></trkpt><trkpt lat="44.16398943827652" lon="9.999639827713862"><ele>519.0</ele><time>2026-04-12T14:54:10.999Z</time></trkpt><trkpt lat="44.163958050460785" lon="9.999735602271718"><ele>519.0</ele><time>2026-04-12T14:54:11.999Z</time></trkpt><trkpt lat="44.16388962278966" lon="9.999815908390602"><ele>519.0</ele><time>2026-04-12T14:54:12.999Z</time></trkpt><trkpt lat="44.16381807609359" lon="9.999900555194877"><ele>519.0</ele><time>2026-04-12T14:54:13.999Z</time></trkpt><trkpt lat="44.16374254137538" lon="9.99998073609684"><ele>519.0</ele><time>2026-04-12T14:54:14.999Z</time></trkpt><trkpt lat="44.16364774761009" lon="10.000036391556373"><ele>519.0</ele><time>2026-04-12T14:54:15.999Z</time></trkpt><trkpt lat="44.163554718489934" lon="10.000062123250517"><ele>519.0</ele><time>2026-04-12T14:54:16.999Z</time></trkpt><trkpt lat="44.163485611252874" lon="10.000084618577691"><ele>519.0</ele><time>2026-04-12T14:54:18.999Z</time></trkpt><trkpt lat="44.16342065921785" lon="10.000086572559713"><ele>519.0</ele><time>2026-04-12T14:55:02Z</time></trkpt><trkpt lat="44.16332989116487" lon="10.000077037841614"><ele>519.0</ele><time>2026-04-12T14:55:04Z</time></trkpt><trkpt lat="44.16321013223705" lon="10.000036917141331"><ele>519.0</ele><time>2026-04-12T14:55:06Z</time></trkpt><trkpt lat="44.1631435919962" lon="9.999996000594345"><ele>519.0</ele><time>2026-04-12T14:55:07Z</time></trkpt><trkpt lat="44.16307521667893" lon="9.999935410072892"><ele>516.2</ele><time>2026-04-12T14:55:08Z</time></trkpt><trkpt lat="44.163003591361615" lon="9.999864254270774"><ele>513.4</ele><time>2026-04-12T14:55:09Z</time></trkpt><trkpt lat="44.1629293002054" lon="9.999785806482482"><ele>510.6</ele><time>2026-04-12T14:55:10Z</time></trkpt><trkpt lat="44.16283424398417" lon="9.999717154108666"><ele>507.8</ele><time>2026-04-12T14:55:11Z</time></trkpt><trkpt lat="44.16273331970625" lon="9.99966344006542"><ele>505.0</ele><time>2026-04-12T14:55:12Z</time></trkpt><trkpt lat="44.16262738972715" lon="9.999608299753259"><ele>505.0</ele><time>2026-04-12T14:55:13Z</time></trkpt><trkpt lat="44.16255598055665" lon="9.999496638294676"><ele>505.0</ele><time>2026-04-12T14:55:14Z</time></trkpt><trkpt lat="44.16247987019072" lon="9.999408416637246"><ele>505.0</ele><time>2026-04-12T14:55:15Z</time></trkpt><trkpt lat="44.16238350977526" lon="9.999382085227591"><ele>505.0</ele><time>2026-04-12T14:55:16Z</time></trkpt><trkpt lat="44.16228105703653" lon="9.999387863332181"><ele>505.0</ele><time>2026-04-12T14:55:17Z</time></trkpt><trkpt lat="44.16217376369998" lon="9.99937424212895"><ele>503.4</ele><time>2026-04-12T14:55:18Z</time></trkpt><trkpt lat="44.16206285003278" lon="9.99935219555069"><ele>501.8</ele><time>2026-04-12T14:55:19Z</time></trkpt><trkpt lat="44.16195893731803" lon="9.999337345970478"><ele>500.20000000000005</ele><time>2026-04-12T14:55:20Z</time></trkpt><trkpt lat="44.1618540518924" lon="9.999316208390185"><ele>498.6</ele><time>2026-04-12T14:55:21Z</time></trkpt><trkpt lat="44.16175084291145" lon="9.999262699566469"><ele>497.0</ele><time>2026-04-12T14:55:22Z</time></trkpt><trkpt lat="44.16164303561393" lon="9.999192800977696"><ele>505.75</ele><time>2026-04-12T14:55:23Z</time></trkpt><trkpt lat="44.16153571953032" lon="9.999120051676897"><ele>514.5</ele><time>2026-04-12T14:55:24Z</time></trkpt><trkpt lat="44.161423425448945" lon="9.999049041124431"><ele>523.25</ele><time>2026-04-12T14:55:25Z</time></trkpt><trkpt lat="44.16130773651301" lon="9.998981505851248"><ele>532.0</ele><time>2026-04-12T14:55:26Z</time></trkpt><trkpt lat="44.16119911225099" lon="9.998906933709286"><ele>532.0</ele><time>2026-04-12T14:55:27Z</time></trkpt><trkpt lat="44.1610931236837" lon="9.998810927654706"><ele>532.0</ele><time>2026-04-12T14:55:28Z</time></trkpt><trkpt lat="44.160987534849006" lon="9.998709380171935"><ele>532.0</ele><time>2026-04-12T14:55:29Z</time></trkpt><trkpt lat="44.16088747358117" lon="9.998619687029253"><ele>532.0</ele><time>2026-04-12T14:55:30Z</time></trkpt><trkpt lat="44.16078726873217" lon="9.998544468211715"><ele>534.75</ele><time>2026-04-12T14:55:31Z</time></trkpt><trkpt lat="44.16067705929019" lon="9.99849618215368"><ele>537.5</ele><time>2026-04-12T14:55:32Z</time></trkpt><trkpt lat="44.160563941980875" lon="9.998428328945003"><ele>540.25</ele><time>2026-04-12T14:55:33Z</time></trkpt><trkpt lat="44.16045218293928" lon="9.998357143509523"><ele>543.0</ele><time>2026-04-12T14:55:34Z</time></trkpt><trkpt lat="44.160356615661456" lon="9.998304364128138"><ele>543.0</ele><time>2026-04-12T14:55:35Z</time></trkpt><trkpt lat="44.1602701773347" lon="9.998256219950028"><ele>543.0</ele><time>2026-04-12T14:55:36Z</time></trkpt><trkpt lat="44.16019994836268" lon="9.99818309972032"><ele>543.0</ele><time>2026-04-12T14:55:37Z</time></trkpt><trkpt lat="44.160119846671954" lon="9.998160955130297"><ele>543.0</ele><time>2026-04-12T14:55:38Z</time></trkpt><trkpt lat="44.16002938345054" lon="9.998191688487326"><ele>543.0</ele><time>2026-04-12T14:55:39Z</time></trkpt><trkpt lat="44.15996360619935" lon="9.9982567726753"><ele>543.0</ele><time>2026-04-12T14:55:40Z</time></trkpt><trkpt lat="44.159932394580984" lon="9.9983915585831"><ele>546.5</ele><time>2026-04-12T14:55:41Z</time></trkpt><trkpt lat="44.159855800866815" lon="9.998509772249818"><ele>550.0</ele><time>2026-04-12T14:55:42Z</time></trkpt><trkpt lat="44.159779203955516" lon="9.998654270449443"><ele>553.5</ele><time>2026-04-12T14:55:43Z</time></trkpt><trkpt lat="44.159685898769744" lon="9.998801753134005"><ele>557.0</ele><time>2026-04-12T14:55:44Z</time></trkpt><trkpt lat="44.159580872275946" lon="9.99894258281179"><ele>557.0</ele><time>2026-04-12T14:55:45Z</time></trkpt><trkpt lat="44.15947864081281" lon="9.999060989676051"><ele>557.0</ele><time>2026-04-12T14:55:46Z</time></trkpt><trkpt lat="44.15937801160655" lon="9.999162863586992"><ele>557.0</ele><time>2026-04-12T14:55:47Z</time></trkpt><trkpt lat="44.159289783248795" lon="9.99924293977614"><ele>557.0</ele><time>2026-04-12T14:55:48Z</time></trkpt><trkpt lat="44.15921727981668" lon="9.999310993796938"><ele>557.6</ele><time>2026-04-12T14:55:49Z</time></trkpt><trkpt lat="44.15916689798924" lon="9.999396842625048"><ele>558.2</ele><time>2026-04-12T14:55:50Z</time></trkpt><trkpt lat="44.159160286851204" lon="9.999535708148365"><ele>558.8</ele><time>2026-04-12T14:55:51Z</time></trkpt><trkpt lat="44.15919702035923" lon="9.999666949505771"><ele>559.4</ele><time>2026-04-12T14:55:52Z</time></trkpt><trkpt lat="44.15922326059277" lon="9.99981837058004"><ele>560.0</ele><time>2026-04-12T14:55:53Z</time></trkpt><trkpt lat="44.159258731757" lon="9.999983207950049"><ele>560.0</ele><time>2026-04-12T14:55:54Z</time></trkpt><trkpt lat="44.159279589113055" lon="10.000164963477246"><ele>560.0</ele><time>2026-04-12T14:55:55Z</time></trkpt><trkpt lat="44.15933156202457" lon="10.000336856531412"><ele>560.0</ele><time>2026-04-12T14:55:56Z</time></trkpt><trkpt lat="44.15936962331653" lon="10.000523277322577"><ele>560.0</ele><time>2026-04-12T14:55:57Z</time></trkpt><trkpt lat="44.15939298207079" lon="10.000719803912723"><ele>562.5</ele><time>2026-04-12T14:55:58Z</time></trkpt><trkpt lat="44.15941814980203" lon="10.000908027796036"><ele>565.0</ele><time>2026-04-12T14:55:59Z</time></trkpt><trkpt lat="44.15945306971262" lon="10.001072961292426"><ele>567.5</ele><time>2026-04-12T14:56:00Z</time></trkpt><trkpt lat="44.15949469377008" lon="10.001218643043906"><ele>570.0</ele><time>2026-04-12T14:56:01Z</time></trkpt><trkpt lat="44.15948394998338" lon="10.001350562287149"><ele>570.0</ele><time>2026-04-12T14:56:02Z</time></trkpt><trkpt lat="44.159450292402205" lon="10.001477923279145"><ele>570.0</ele><time>2026-04-12T14:56:03Z</time></trkpt><trkpt lat="44.15937703149615" lon="10.001567470138314"><ele>570.0</ele><time>2026-04-12T14:56:04Z</time></trkpt><trkpt lat="44.15932666337653" lon="10.001675980615666"><ele>570.0</ele><time>2026-04-12T14:56:05Z</time></trkpt><trkpt lat="44.15924776087882" lon="10.001751629194551"><ele>570.0</ele><time>2026-04-12T14:56:06Z</time></trkpt><trkpt lat="44.15915694470272" lon="10.00180144055881"><ele>569.5</ele><time>2026-04-12T14:56:06.999Z</time></trkpt><trkpt lat="44.15904681528245" lon="10.001820623228284"><ele>569.0</ele><time>2026-04-12T14:56:07.999Z</time></trkpt><trkpt lat="44.15892042356304" lon="10.001833316370014"><ele>568.5</ele><time>2026-04-12T14:56:08.999Z</time></trkpt><trkpt lat="44.158780479257395" lon="10.001828301772829"><ele>568.0</ele><time>2026-04-12T14:56:09.999Z</time></trkpt><trkpt lat="44.15863829503715" lon="10.001865606376542"><ele>571.75</ele><time>2026-04-12T14:56:10.999Z</time></trkpt><trkpt lat="44.15850339367192" lon="10.001892930851726"><ele>575.5</ele><time>2026-04-12T14:56:11.999Z</time></trkpt><trkpt lat="44.15838703392973" lon="10.00196134293488"><ele>579.25</ele><time>2026-04-12T14:56:12.999Z</time></trkpt><trkpt lat="44.158275064049924" lon="10.002046606565527"><ele>583.0</ele><time>2026-04-12T14:56:13.999Z</time></trkpt><trkpt lat="44.1581954151466" lon="10.00217822765701"><ele>582.25</ele><time>2026-04-12T14:56:14.999Z</time></trkpt><trkpt lat="44.158139074179765" lon="10.002330277204738"><ele>581.5</ele><time>2026-04-12T14:56:15.999Z</time></trkpt><trkpt lat="44.15806610779484" lon="10.002476438414272"><ele>580.75</ele><time>2026-04-12T14:56:16.999Z</time></trkpt><trkpt lat="44.1580182892528" lon="10.00265764482324"><ele>580.0</ele><time>2026-04-12T14:56:17.999Z</time></trkpt><trkpt lat="44.157998516432826" lon="10.00286095457108"><ele>580.0</ele><time>2026-04-12T14:56:18.999Z</time></trkpt><trkpt lat="44.15799144758083" lon="10.003071012739143"><ele>580.0</ele><time>2026-04-12T14:56:19.999Z</time></trkpt><trkpt lat="44.15798937135651" lon="10.00327525269928"><ele>580.0</ele><time>2026-04-12T14:56:20.999Z</time></trkpt><trkpt lat="44.15798423547638" lon="10.003439764213523"><ele>580.0</ele><time>2026-04-12T14:56:21.999Z</time></trkpt><trkpt lat="44.15799082062947" lon="10.003549537752683"><ele>578.8333333333334</ele><time>2026-04-12T14:56:22.999Z</time></trkpt><trkpt lat="44.15795822918757" lon="10.00366748525089"><ele>577.6666666666667</ele><time>2026-04-12T14:56:24.999Z</time></trkpt><trkpt lat="44.15791535316156" lon="10.003784650441018"><ele>576.5</ele><time>2026-04-12T14:56:26.999Z</time></trkpt><trkpt lat="44.15791845214387" lon="10.003946936967244"><ele>575.3333333333334</ele><time>2026-04-12T14:56:27.999Z</time></trkpt><trkpt lat="44.15790622126567" lon="10.004043955663754"><ele>574.1666666666666</ele><time>2026-04-12T14:56:28.999Z</time></trkpt><trkpt lat="44.1578863911003" lon="10.00413039011103"><ele>573.0</ele><time>2026-04-12T14:56:30.999Z</time></trkpt><trkpt lat="44.15786732670137" lon="10.00424326832854"><ele>571.5</ele><time>2026-04-12T14:56:38.999Z</time></trkpt><trkpt lat="44.15784209993109" lon="10.00434452609994"><ele>570.0</ele><time>2026-04-12T14:56:40.999Z</time></trkpt><trkpt lat="44.15780497953281" lon="10.004477934415284"><ele>568.5</ele><time>2026-04-12T14:56:42.999Z</time></trkpt><trkpt lat="44.157776096497344" lon="10.004578937613644"><ele>567.0</ele><time>2026-04-12T14:56:43.999Z</time></trkpt><trkpt lat="44.15774420401925" lon="10.00469627025885"><ele>565.5</ele><time>2026-04-12T14:56:44.999Z</time></trkpt><trkpt lat="44.157730037323276" lon="10.004827414952608"><ele>564.0</ele><time>2026-04-12T14:56:45.999Z</time></trkpt><trkpt lat="44.15772480645111" lon="10.00497340781562"><ele>564.4</ele><time>2026-04-12T14:56:46.999Z</time></trkpt><trkpt lat="44.15773327040733" lon="10.005133838487588"><ele>564.8</ele><time>2026-04-12T14:56:47.999Z</time></trkpt><trkpt lat="44.157745961009724" lon="10.005293951587579"><ele>565.2</ele><time>2026-04-12T14:56:48.999Z</time></trkpt><trkpt lat="44.15776478682076" lon="10.005436120193147"><ele>565.6</ele><time>2026-04-12T14:56:49.999Z</time></trkpt><trkpt lat="44.157788018288" lon="10.005560556157565"><ele>566.0</ele><time>2026-04-12T14:56:50.999Z</time></trkpt><trkpt lat="44.15781939818952" lon="10.005692112037629"><ele>566.0</ele><time>2026-04-12T14:56:51.999Z</time></trkpt><trkpt lat="44.15786109761286" lon="10.005828095491706"><ele>566.0</ele><time>2026-04-12T14:56:52.999Z</time></trkpt><trkpt lat="44.157897698608075" lon="10.005972856031036"><ele>566.0</ele><time>2026-04-12T14:56:53.999Z</time></trkpt><trkpt lat="44.15793136757413" lon="10.006123984059311"><ele>566.0</ele><time>2026-04-12T14:56:54.999Z</time></trkpt><trkpt lat="44.157961142829485" lon="10.006286298278466"><ele>567.0</ele><time>2026-04-12T14:56:55.999Z</time></trkpt><trkpt lat="44.15798583640376" lon="10.00645900905373"><ele>568.0</ele><time>2026-04-12T14:56:56.999Z</time></trkpt><trkpt lat="44.15799564951735" lon="10.00661277607409"><ele>569.0</ele><time>2026-04-12T14:56:57.999Z</time></trkpt><trkpt lat="44.15797392166904" lon="10.0067450202623"><ele>570.0</ele><time>2026-04-12T14:56:58.999Z</time></trkpt><trkpt lat="44.15791343048161" lon="10.006854133498065"><ele>571.0</ele><time>2026-04-12T14:56:59.999Z</time></trkpt><trkpt lat="44.157872221522446" lon="10.00697933845289"><ele>571.8</ele><time>2026-04-12T14:57:00.999Z</time></trkpt><trkpt lat="44.15782128243299" lon="10.007103682634362"><ele>572.6</ele><time>2026-04-12T14:57:01.999Z</time></trkpt><trkpt lat="44.15777429138363" lon="10.007235889327116"><ele>573.4</ele><time>2026-04-12T14:57:02.999Z</time></trkpt><trkpt lat="44.15774240472487" lon="10.007363227566557"><ele>574.2</ele><time>2026-04-12T14:57:03.999Z</time></trkpt><trkpt lat="44.15772145853381" lon="10.007465285539498"><ele>575.0</ele><time>2026-04-12T14:57:05Z</time></trkpt><trkpt lat="44.15770369571355" lon="10.007639497058278"><ele>575.4</ele><time>2026-04-12T14:57:07Z</time></trkpt><trkpt lat="44.157697954970594" lon="10.007742385765008"><ele>575.8</ele><time>2026-04-12T14:57:08Z</time></trkpt><trkpt lat="44.15771250009458" lon="10.007859241144857"><ele>576.2</ele><time>2026-04-12T14:57:09Z</time></trkpt><trkpt lat="44.157740480978816" lon="10.007982146330619"><ele>576.6</ele><time>2026-04-12T14:57:10Z</time></trkpt><trkpt lat="44.15778074032635" lon="10.008109758937021"><ele>577.0</ele><time>2026-04-12T14:57:11Z</time></trkpt><trkpt lat="44.15783972830242" lon="10.008234717058015"><ele>576.4</ele><time>2026-04-12T14:57:12Z</time></trkpt><trkpt lat="44.15791180541383" lon="10.008349000912999"><ele>575.8000000000001</ele><time>2026-04-12T14:57:13Z</time></trkpt><trkpt lat="44.158001577814794" lon="10.00843622193134"><ele>575.2</ele><time>2026-04-12T14:57:14Z</time></trkpt><trkpt lat="44.15807311950739" lon="10.008515941793995"><ele>574.6</ele><time>2026-04-12T14:57:15Z</time></trkpt><trkpt lat="44.15812451869161" lon="10.008605735400849"><ele>574.0</ele><time>2026-04-12T14:57:16Z</time></trkpt><trkpt lat="44.158142346923846" lon="10.008724043464099"><ele>574.0</ele><time>2026-04-12T14:57:17Z</time></trkpt><trkpt lat="44.15812010007005" lon="10.00886366363081"><ele>574.0</ele><time>2026-04-12T14:57:18Z</time></trkpt><trkpt lat="44.15810596784601" lon="10.00903261485862"><ele>574.0</ele><time>2026-04-12T14:57:19Z</time></trkpt><trkpt lat="44.15811665653218" lon="10.009219983063081"><ele>574.0</ele><time>2026-04-12T14:57:20Z</time></trkpt><trkpt lat="44.15817768372589" lon="10.009418041796014"><ele>573.25</ele><time>2026-04-12T14:57:21Z</time></trkpt><trkpt lat="44.158207291129536" lon="10.00959886989171"><ele>572.5</ele><time>2026-04-12T14:57:22Z</time></trkpt><trkpt lat="44.15819218051895" lon="10.009769900614192"><ele>571.75</ele><time>2026-04-12T14:57:23Z</time></trkpt><trkpt lat="44.15815923091801" lon="10.009928822057454"><ele>571.0</ele><time>2026-04-12T14:57:24Z</time></trkpt><trkpt lat="44.15813399588931" lon="10.010084831684452"><ele>571.0</ele><time>2026-04-12T14:57:25Z</time></trkpt><trkpt lat="44.15811320542627" lon="10.010235160588406"><ele>571.0</ele><time>2026-04-12T14:57:26Z</time></trkpt><trkpt lat="44.15811272781414" lon="10.010385657115386"><ele>571.0</ele><time>2026-04-12T14:57:27Z</time></trkpt><trkpt lat="44.15813562539538" lon="10.010535262555463"><ele>571.0</ele><time>2026-04-12T14:57:28Z</time></trkpt><trkpt lat="44.158177601842795" lon="10.010685422639659"><ele>571.0</ele><time>2026-04-12T14:57:29Z</time></trkpt><trkpt lat="44.15823475132769" lon="10.010848438296698"><ele>577.0</ele><time>2026-04-12T14:57:30Z</time></trkpt><trkpt lat="44.1582960728965" lon="10.011027380515998"><ele>583.0</ele><time>2026-04-12T14:57:31Z</time></trkpt><trkpt lat="44.15834846922011" lon="10.01122202556274"><ele>589.0</ele><time>2026-04-12T14:57:32Z</time></trkpt><trkpt lat="44.15839576688376" lon="10.011389203921604"><ele>595.0</ele><time>2026-04-12T14:57:33Z</time></trkpt><trkpt lat="44.15843289384119" lon="10.011542966869063"><ele>593.4</ele><time>2026-04-12T14:57:34Z</time></trkpt><trkpt lat="44.15847918477453" lon="10.011678028108497"><ele>591.8</ele><time>2026-04-12T14:57:35Z</time></trkpt><trkpt lat="44.15850294409781" lon="10.01182828618552"><ele>590.2</ele><time>2026-04-12T14:57:36Z</time></trkpt><trkpt lat="44.15850503409762" lon="10.011986856233213"><ele>588.6</ele><time>2026-04-12T14:57:37Z</time></trkpt><trkpt lat="44.15848665583671" lon="10.012146353927378"><ele>587.0</ele><time>2026-04-12T14:57:38Z</time></trkpt><trkpt lat="44.158442374178335" lon="10.012320025245844"><ele>587.0</ele><time>2026-04-12T14:57:39Z</time></trkpt><trkpt lat="44.15835475372064" lon="10.012486515684119"><ele>587.0</ele><time>2026-04-12T14:57:40Z</time></trkpt><trkpt lat="44.15827534572404" lon="10.01267266426725"><ele>587.0</ele><time>2026-04-12T14:57:41Z</time></trkpt><trkpt lat="44.15819026739734" lon="10.012866403940098"><ele>586.0</ele><time>2026-04-12T14:57:42Z</time></trkpt><trkpt lat="44.15809614131576" lon="10.013061900375552"><ele>585.0</ele><time>2026-04-12T14:57:43Z</time></trkpt><trkpt lat="44.15798309872926" lon="10.01324437302251"><ele>584.0</ele><time>2026-04-12T14:57:44Z</time></trkpt><trkpt lat="44.15787602279487" lon="10.01339623451943"><ele>584.0</ele><time>2026-04-12T14:57:45Z</time></trkpt><trkpt lat="44.15777434736037" lon="10.013532737031413"><ele>584.0</ele><time>2026-04-12T14:57:46Z</time></trkpt><trkpt lat="44.15767057232623" lon="10.01364983065287"><ele>584.0</ele><time>2026-04-12T14:57:47Z</time></trkpt><trkpt lat="44.15757932411886" lon="10.01376112752548"><ele>584.0</ele><time>2026-04-12T14:57:48Z</time></trkpt><trkpt lat="44.15747833533603" lon="10.013860770672325"><ele>584.0</ele><time>2026-04-12T14:57:49Z</time></trkpt><trkpt lat="44.157383118304345" lon="10.01398334390229"><ele>584.0</ele><time>2026-04-12T14:57:50Z</time></trkpt><trkpt lat="44.157301076468855" lon="10.014125040864084"><ele>584.0</ele><time>2026-04-12T14:57:51Z</time></trkpt><trkpt lat="44.15720964626591" lon="10.01423407812877"><ele>584.0</ele><time>2026-04-12T14:57:52Z</time></trkpt><trkpt lat="44.157116964392166" lon="10.014321150095505"><ele>583.2</ele><time>2026-04-12T14:57:53Z</time></trkpt><trkpt lat="44.15702179104172" lon="10.014397973565002"><ele>582.4</ele><time>2026-04-12T14:57:54Z</time></trkpt><trkpt lat="44.15691599187056" lon="10.014449062686275"><ele>581.6</ele><time>2026-04-12T14:57:55Z</time></trkpt><trkpt lat="44.15681073652615" lon="10.014462035059148"><ele>580.8</ele><time>2026-04-12T14:57:56Z</time></trkpt><trkpt lat="44.15670513320142" lon="10.014508480665844"><ele>580.0</ele><time>2026-04-12T14:57:57Z</time></trkpt><trkpt lat="44.15659907281874" lon="10.014568496961735"><ele>576.0</ele><time>2026-04-12T14:57:58Z</time></trkpt><trkpt lat="44.15648894866746" lon="10.014638520371888"><ele>572.0</ele><time>2026-04-12T14:57:59Z</time></trkpt><trkpt lat="44.15637956756147" lon="10.014733727526396"><ele>568.0</ele><time>2026-04-12T14:58:00Z</time></trkpt><trkpt lat="44.156273283759916" lon="10.014840162520544"><ele>564.0</ele><time>2026-04-12T14:58:01Z</time></trkpt><trkpt lat="44.156173979703865" lon="10.014958838924343"><ele>567.75</ele><time>2026-04-12T14:58:02Z</time></trkpt><trkpt lat="44.15609125924553" lon="10.015077408267086"><ele>571.5</ele><time>2026-04-12T14:58:03Z</time></trkpt><trkpt lat="44.15598338534656" lon="10.015149096402022"><ele>575.25</ele><time>2026-04-12T14:58:04Z</time></trkpt><trkpt lat="44.155861775852756" lon="10.015185829378856"><ele>579.0</ele><time>2026-04-12T14:58:05Z</time></trkpt><trkpt lat="44.15573043134672" lon="10.01518886250907"><ele>579.0</ele><time>2026-04-12T14:58:06Z</time></trkpt><trkpt lat="44.15559195633101" lon="10.015181154012927"><ele>579.0</ele><time>2026-04-12T14:58:07Z</time></trkpt><trkpt lat="44.15544937248892" lon="10.01516219862305"><ele>579.0</ele><time>2026-04-12T14:58:08Z</time></trkpt><trkpt lat="44.1552993338548" lon="10.015121904502006"><ele>579.0</ele><time>2026-04-12T14:58:09Z</time></trkpt><trkpt lat="44.15514621087567" lon="10.015039539587741"><ele>574.25</ele><time>2026-04-12T14:58:09.999Z</time></trkpt><trkpt lat="44.1549959223771" lon="10.014984500263505"><ele>569.5</ele><time>2026-04-12T14:58:10.999Z</time></trkpt><trkpt lat="44.15485601966322" lon="10.014952412986574"><ele>564.75</ele><time>2026-04-12T14:58:11.999Z</time></trkpt><trkpt lat="44.154726069166344" lon="10.014904797491482"><ele>560.0</ele><time>2026-04-12T14:58:12.999Z</time></trkpt><trkpt lat="44.1546039505619" lon="10.014863775600627"><ele>560.0</ele><time>2026-04-12T14:58:13.999Z</time></trkpt><trkpt lat="44.154489054071405" lon="10.014820561801088"><ele>560.0</ele><time>2026-04-12T14:58:14.999Z</time></trkpt><trkpt lat="44.15438508447161" lon="10.014756376397429"><ele>560.0</ele><time>2026-04-12T14:58:15.999Z</time></trkpt><trkpt lat="44.15428081920824" lon="10.014712737518497"><ele>560.0</ele><time>2026-04-12T14:58:16.999Z</time></trkpt><trkpt lat="44.15418829308363" lon="10.014663051518067"><ele>560.0</ele><time>2026-04-12T14:58:17.999Z</time></trkpt><trkpt lat="44.1540985543774" lon="10.014618651399058"><ele>559.5</ele><time>2026-04-12T14:58:18.999Z</time></trkpt><trkpt lat="44.154027452713734" lon="10.014546503404793"><ele>559.0</ele><time>2026-04-12T14:58:19.999Z</time></trkpt><trkpt lat="44.15396639934389" lon="10.01447468344912"><ele>558.5</ele><time>2026-04-12T14:58:20.999Z</time></trkpt><trkpt lat="44.15390673045012" lon="10.014411744489017"><ele>558.0</ele><time>2026-04-12T14:58:21.999Z</time></trkpt><trkpt lat="44.15384416348232" lon="10.014358394133122"><ele>557.5</ele><time>2026-04-12T14:58:22.999Z</time></trkpt><trkpt lat="44.153780662918685" lon="10.014304080381326"><ele>557.0</ele><time>2026-04-12T14:58:23.999Z</time></trkpt><trkpt lat="44.153700402088354" lon="10.014288489210378"><ele>557.0</ele><time>2026-04-12T14:58:24.999Z</time></trkpt><trkpt lat="44.15361253660532" lon="10.014308592176027"><ele>557.0</ele><time>2026-04-12T14:58:25.999Z</time></trkpt><trkpt lat="44.15352822140219" lon="10.014364373512059"><ele>557.0</ele><time>2026-04-12T14:58:26.999Z</time></trkpt><trkpt lat="44.15344871938532" lon="10.014448782825369"><ele>557.0</ele><time>2026-04-12T14:58:27.999Z</time></trkpt><trkpt lat="44.15338798256893" lon="10.014577105821074"><ele>557.0</ele><time>2026-04-12T14:58:28.999Z</time></trkpt><trkpt lat="44.15330977914641" lon="10.014683409019568"><ele>557.0</ele><time>2026-04-12T14:58:29.999Z</time></trkpt><trkpt lat="44.153231804442576" lon="10.014783816819502"><ele>557.0</ele><time>2026-04-12T14:58:30.999Z</time></trkpt><trkpt lat="44.15314966142907" lon="10.014877377254614"><ele>557.0</ele><time>2026-04-12T14:58:31.999Z</time></trkpt><trkpt lat="44.15306280156449" lon="10.014962008700648"><ele>557.0</ele><time>2026-04-12T14:58:32.999Z</time></trkpt><trkpt lat="44.15297200949184" lon="10.015037937512405"><ele>557.0</ele><time>2026-04-12T14:58:33.999Z</time></trkpt><trkpt lat="44.152879825513644" lon="10.015102748851925"><ele>552.8000000000001</ele><time>2026-04-12T14:58:34.999Z</time></trkpt><trkpt lat="44.1528026213831" lon="10.015169920589624"><ele>548.6</ele><time>2026-04-12T14:58:35.999Z</time></trkpt><trkpt lat="44.15272402586416" lon="10.01524896710619"><ele>544.4000000000001</ele><time>2026-04-12T14:58:36.999Z</time></trkpt><trkpt lat="44.15266651481495" lon="10.015368826492532"><ele>540.2</ele><time>2026-04-12T14:58:37.999Z</time></trkpt><trkpt lat="44.15260947804296" lon="10.015500938255641"><ele>536.0</ele><time>2026-04-12T14:58:38.999Z</time></trkpt><trkpt lat="44.15256500241559" lon="10.015639449670767"><ele>536.0</ele><time>2026-04-12T14:58:39.999Z</time></trkpt><trkpt lat="44.15250853914795" lon="10.015757469404976"><ele>536.0</ele><time>2026-04-12T14:58:40.999Z</time></trkpt><trkpt lat="44.15245658311361" lon="10.015879810778644"><ele>536.0</ele><time>2026-04-12T14:58:41.999Z</time></trkpt><trkpt lat="44.15240900651442" lon="10.01599276400508"><ele>536.0</ele><time>2026-04-12T14:58:42.999Z</time></trkpt><trkpt lat="44.15236202319981" lon="10.016093186218894"><ele>536.0</ele><time>2026-04-12T14:58:43.999Z</time></trkpt><trkpt lat="44.152310848173016" lon="10.016191597122834"><ele>534.8</ele><time>2026-04-12T14:58:44.999Z</time></trkpt><trkpt lat="44.152246744003556" lon="10.016283739808657"><ele>533.6</ele><time>2026-04-12T14:58:45.999Z</time></trkpt><trkpt lat="44.15216916234885" lon="10.01636562638005"><ele>532.4</ele><time>2026-04-12T14:58:46.999Z</time></trkpt><trkpt lat="44.15207661624163" lon="10.016430762734233"><ele>531.2</ele><time>2026-04-12T14:58:47.999Z</time></trkpt><trkpt lat="44.15198864880518" lon="10.016486231713802"><ele>530.0</ele><time>2026-04-12T14:58:48.999Z</time></trkpt><trkpt lat="44.15191348674891" lon="10.016548038134093"><ele>530.0</ele><time>2026-04-12T14:58:49.999Z</time></trkpt><trkpt lat="44.1518590358404" lon="10.016610261099519"><ele>530.0</ele><time>2026-04-12T14:58:50.999Z</time></trkpt><trkpt lat="44.15182373653096" lon="10.01668356521727"><ele>530.0</ele><time>2026-04-12T14:58:51.999Z</time></trkpt><trkpt lat="44.151789178860746" lon="10.016841899085351"><ele>530.0</ele><time>2026-04-12T14:58:53.999Z</time></trkpt><trkpt lat="44.151806534971534" lon="10.017019644396152"><ele>530.0</ele><time>2026-04-12T14:58:55.999Z</time></trkpt><trkpt lat="44.15184791332734" lon="10.01710838088876"><ele>531.8333333333333</ele><time>2026-04-12T14:58:56.999Z</time></trkpt><trkpt lat="44.151905718847125" lon="10.017184431848012"><ele>533.6666666666666</ele><time>2026-04-12T14:58:57.999Z</time></trkpt><trkpt lat="44.15197123739042" lon="10.017255356803048"><ele>535.5</ele><time>2026-04-12T14:58:58.999Z</time></trkpt><trkpt lat="44.15203863077125" lon="10.01732452558675"><ele>537.3333333333334</ele><time>2026-04-12T14:58:59.999Z</time></trkpt><trkpt lat="44.15210338663678" lon="10.017403315566176"><ele>539.1666666666667</ele><time>2026-04-12T14:59:00.999Z</time></trkpt><trkpt lat="44.15215927474191" lon="10.017494124122646"><ele>541.0</ele><time>2026-04-12T14:59:01.999Z</time></trkpt><trkpt lat="44.15219037485264" lon="10.017589377333161"><ele>541.0</ele><time>2026-04-12T14:59:02.999Z</time></trkpt><trkpt lat="44.15220206256845" lon="10.01769249012095"><ele>541.0</ele><time>2026-04-12T14:59:03.999Z</time></trkpt><trkpt lat="44.152187249442775" lon="10.01779985246493"><ele>541.0</ele><time>2026-04-12T14:59:04.999Z</time></trkpt><trkpt lat="44.152149810943165" lon="10.017905279835926"><ele>541.0</ele><time>2026-04-12T14:59:05.999Z</time></trkpt><trkpt lat="44.152097164275446" lon="10.018007694265814"><ele>541.0</ele><time>2026-04-12T14:59:06.999Z</time></trkpt><trkpt lat="44.15203558587148" lon="10.018116234330027"><ele>541.0</ele><time>2026-04-12T14:59:07.999Z</time></trkpt><trkpt lat="44.15196921361699" lon="10.018218834219486"><ele>540.2</ele><time>2026-04-12T14:59:08.999Z</time></trkpt><trkpt lat="44.151913757744346" lon="10.01831824642077"><ele>539.4000000000001</ele><time>2026-04-12T14:59:09.999Z</time></trkpt><trkpt lat="44.151865733218195" lon="10.018430058990802"><ele>538.6</ele><time>2026-04-12T14:59:11Z</time></trkpt><trkpt lat="44.151827209153076" lon="10.018548972468372"><ele>537.8000000000001</ele><time>2026-04-12T14:59:12Z</time></trkpt><trkpt lat="44.151794844568236" lon="10.018661754150708"><ele>537.0</ele><time>2026-04-12T14:59:13Z</time></trkpt><trkpt lat="44.15176352941879" lon="10.01878210127054"><ele>537.0</ele><time>2026-04-12T14:59:14Z</time></trkpt><trkpt lat="44.15172033888731" lon="10.01890555765744"><ele>537.0</ele><time>2026-04-12T14:59:15Z</time></trkpt><trkpt lat="44.15167850732731" lon="10.019023882638866"><ele>537.0</ele><time>2026-04-12T14:59:16Z</time></trkpt><trkpt lat="44.151634087738074" lon="10.019141725071048"><ele>537.0</ele><time>2026-04-12T14:59:17Z</time></trkpt><trkpt lat="44.15158397349765" lon="10.019267094529"><ele>537.0</ele><time>2026-04-12T14:59:18Z</time></trkpt><trkpt lat="44.15153168093707" lon="10.019398067409545"><ele>533.8000000000001</ele><time>2026-04-12T14:59:19Z</time></trkpt><trkpt lat="44.151477018839955" lon="10.019520425675966"><ele>530.6</ele><time>2026-04-12T14:59:20Z</time></trkpt><trkpt lat="44.15141698131245" lon="10.019631588207714"><ele>527.4000000000001</ele><time>2026-04-12T14:59:21Z</time></trkpt><trkpt lat="44.151349595239665" lon="10.01973965638128"><ele>524.2</ele><time>2026-04-12T14:59:22Z</time></trkpt><trkpt lat="44.15127331203822" lon="10.019844400129672"><ele>521.0</ele><time>2026-04-12T14:59:23Z</time></trkpt><trkpt lat="44.151193708490865" lon="10.019952013979358"><ele>522.8</ele><time>2026-04-12T14:59:24Z</time></trkpt><trkpt lat="44.15111379489332" lon="10.020061167254743"><ele>524.6</ele><time>2026-04-12T14:59:25Z</time></trkpt><trkpt lat="44.15104277971145" lon="10.020160421982931"><ele>526.4</ele><time>2026-04-12T14:59:26Z</time></trkpt><trkpt lat="44.15097433897092" lon="10.020248773338452"><ele>528.2</ele><time>2026-04-12T14:59:27Z</time></trkpt><trkpt lat="44.150902973614684" lon="10.020309251935"><ele>530.0</ele><time>2026-04-12T14:59:28Z</time></trkpt><trkpt lat="44.15083770232" lon="10.020352953387514"><ele>530.0</ele><time>2026-04-12T14:59:29Z</time></trkpt><trkpt lat="44.15072582395342" lon="10.020420461896732"><ele>530.0</ele><time>2026-04-12T14:59:31Z</time></trkpt><trkpt lat="44.15063642866366" lon="10.020522192911846"><ele>530.0</ele><time>2026-04-12T14:59:33Z</time></trkpt><trkpt lat="44.15055547069956" lon="10.020657429794792"><ele>530.0</ele><time>2026-04-12T14:59:35Z</time></trkpt><trkpt lat="44.15048296389839" lon="10.0208118962183"><ele>529.3333333333333</ele><time>2026-04-12T14:59:37Z</time></trkpt><trkpt lat="44.15043404027923" lon="10.020893784956796"><ele>528.6666666666666</ele><time>2026-04-12T14:59:38Z</time></trkpt><trkpt lat="44.15036706926518" lon="10.020957134667624"><ele>528.0</ele><time>2026-04-12T14:59:39Z</time></trkpt><trkpt lat="44.15028439284548" lon="10.02099922262522"><ele>527.3333333333334</ele><time>2026-04-12T14:59:40Z</time></trkpt><trkpt lat="44.150194707366886" lon="10.021037302419352"><ele>526.6666666666667</ele><time>2026-04-12T14:59:41Z</time></trkpt><trkpt lat="44.15009848165157" lon="10.021074765710608"><ele>526.0</ele><time>2026-04-12T14:59:42Z</time></trkpt><trkpt lat="44.14999848508337" lon="10.021112224904137"><ele>526.0</ele><time>2026-04-12T14:59:43Z</time></trkpt><trkpt lat="44.14989695285697" lon="10.021146943785725"><ele>526.0</ele><time>2026-04-12T14:59:44Z</time></trkpt><trkpt lat="44.14979305361543" lon="10.021171346615587"><ele>526.0</ele><time>2026-04-12T14:59:45Z</time></trkpt><trkpt lat="44.149688686054034" lon="10.021184941708691"><ele>526.0</ele><time>2026-04-12T14:59:46Z</time></trkpt><trkpt lat="44.14958559439716" lon="10.02119031057918"><ele>526.0</ele><time>2026-04-12T14:59:47Z</time></trkpt><trkpt lat="44.149481508183904" lon="10.021182690824517"><ele>524.8</ele><time>2026-04-12T14:59:48Z</time></trkpt><trkpt lat="44.14937710991197" lon="10.021164057132404"><ele>523.6</ele><time>2026-04-12T14:59:49Z</time></trkpt><trkpt lat="44.14927130806284" lon="10.021142276186819"><ele>522.4</ele><time>2026-04-12T14:59:50Z</time></trkpt><trkpt lat="44.14916900160891" lon="10.021122519202741"><ele>521.2</ele><time>2026-04-12T14:59:51Z</time></trkpt><trkpt lat="44.14906947245353" lon="10.021109883125996"><ele>520.0</ele><time>2026-04-12T14:59:52Z</time></trkpt><trkpt lat="44.14897202645149" lon="10.021109768417734"><ele>518.0</ele><time>2026-04-12T14:59:53Z</time></trkpt><trkpt lat="44.14887772517268" lon="10.021131605043227"><ele>516.0</ele><time>2026-04-12T14:59:54Z</time></trkpt><trkpt lat="44.14878788131299" lon="10.021176920022127"><ele>514.0</ele><time>2026-04-12T14:59:55Z</time></trkpt><trkpt lat="44.148702522976464" lon="10.021240027015432"><ele>512.0</ele><time>2026-04-12T14:59:56Z</time></trkpt><trkpt lat="44.14861698247741" lon="10.02130511009319"><ele>510.0</ele><time>2026-04-12T14:59:57Z</time></trkpt><trkpt lat="44.14852936451678" lon="10.021368563742397"><ele>510.0</ele><time>2026-04-12T14:59:58Z</time></trkpt><trkpt lat="44.148439340801666" lon="10.021421492660993"><ele>510.0</ele><time>2026-04-12T14:59:59Z</time></trkpt><trkpt lat="44.14834812293434" lon="10.02146433276861"><ele>510.0</ele><time>2026-04-12T15:00:00Z</time></trkpt><trkpt lat="44.148256944937124" lon="10.021513868999191"><ele>510.0</ele><time>2026-04-12T15:00:01Z</time></trkpt><trkpt lat="44.1481658616549" lon="10.021562532719619"><ele>510.0</ele><time>2026-04-12T15:00:02Z</time></trkpt><trkpt lat="44.148075538666276" lon="10.02161112224325"><ele>509.8</ele><time>2026-04-12T15:00:03Z</time></trkpt><trkpt lat="44.147987396227805" lon="10.021646973017742"><ele>509.6</ele><time>2026-04-12T15:00:04Z</time></trkpt><trkpt lat="44.14790903617117" lon="10.02171227114894"><ele>509.4</ele><time>2026-04-12T15:00:05Z</time></trkpt><trkpt lat="44.14783557841831" lon="10.021793761662705"><ele>509.2</ele><time>2026-04-12T15:00:06Z</time></trkpt><trkpt lat="44.14777814135151" lon="10.021884319418527"><ele>509.0</ele><time>2026-04-12T15:00:07Z</time></trkpt><trkpt lat="44.14772885744874" lon="10.021987919692458"><ele>509.0</ele><time>2026-04-12T15:00:08Z</time></trkpt><trkpt lat="44.14768546444647" lon="10.022105277374058"><ele>509.0</ele><time>2026-04-12T15:00:09Z</time></trkpt><trkpt lat="44.147647238294674" lon="10.022233454601658"><ele>509.0</ele><time>2026-04-12T15:00:10Z</time></trkpt><trkpt lat="44.14761057542911" lon="10.022380019287747"><ele>509.0</ele><time>2026-04-12T15:00:11Z</time></trkpt><trkpt lat="44.14757140607947" lon="10.022512206224645"><ele>509.0</ele><time>2026-04-12T15:00:12Z</time></trkpt><trkpt lat="44.147522699121794" lon="10.022637759794625"><ele>510.4</ele><time>2026-04-12T15:00:13Z</time></trkpt><trkpt lat="44.14746196214914" lon="10.022748716526356"><ele>511.79999999999995</ele><time>2026-04-12T15:00:14Z</time></trkpt><trkpt lat="44.14739346565283" lon="10.02285479900291"><ele>513.2</ele><time>2026-04-12T15:00:15Z</time></trkpt><trkpt lat="44.14732628570155" lon="10.022953595507484"><ele>514.6</ele><time>2026-04-12T15:00:16Z</time></trkpt><trkpt lat="44.147263471610906" lon="10.023047911830442"><ele>516.0</ele><time>2026-04-12T15:00:17Z</time></trkpt><trkpt lat="44.147199285583724" lon="10.023134167063418"><ele>514.4</ele><time>2026-04-12T15:00:18Z</time></trkpt><trkpt lat="44.14713507445838" lon="10.02321600166794"><ele>512.8</ele><time>2026-04-12T15:00:19Z</time></trkpt><trkpt lat="44.14706541590105" lon="10.023293827131681"><ele>511.19999999999993</ele><time>2026-04-12T15:00:20Z</time></trkpt><trkpt lat="44.14699460072133" lon="10.023370351709502"><ele>509.59999999999997</ele><time>2026-04-12T15:00:21Z</time></trkpt><trkpt lat="44.14691996518118" lon="10.023459106203159"><ele>508.0</ele><time>2026-04-12T15:00:22Z</time></trkpt><trkpt lat="44.14685305538647" lon="10.023570716643274"><ele>508.0</ele><time>2026-04-12T15:00:23Z</time></trkpt><trkpt lat="44.14680175103355" lon="10.02371039098877"><ele>507.99999999999994</ele><time>2026-04-12T15:00:23.999Z</time></trkpt><trkpt lat="44.146763835633365" lon="10.023863791759043"><ele>507.99999999999994</ele><time>2026-04-12T15:00:24.999Z</time></trkpt><trkpt lat="44.14673202450804" lon="10.024002312075924"><ele>508.0</ele><time>2026-04-12T15:00:25.999Z</time></trkpt><trkpt lat="44.146697351593616" lon="10.024112858917043"><ele>508.0</ele><time>2026-04-12T15:00:26.999Z</time></trkpt><trkpt lat="44.146658641094994" lon="10.024200114864833"><ele>507.59999999999997</ele><time>2026-04-12T15:00:27.999Z</time></trkpt><trkpt lat="44.14658762681104" lon="10.024306533341415"><ele>507.19999999999993</ele><time>2026-04-12T15:00:29.999Z</time></trkpt><trkpt lat="44.146546394448144" lon="10.024404324389476"><ele>506.8</ele><time>2026-04-12T15:00:34.999Z</time></trkpt><trkpt lat="44.146444008884295" lon="10.024437729385788"><ele>506.4</ele><time>2026-04-12T15:00:35.999Z</time></trkpt><trkpt lat="44.146353670897376" lon="10.02452732365318"><ele>506.0</ele><time>2026-04-12T15:00:36.999Z</time></trkpt><trkpt lat="44.14625155281884" lon="10.024636271523882"><ele>506.0</ele><time>2026-04-12T15:00:37.999Z</time></trkpt><trkpt lat="44.14614238164745" lon="10.024751051638411"><ele>506.0</ele><time>2026-04-12T15:00:38.999Z</time></trkpt><trkpt lat="44.146042105809116" lon="10.02484242741529"><ele>506.0</ele><time>2026-04-12T15:00:39.999Z</time></trkpt><trkpt lat="44.145943643138935" lon="10.024928628802703"><ele>506.0</ele><time>2026-04-12T15:00:40.999Z</time></trkpt><trkpt lat="44.14582612810423" lon="10.024962401908784"><ele>506.0</ele><time>2026-04-12T15:00:41.999Z</time></trkpt><trkpt lat="44.14571813561185" lon="10.024964057381593"><ele>506.0</ele><time>2026-04-12T15:00:42.999Z</time></trkpt><trkpt lat="44.14561683909759" lon="10.024916509692245"><ele>506.0</ele><time>2026-04-12T15:00:43.999Z</time></trkpt><trkpt lat="44.14550030751564" lon="10.024859529900475"><ele>506.0</ele><time>2026-04-12T15:00:44.999Z</time></trkpt><trkpt lat="44.14538004010089" lon="10.024798038700315"><ele>506.6</ele><time>2026-04-12T15:00:45.999Z</time></trkpt><trkpt lat="44.1452778529518" lon="10.024743062691451"><ele>507.20000000000005</ele><time>2026-04-12T15:00:46.999Z</time></trkpt><trkpt lat="44.14518437019796" lon="10.024694020423576"><ele>507.79999999999995</ele><time>2026-04-12T15:00:47.999Z</time></trkpt><trkpt lat="44.145122727803574" lon="10.024591516500246"><ele>508.4</ele><time>2026-04-12T15:00:48.999Z</time></trkpt><trkpt lat="44.14507898837366" lon="10.02448038806854"><ele>509.0</ele><time>2026-04-12T15:00:49.999Z</time></trkpt><trkpt lat="44.14502362922065" lon="10.024385174456917"><ele>509.0</ele><time>2026-04-12T15:00:50.999Z</time></trkpt><trkpt lat="44.144947267364074" lon="10.024318931654083"><ele>509.0</ele><time>2026-04-12T15:00:51.999Z</time></trkpt><trkpt lat="44.14486437741187" lon="10.02426284551097"><ele>509.0</ele><time>2026-04-12T15:00:52.999Z</time></trkpt><trkpt lat="44.144777337592686" lon="10.024205401659529"><ele>509.0</ele><time>2026-04-12T15:00:53.999Z</time></trkpt><trkpt lat="44.14468387363496" lon="10.024155378466993"><ele>509.0</ele><time>2026-04-12T15:00:54.999Z</time></trkpt><trkpt lat="44.14459261364079" lon="10.024121599181148"><ele>511.99999999999994</ele><time>2026-04-12T15:00:55.999Z</time></trkpt><trkpt lat="44.144514872880954" lon="10.024100231170962"><ele>515.0</ele><time>2026-04-12T15:00:56.999Z</time></trkpt><trkpt lat="44.14444633912513" lon="10.024059743331621"><ele>518.0</ele><time>2026-04-12T15:00:57.999Z</time></trkpt><trkpt lat="44.144390291515286" lon="10.023992843030188"><ele>521.0</ele><time>2026-04-12T15:00:58.999Z</time></trkpt><trkpt lat="44.14435128166399" lon="10.023899039420272"><ele>524.0</ele><time>2026-04-12T15:00:59.999Z</time></trkpt><trkpt lat="44.14432829108474" lon="10.023782635704409"><ele>527.0</ele><time>2026-04-12T15:01:00.999Z</time></trkpt><trkpt lat="44.14431971182823" lon="10.023652715745797"><ele>527.0</ele><time>2026-04-12T15:01:01.999Z</time></trkpt><trkpt lat="44.144312973106956" lon="10.023514944810975"><ele>527.0</ele><time>2026-04-12T15:01:02.999Z</time></trkpt><trkpt lat="44.144309308853316" lon="10.023385387924616"><ele>527.0</ele><time>2026-04-12T15:01:03.999Z</time></trkpt><trkpt lat="44.144292053263264" lon="10.023264390832521"><ele>527.0</ele><time>2026-04-12T15:01:04.999Z</time></trkpt><trkpt lat="44.144272261905215" lon="10.023143941051226"><ele>527.0</ele><time>2026-04-12T15:01:05.999Z</time></trkpt><trkpt lat="44.144245596793596" lon="10.023021247822367"><ele>525.8000000000001</ele><time>2026-04-12T15:01:06.999Z</time></trkpt><trkpt lat="44.14421616507558" lon="10.022892693397813"><ele>524.6</ele><time>2026-04-12T15:01:07.999Z</time></trkpt><trkpt lat="44.14418899513565" lon="10.022764178876004"><ele>523.4000000000001</ele><time>2026-04-12T15:01:08.999Z</time></trkpt><trkpt lat="44.14416892174397" lon="10.022648076745826"><ele>522.2</ele><time>2026-04-12T15:01:09.999Z</time></trkpt><trkpt lat="44.144146784818055" lon="10.022514387403834"><ele>521.0</ele><time>2026-04-12T15:01:10.999Z</time></trkpt><trkpt lat="44.14414597639258" lon="10.022350355637407"><ele>520.25</ele><time>2026-04-12T15:01:11.999Z</time></trkpt><trkpt lat="44.14412480131299" lon="10.022173998645023"><ele>519.5</ele><time>2026-04-12T15:01:12.999Z</time></trkpt><trkpt lat="44.14410083879257" lon="10.021986212838868"><ele>518.75</ele><time>2026-04-12T15:01:13.999Z</time></trkpt><trkpt lat="44.14407837243938" lon="10.021794603810786"><ele>518.0</ele><time>2026-04-12T15:01:14.999Z</time></trkpt><trkpt lat="44.14405427012803" lon="10.021596029694386"><ele>517.75</ele><time>2026-04-12T15:01:15.999Z</time></trkpt><trkpt lat="44.144052394293034" lon="10.021397333366824"><ele>517.5</ele><time>2026-04-12T15:01:17Z</time></trkpt><trkpt lat="44.14404295782305" lon="10.021215095337553"><ele>517.25</ele><time>2026-04-12T15:01:18Z</time></trkpt><trkpt lat="44.14402534374383" lon="10.021044471511079"><ele>517.0</ele><time>2026-04-12T15:01:19Z</time></trkpt><trkpt lat="44.1440008601242" lon="10.020880510995312"><ele>517.0</ele><time>2026-04-12T15:01:20Z</time></trkpt><trkpt lat="44.14397707576351" lon="10.0207239689347"><ele>517.0</ele><time>2026-04-12T15:01:21Z</time></trkpt><trkpt lat="44.143948151332275" lon="10.020585987969493"><ele>517.0</ele><time>2026-04-12T15:01:22Z</time></trkpt><trkpt lat="44.14390520163213" lon="10.02046421402507"><ele>517.0</ele><time>2026-04-12T15:01:23Z</time></trkpt><trkpt lat="44.14384007025378" lon="10.02036731721347"><ele>517.0</ele><time>2026-04-12T15:01:24Z</time></trkpt><trkpt lat="44.14376267978991" lon="10.020296993800796"><ele>517.0</ele><time>2026-04-12T15:01:25Z</time></trkpt><trkpt lat="44.14366893384148" lon="10.020259742754607"><ele>517.0</ele><time>2026-04-12T15:01:26Z</time></trkpt><trkpt lat="44.14356252855735" lon="10.020245208727639"><ele>517.0</ele><time>2026-04-12T15:01:27Z</time></trkpt><trkpt lat="44.14344927825073" lon="10.02023623765441"><ele>517.0</ele><time>2026-04-12T15:01:28Z</time></trkpt><trkpt lat="44.143324242902274" lon="10.020231814043887"><ele>517.0</ele><time>2026-04-12T15:01:29Z</time></trkpt><trkpt lat="44.143202443091724" lon="10.020247968272566"><ele>515.25</ele><time>2026-04-12T15:01:30Z</time></trkpt><trkpt lat="44.14309140390904" lon="10.020300650514908"><ele>513.5</ele><time>2026-04-12T15:01:31Z</time></trkpt><trkpt lat="44.142984186554365" lon="10.020385563636832"><ele>511.75</ele><time>2026-04-12T15:01:32Z</time></trkpt><trkpt lat="44.14287755808845" lon="10.020498243969607"><ele>510.0</ele><time>2026-04-12T15:01:33Z</time></trkpt><trkpt lat="44.14277284569958" lon="10.020621530376628"><ele>510.0</ele><time>2026-04-12T15:01:34Z</time></trkpt><trkpt lat="44.14269553736089" lon="10.020748017887165"><ele>510.0</ele><time>2026-04-12T15:01:35Z</time></trkpt><trkpt lat="44.14264578742658" lon="10.020893847793767"><ele>510.0</ele><time>2026-04-12T15:01:36Z</time></trkpt><trkpt lat="44.14262819221368" lon="10.021061335734926"><ele>510.0</ele><time>2026-04-12T15:01:37Z</time></trkpt><trkpt lat="44.14262250737506" lon="10.021249659497787"><ele>512.75</ele><time>2026-04-12T15:01:38Z</time></trkpt><trkpt lat="44.14262016170487" lon="10.02144256351007"><ele>515.5</ele><time>2026-04-12T15:01:39Z</time></trkpt><trkpt lat="44.14261190961653" lon="10.021613992644363"><ele>518.25</ele><time>2026-04-12T15:01:40Z</time></trkpt><trkpt lat="44.1425882581243" lon="10.02175388445447"><ele>521.0</ele><time>2026-04-12T15:01:41Z</time></trkpt><trkpt lat="44.14253799038614" lon="10.02185491141993"><ele>520.5</ele><time>2026-04-12T15:01:42Z</time></trkpt><trkpt lat="44.14246522579945" lon="10.021926152045648"><ele>520.0</ele><time>2026-04-12T15:01:43Z</time></trkpt><trkpt lat="44.14234715309629" lon="10.02194212971995"><ele>519.5</ele><time>2026-04-12T15:01:44Z</time></trkpt><trkpt lat="44.14223229419884" lon="10.022010753451664"><ele>519.0</ele><time>2026-04-12T15:01:45Z</time></trkpt><trkpt lat="44.1421014306332" lon="10.02209097114112"><ele>519.0</ele><time>2026-04-12T15:01:46Z</time></trkpt><trkpt lat="44.14197753184759" lon="10.022193760323763"><ele>519.0</ele><time>2026-04-12T15:01:47Z</time></trkpt><trkpt lat="44.14185920198496" lon="10.02226518360318"><ele>519.0</ele><time>2026-04-12T15:01:48Z</time></trkpt><trkpt lat="44.14175565786547" lon="10.02232128912534"><ele>519.0</ele><time>2026-04-12T15:01:49Z</time></trkpt><trkpt lat="44.141667232748176" lon="10.022351753667364"><ele>519.0</ele><time>2026-04-12T15:01:50Z</time></trkpt><trkpt lat="44.14158547447181" lon="10.022335498056691"><ele>519.0</ele><time>2026-04-12T15:01:51Z</time></trkpt><trkpt lat="44.14151459268879" lon="10.02226034682005"><ele>519.0</ele><time>2026-04-12T15:01:52Z</time></trkpt><trkpt lat="44.141478645020115" lon="10.02214222946658"><ele>519.0</ele><time>2026-04-12T15:01:53Z</time></trkpt><trkpt lat="44.14140847104023" lon="10.022035752338057"><ele>519.0</ele><time>2026-04-12T15:01:54Z</time></trkpt><trkpt lat="44.14133323165622" lon="10.02194984140994"><ele>517.8</ele><time>2026-04-12T15:01:55Z</time></trkpt><trkpt lat="44.14124499334035" lon="10.021888447539972"><ele>516.5999999999999</ele><time>2026-04-12T15:01:56Z</time></trkpt><trkpt lat="44.14114599939676" lon="10.021857192586053"><ele>515.4</ele><time>2026-04-12T15:01:57Z</time></trkpt><trkpt lat="44.1410427126518" lon="10.021850939083167"><ele>514.1999999999999</ele><time>2026-04-12T15:01:58Z</time></trkpt><trkpt lat="44.14093686741286" lon="10.021833178461737"><ele>513.0</ele><time>2026-04-12T15:01:59Z</time></trkpt><trkpt lat="44.14083420136968" lon="10.02181532303179"><ele>513.0</ele><time>2026-04-12T15:02:00Z</time></trkpt><trkpt lat="44.140738917821864" lon="10.021803437830961"><ele>513.0</ele><time>2026-04-12T15:02:01Z</time></trkpt><trkpt lat="44.140646078136704" lon="10.021821008966695"><ele>513.0</ele><time>2026-04-12T15:02:02Z</time></trkpt><trkpt lat="44.140555194271855" lon="10.021873114253427"><ele>513.0</ele><time>2026-04-12T15:02:03Z</time></trkpt><trkpt lat="44.14047505853339" lon="10.02195607240397"><ele>513.0</ele><time>2026-04-12T15:02:04Z</time></trkpt><trkpt lat="44.140412626750496" lon="10.02206819771847"><ele>514.4</ele><time>2026-04-12T15:02:05Z</time></trkpt><trkpt lat="44.14036767201925" lon="10.022184625290105"><ele>515.8</ele><time>2026-04-12T15:02:06Z</time></trkpt><trkpt lat="44.140326860004954" lon="10.022298528655652"><ele>517.2</ele><time>2026-04-12T15:02:07Z</time></trkpt><trkpt lat="44.14026606366358" lon="10.022404535992711"><ele>518.6</ele><time>2026-04-12T15:02:08Z</time></trkpt><trkpt lat="44.14017976371892" lon="10.022487809003199"><ele>520.0</ele><time>2026-04-12T15:02:09Z</time></trkpt><trkpt lat="44.14008193464363" lon="10.022550683374655"><ele>520.0</ele><time>2026-04-12T15:02:10Z</time></trkpt><trkpt lat="44.13999597527041" lon="10.022605302863536"><ele>520.0</ele><time>2026-04-12T15:02:11Z</time></trkpt><trkpt lat="44.13991338908347" lon="10.022643751825706"><ele>520.0</ele><time>2026-04-12T15:02:12Z</time></trkpt><trkpt lat="44.13981989437193" lon="10.0226784674061"><ele>520.0</ele><time>2026-04-12T15:02:13Z</time></trkpt><trkpt lat="44.139718107916714" lon="10.022715345378932"><ele>520.0</ele><time>2026-04-12T15:02:14Z</time></trkpt><trkpt lat="44.13961003499854" lon="10.02275577464852"><ele>517.2</ele><time>2026-04-12T15:02:15Z</time></trkpt><trkpt lat="44.13949560347384" lon="10.022797590361959"><ele>514.4</ele><time>2026-04-12T15:02:16Z</time></trkpt><trkpt lat="44.13938067697821" lon="10.02283877899964"><ele>511.6</ele><time>2026-04-12T15:02:17Z</time></trkpt><trkpt lat="44.13927665886595" lon="10.022875127003545"><ele>508.8</ele><time>2026-04-12T15:02:18Z</time></trkpt><trkpt lat="44.139182159292055" lon="10.022922379230842"><ele>506.0</ele><time>2026-04-12T15:02:19Z</time></trkpt><trkpt lat="44.13910103113342" lon="10.022989090195576"><ele>506.8</ele><time>2026-04-12T15:02:20Z</time></trkpt><trkpt lat="44.13902535893664" lon="10.023081352192305"><ele>507.6</ele><time>2026-04-12T15:02:21Z</time></trkpt><trkpt lat="44.13895296160253" lon="10.023192805132027"><ele>508.4</ele><time>2026-04-12T15:02:22Z</time></trkpt><trkpt lat="44.13889595834117" lon="10.023310424267814"><ele>509.2</ele><time>2026-04-12T15:02:23Z</time></trkpt><trkpt lat="44.13883732261367" lon="10.023415314251588"><ele>510.0</ele><time>2026-04-12T15:02:23.999Z</time></trkpt><trkpt lat="44.138776201085555" lon="10.023502898528392"><ele>510.0</ele><time>2026-04-12T15:02:24.999Z</time></trkpt><trkpt lat="44.13871418619584" lon="10.02356996377698"><ele>510.0</ele><time>2026-04-12T15:02:25.999Z</time></trkpt><trkpt lat="44.13863431761434" lon="10.023586395288959"><ele>510.0</ele><time>2026-04-12T15:02:26.999Z</time></trkpt><trkpt lat="44.13854336836697" lon="10.023628945837862"><ele>510.0</ele><time>2026-04-12T15:02:27.999Z</time></trkpt><trkpt lat="44.138444509890775" lon="10.023629463063358"><ele>510.0</ele><time>2026-04-12T15:02:28.999Z</time></trkpt><trkpt lat="44.138335292828565" lon="10.02362366009767"><ele>506.25</ele><time>2026-04-12T15:02:29.999Z</time></trkpt><trkpt lat="44.138217468948135" lon="10.023602542457851"><ele>502.5</ele><time>2026-04-12T15:02:30.999Z</time></trkpt><trkpt lat="44.138081469468105" lon="10.023558492854251"><ele>498.75</ele><time>2026-04-12T15:02:31.999Z</time></trkpt><trkpt lat="44.13793937861434" lon="10.023494093355891"><ele>495.0</ele><time>2026-04-12T15:02:32.999Z</time></trkpt><trkpt lat="44.13780642016151" lon="10.023427740727753"><ele>495.0</ele><time>2026-04-12T15:02:33.999Z</time></trkpt><trkpt lat="44.137696668177284" lon="10.02336257055892"><ele>495.0</ele><time>2026-04-12T15:02:34.999Z</time></trkpt><trkpt lat="44.13761594159467" lon="10.023273238216014"><ele>495.0</ele><time>2026-04-12T15:02:35.999Z</time></trkpt><trkpt lat="44.13753622623569" lon="10.02320701758601"><ele>495.0</ele><time>2026-04-12T15:02:36.999Z</time></trkpt><trkpt lat="44.13747369715491" lon="10.023152662998736"><ele>495.0</ele><time>2026-04-12T15:02:37.999Z</time></trkpt><trkpt lat="44.13741453659094" lon="10.023122291735719"><ele>494.6</ele><time>2026-04-12T15:02:38.999Z</time></trkpt><trkpt lat="44.137348233207895" lon="10.023033187305675"><ele>494.2</ele><time>2026-04-12T15:02:40.999Z</time></trkpt><trkpt lat="44.13742527044655" lon="10.02287964361577"><ele>493.79999999999995</ele><time>2026-04-12T15:02:43.999Z</time></trkpt><trkpt lat="44.137494169470045" lon="10.022836323870532"><ele>493.4</ele><time>2026-04-12T15:02:44.999Z</time></trkpt><trkpt lat="44.137575283546305" lon="10.022786626307001"><ele>493.0</ele><time>2026-04-12T15:02:45.999Z</time></trkpt><trkpt lat="44.137665583265665" lon="10.022730545720725"><ele>493.0</ele><time>2026-04-12T15:02:46.999Z</time></trkpt><trkpt lat="44.13776467154285" lon="10.022674467566892"><ele>493.0</ele><time>2026-04-12T15:02:47.999Z</time></trkpt><trkpt lat="44.137871101474815" lon="10.022607623772739"><ele>493.0</ele><time>2026-04-12T15:02:48.999Z</time></trkpt><trkpt lat="44.13797547841547" lon="10.022536879395675"><ele>493.0</ele><time>2026-04-12T15:02:49.999Z</time></trkpt><trkpt lat="44.138074652330936" lon="10.022462427432506"><ele>491.0</ele><time>2026-04-12T15:02:50.999Z</time></trkpt><trkpt lat="44.138173010270265" lon="10.02239666294358"><ele>488.99999999999994</ele><time>2026-04-12T15:02:51.999Z</time></trkpt><trkpt lat="44.1382539036174" lon="10.022331398727449"><ele>486.99999999999994</ele><time>2026-04-12T15:02:52.999Z</time></trkpt><trkpt lat="44.13832295692638" lon="10.022245481130422"><ele>485.0</ele><time>2026-04-12T15:02:53.999Z</time></trkpt><trkpt lat="44.138369371994095" lon="10.022141434158273"><ele>483.0</ele><time>2026-04-12T15:02:54.999Z</time></trkpt><trkpt lat="44.13839707349214" lon="10.022016565871366"><ele>483.0</ele><time>2026-04-12T15:02:55.999Z</time></trkpt><trkpt lat="44.13842034173648" lon="10.02187756542636"><ele>482.99999999999994</ele><time>2026-04-12T15:02:56.999Z</time></trkpt><trkpt lat="44.138432985048894" lon="10.021727965213868"><ele>482.99999999999994</ele><time>2026-04-12T15:02:57.999Z</time></trkpt><trkpt lat="44.138438309913006" lon="10.021572315078892"><ele>483.0</ele><time>2026-04-12T15:02:58.999Z</time></trkpt><trkpt lat="44.138450033395856" lon="10.021415197431008"><ele>483.0</ele><time>2026-04-12T15:02:59.999Z</time></trkpt><trkpt lat="44.13846584493967" lon="10.02126893010972"><ele>481.2</ele><time>2026-04-12T15:03:00.999Z</time></trkpt><trkpt lat="44.13848446394039" lon="10.021129009625751"><ele>479.4</ele><time>2026-04-12T15:03:01.999Z</time></trkpt><trkpt lat="44.13851605731533" lon="10.02098747495655"><ele>477.59999999999997</ele><time>2026-04-12T15:03:02.999Z</time></trkpt><trkpt lat="44.13857006388518" lon="10.020855865676303"><ele>475.79999999999995</ele><time>2026-04-12T15:03:03.999Z</time></trkpt><trkpt lat="44.13864937355281" lon="10.020732629621993"><ele>474.0</ele><time>2026-04-12T15:03:04.999Z</time></trkpt><trkpt lat="44.13875358464938" lon="10.020600020109317"><ele>473.66666666666663</ele><time>2026-04-12T15:03:05.999Z</time></trkpt><trkpt lat="44.13887436790827" lon="10.020460256728134"><ele>473.3333333333333</ele><time>2026-04-12T15:03:06.999Z</time></trkpt><trkpt lat="44.139007716756296" lon="10.020320396103916"><ele>473.0</ele><time>2026-04-12T15:03:07.999Z</time></trkpt><trkpt lat="44.139119167577874" lon="10.020186176293338"><ele>473.0</ele><time>2026-04-12T15:03:08.999Z</time></trkpt><trkpt lat="44.13922476541462" lon="10.020074415021979"><ele>473.0</ele><time>2026-04-12T15:03:09.999Z</time></trkpt><trkpt lat="44.13933008704736" lon="10.019980456138518"><ele>473.0</ele><time>2026-04-12T15:03:10.999Z</time></trkpt><trkpt lat="44.13945146641643" lon="10.019917128327593"><ele>473.0</ele><time>2026-04-12T15:03:11.999Z</time></trkpt><trkpt lat="44.13959042742302" lon="10.019867176119915"><ele>469.5</ele><time>2026-04-12T15:03:12.999Z</time></trkpt><trkpt lat="44.139743690577944" lon="10.019831114409952"><ele>466.0</ele><time>2026-04-12T15:03:13.999Z</time></trkpt><trkpt lat="44.1398846559934" lon="10.019787972053415"><ele>462.5</ele><time>2026-04-12T15:03:14.999Z</time></trkpt><trkpt lat="44.140009040877274" lon="10.01972845046493"><ele>459.0</ele><time>2026-04-12T15:03:15.999Z</time></trkpt><trkpt lat="44.140126830352756" lon="10.019652293062375"><ele>459.0</ele><time>2026-04-12T15:03:16.999Z</time></trkpt><trkpt lat="44.14022877869536" lon="10.01957629360528"><ele>459.0</ele><time>2026-04-12T15:03:17.999Z</time></trkpt><trkpt lat="44.140311196012746" lon="10.01949621723817"><ele>459.0</ele><time>2026-04-12T15:03:18.999Z</time></trkpt><trkpt lat="44.140380615305865" lon="10.019419484629342"><ele>459.0</ele><time>2026-04-12T15:03:19.999Z</time></trkpt><trkpt lat="44.140390434103736" lon="10.019290404105659"><ele>459.0</ele><time>2026-04-12T15:03:20.999Z</time></trkpt><trkpt lat="44.140401422427956" lon="10.019162239196703"><ele>457.2</ele><time>2026-04-12T15:03:21.999Z</time></trkpt><trkpt lat="44.14041336866287" lon="10.019025502957968"><ele>455.4</ele><time>2026-04-12T15:03:23Z</time></trkpt><trkpt lat="44.14044226770247" lon="10.018900806233454"><ele>453.6</ele><time>2026-04-12T15:03:24Z</time></trkpt><trkpt lat="44.140483031205264" lon="10.01879153499004"><ele>451.8</ele><time>2026-04-12T15:03:25Z</time></trkpt><trkpt lat="44.14054159700053" lon="10.018696869182918"><ele>450.0</ele><time>2026-04-12T15:03:26Z</time></trkpt><trkpt lat="44.14059452964822" lon="10.018606707621021"><ele>450.0</ele><time>2026-04-12T15:03:27Z</time></trkpt><trkpt lat="44.14063356356835" lon="10.018506797215958"><ele>450.0</ele><time>2026-04-12T15:03:28Z</time></trkpt><trkpt lat="44.140651597906256" lon="10.018392254147631"><ele>450.0</ele><time>2026-04-12T15:03:29Z</time></trkpt><trkpt lat="44.140645239183506" lon="10.018270898492162"><ele>450.0</ele><time>2026-04-12T15:03:30Z</time></trkpt><trkpt lat="44.14062960953335" lon="10.018152931548542"><ele>450.0</ele><time>2026-04-12T15:03:31Z</time></trkpt><trkpt lat="44.14059712605713" lon="10.018033059509175"><ele>450.0</ele><time>2026-04-12T15:03:32Z</time></trkpt><trkpt lat="44.14054745241686" lon="10.01792139382859"><ele>449.8333333333333</ele><time>2026-04-12T15:03:33Z</time></trkpt><trkpt lat="44.140489047942495" lon="10.017816414133824"><ele>449.66666666666663</ele><time>2026-04-12T15:03:34Z</time></trkpt><trkpt lat="44.14042670486084" lon="10.017720996784302"><ele>449.5</ele><time>2026-04-12T15:03:35Z</time></trkpt><trkpt lat="44.14037589092105" lon="10.017643424464563"><ele>449.3333333333333</ele><time>2026-04-12T15:03:36Z</time></trkpt><trkpt lat="44.14031647863407" lon="10.017558203206342"><ele>449.16666666666663</ele><time>2026-04-12T15:03:38Z</time></trkpt><trkpt lat="44.140262124969425" lon="10.017460691716915"><ele>449.0</ele><time>2026-04-12T15:04:59.999Z</time></trkpt><trkpt lat="44.14021190927958" lon="10.017370821657348"><ele>448.16666666666663</ele><time>2026-04-12T15:05:01.999Z</time></trkpt><trkpt lat="44.14017859217615" lon="10.017213280246681"><ele>447.3333333333333</ele><time>2026-04-12T15:05:03.999Z</time></trkpt><trkpt lat="44.14017090402383" lon="10.017116273572872"><ele>446.5</ele><time>2026-04-12T15:05:04.999Z</time></trkpt><trkpt lat="44.14017897643125" lon="10.017009485154402"><ele>445.66666666666663</ele><time>2026-04-12T15:05:05.999Z</time></trkpt><trkpt lat="44.140201709692064" lon="10.016902793068361"><ele>444.8333333333333</ele><time>2026-04-12T15:05:06.999Z</time></trkpt><trkpt lat="44.14024525475573" lon="10.016805640489244"><ele>444.0</ele><time>2026-04-12T15:05:07.999Z</time></trkpt><trkpt lat="44.14030127626395" lon="10.01671334260833"><ele>443.2</ele><time>2026-04-12T15:05:08.999Z</time></trkpt><trkpt lat="44.140365891548164" lon="10.016618579882989"><ele>442.4</ele><time>2026-04-12T15:05:09.999Z</time></trkpt><trkpt lat="44.14041047933733" lon="10.01651857459985"><ele>441.6</ele><time>2026-04-12T15:05:10.999Z</time></trkpt><trkpt lat="44.14043600366614" lon="10.016389158263872"><ele>440.8</ele><time>2026-04-12T15:05:11.999Z</time></trkpt><trkpt lat="44.1404663834808" lon="10.016259128210764"><ele>440.0</ele><time>2026-04-12T15:05:12.999Z</time></trkpt><trkpt lat="44.14044297738704" lon="10.016115868487391"><ele>440.0</ele><time>2026-04-12T15:05:13.999Z</time></trkpt><trkpt lat="44.140438253590176" lon="10.015964090882813"><ele>440.0</ele><time>2026-04-12T15:05:14.999Z</time></trkpt><trkpt lat="44.140404699030974" lon="10.015814549898506"><ele>440.0</ele><time>2026-04-12T15:05:15.999Z</time></trkpt><trkpt lat="44.14036032851917" lon="10.01568367881614"><ele>440.0</ele><time>2026-04-12T15:05:16.999Z</time></trkpt><trkpt lat="44.14034398962089" lon="10.015554575045876"><ele>440.0</ele><time>2026-04-12T15:05:17.999Z</time></trkpt><trkpt lat="44.14035257864056" lon="10.015428232471464"><ele>438.2</ele><time>2026-04-12T15:05:18.999Z</time></trkpt><trkpt lat="44.14038272779617" lon="10.01530176305012"><ele>436.4</ele><time>2026-04-12T15:05:19.999Z</time></trkpt><trkpt lat="44.14042368002244" lon="10.015174640654475"><ele>434.6</ele><time>2026-04-12T15:05:20.999Z</time></trkpt><trkpt lat="44.14048849043923" lon="10.015054655880293"><ele>432.8</ele><time>2026-04-12T15:05:21.999Z</time></trkpt><trkpt lat="44.14053199144366" lon="10.014908682469947"><ele>431.0</ele><time>2026-04-12T15:05:22.999Z</time></trkpt><trkpt lat="44.14058639067805" lon="10.014768490015982"><ele>431.20000000000005</ele><time>2026-04-12T15:05:23.999Z</time></trkpt><trkpt lat="44.14064322730451" lon="10.014636278633077"><ele>431.40000000000003</ele><time>2026-04-12T15:05:24.999Z</time></trkpt><trkpt lat="44.14071212136838" lon="10.014520851512069"><ele>431.6</ele><time>2026-04-12T15:05:25.999Z</time></trkpt><trkpt lat="44.14076590871383" lon="10.014390928104907"><ele>431.8</ele><time>2026-04-12T15:05:26.999Z</time></trkpt><trkpt lat="44.14079507375016" lon="10.01425171395926"><ele>432.0</ele><time>2026-04-12T15:05:27.999Z</time></trkpt><trkpt lat="44.140826940766495" lon="10.014126197620012"><ele>430.0</ele><time>2026-04-12T15:05:29Z</time></trkpt><trkpt lat="44.14084261168258" lon="10.014001337146766"><ele>428.00000000000006</ele><time>2026-04-12T15:05:30Z</time></trkpt><trkpt lat="44.1408520544472" lon="10.013879287881041"><ele>426.0</ele><time>2026-04-12T15:05:31Z</time></trkpt><trkpt lat="44.14085760074289" lon="10.013753240060984"><ele>424.0</ele><time>2026-04-12T15:05:32Z</time></trkpt><trkpt lat="44.14086563225604" lon="10.013623284685169"><ele>422.0</ele><time>2026-04-12T15:05:33Z</time></trkpt><trkpt lat="44.14087351563037" lon="10.013490741371076"><ele>422.0</ele><time>2026-04-12T15:05:34Z</time></trkpt><trkpt lat="44.140881025666054" lon="10.013356933269975"><ele>422.0</ele><time>2026-04-12T15:05:35Z</time></trkpt><trkpt lat="44.14089660474942" lon="10.01322015894685"><ele>422.0</ele><time>2026-04-12T15:05:36Z</time></trkpt><trkpt lat="44.14091534373767" lon="10.013084034809994"><ele>422.0</ele><time>2026-04-12T15:05:37Z</time></trkpt><trkpt lat="44.14093306583201" lon="10.012948244162224"><ele>422.0</ele><time>2026-04-12T15:05:38Z</time></trkpt><trkpt lat="44.14096415681243" lon="10.012814017914685"><ele>420.3333333333333</ele><time>2026-04-12T15:05:39Z</time></trkpt><trkpt lat="44.14099935462823" lon="10.01269115348294"><ele>418.66666666666663</ele><time>2026-04-12T15:05:40Z</time></trkpt><trkpt lat="44.14102469739917" lon="10.012570844700432"><ele>417.0</ele><time>2026-04-12T15:05:41Z</time></trkpt><trkpt lat="44.14104880060518" lon="10.012461022559485"><ele>415.33333333333337</ele><time>2026-04-12T15:05:42Z</time></trkpt><trkpt lat="44.14106908261757" lon="10.012356097765693"><ele>413.6666666666667</ele><time>2026-04-12T15:05:43Z</time></trkpt><trkpt lat="44.14108393097023" lon="10.01224923973749"><ele>412.0</ele><time>2026-04-12T15:05:44Z</time></trkpt><trkpt lat="44.141084660461814" lon="10.01213763095048"><ele>411.1666666666667</ele><time>2026-04-12T15:05:45Z</time></trkpt><trkpt lat="44.141100512935736" lon="10.012030972823107"><ele>410.33333333333337</ele><time>2026-04-12T15:05:46Z</time></trkpt><trkpt lat="44.141073803619584" lon="10.011929116089156"><ele>409.5</ele><time>2026-04-12T15:05:47Z</time></trkpt><trkpt lat="44.14105829657883" lon="10.011814744285706"><ele>408.66666666666663</ele><time>2026-04-12T15:05:48Z</time></trkpt><trkpt lat="44.14103751739552" lon="10.01169313492957"><ele>407.8333333333333</ele><time>2026-04-12T15:05:49Z</time></trkpt><trkpt lat="44.14101278661663" lon="10.011562420702424"><ele>407.0</ele><time>2026-04-12T15:05:50Z</time></trkpt><trkpt lat="44.14098746067251" lon="10.011427113488498"><ele>406.8</ele><time>2026-04-12T15:05:51Z</time></trkpt><trkpt lat="44.140958584237055" lon="10.011291790402225"><ele>406.6</ele><time>2026-04-12T15:05:52Z</time></trkpt><trkpt lat="44.14093186672822" lon="10.011162798170972"><ele>406.40000000000003</ele><time>2026-04-12T15:05:53Z</time></trkpt><trkpt lat="44.14090550050993" lon="10.011043490950376"><ele>406.20000000000005</ele><time>2026-04-12T15:05:54Z</time></trkpt><trkpt lat="44.140875122804694" lon="10.010932154062566"><ele>406.0</ele><time>2026-04-12T15:05:55Z</time></trkpt><trkpt lat="44.14084164469094" lon="10.010829205117405"><ele>406.50000000000006</ele><time>2026-04-12T15:05:56Z</time></trkpt><trkpt lat="44.14079805085157" lon="10.01073033202626"><ele>407.0</ele><time>2026-04-12T15:05:57Z</time></trkpt><trkpt lat="44.14074833498559" lon="10.010631111959809"><ele>407.5</ele><time>2026-04-12T15:05:58Z</time></trkpt><trkpt lat="44.14069391971399" lon="10.010538792281777"><ele>408.0</ele><time>2026-04-12T15:05:59Z</time></trkpt><trkpt lat="44.14063124904617" lon="10.010464703458624"><ele>408.50000000000006</ele><time>2026-04-12T15:06:00Z</time></trkpt><trkpt lat="44.140565646046575" lon="10.010394819182334"><ele>409.0</ele><time>2026-04-12T15:06:01Z</time></trkpt><trkpt lat="44.14051962349573" lon="10.01030121282002"><ele>406.6666666666667</ele><time>2026-04-12T15:06:02Z</time></trkpt><trkpt lat="44.140455195400015" lon="10.010225021847152"><ele>404.33333333333337</ele><time>2026-04-12T15:06:03Z</time></trkpt><trkpt lat="44.14040144578332" lon="10.010121199387832"><ele>402.0</ele><time>2026-04-12T15:06:04Z</time></trkpt><trkpt lat="44.14034932669986" lon="10.0100110709008"><ele>399.66666666666663</ele><time>2026-04-12T15:06:05Z</time></trkpt><trkpt lat="44.14030723257027" lon="10.009906218822126"><ele>397.3333333333333</ele><time>2026-04-12T15:06:06Z</time></trkpt><trkpt lat="44.14027732367541" lon="10.009796673636298"><ele>395.0</ele><time>2026-04-12T15:06:07Z</time></trkpt><trkpt lat="44.14027217134221" lon="10.009683588977854"><ele>395.0</ele><time>2026-04-12T15:06:08Z</time></trkpt><trkpt lat="44.140235703266306" lon="10.009589148931916"><ele>395.0</ele><time>2026-04-12T15:06:09Z</time></trkpt><trkpt lat="44.14017653648584" lon="10.009443621667677"><ele>395.0</ele><time>2026-04-12T15:06:11Z</time></trkpt><trkpt lat="44.140098092354556" lon="10.00935746296663"><ele>395.0</ele><time>2026-04-12T15:06:13Z</time></trkpt><trkpt lat="44.14002301985694" lon="10.009288994855625"><ele>395.0</ele><time>2026-04-12T15:06:15Z</time></trkpt><trkpt lat="44.13994487161717" lon="10.009223606508595"><ele>393.2</ele><time>2026-04-12T15:06:17Z</time></trkpt><trkpt lat="44.139869741805484" lon="10.009161892264627"><ele>391.4</ele><time>2026-04-12T15:06:19Z</time></trkpt><trkpt lat="44.13979749568159" lon="10.009080955918748"><ele>389.6</ele><time>2026-04-12T15:06:21Z</time></trkpt><trkpt lat="44.139732372320076" lon="10.008960649462779"><ele>387.8</ele><time>2026-04-12T15:06:23Z</time></trkpt><trkpt lat="44.13965812116074" lon="10.008872602043175"><ele>386.0</ele><time>2026-04-12T15:06:25Z</time></trkpt><trkpt lat="44.139608333718506" lon="10.008787813542872"><ele>386.0</ele><time>2026-04-12T15:06:26.999Z</time></trkpt><trkpt lat="44.13956912057479" lon="10.008704601020717"><ele>386.0</ele><time>2026-04-12T15:06:35.999Z</time></trkpt><trkpt lat="44.13960990924939" lon="10.008771418423976"><ele>386.0</ele><time>2026-04-12T15:06:41.999Z</time></trkpt><trkpt lat="44.139670300008426" lon="10.008870346843821"><ele>386.0</ele><time>2026-04-12T15:06:55.999Z</time></trkpt><trkpt lat="44.13972806477063" lon="10.008954297739209"><ele>386.0</ele><time>2026-04-12T15:06:57.999Z</time></trkpt><trkpt lat="44.13977374201287" lon="10.009020379981086"><ele>386.0</ele><time>2026-04-12T15:07:00.999Z</time></trkpt></trkseg></trk></gpx>